<?xml version='1.0' encoding='UTF-8'?><gpx version="1.1" creator="JPX - https://github.com/jenetics/jpx" xmlns="http://www.topografix.com/GPX/1/1"><trk><trkseg><trkpt lat="45.9730109" lon="12.6790136"><ele>33.0</ele><time>2026-03-28T15:02:57.005Z</time></trkpt><trkpt lat="45.9731086" lon="12.6793979"><ele>33.0</ele><time>2026-03-28T15:03:02.501Z</time></trkpt><trkpt lat="45.9735357" lon="12.6787203"><ele>33.0</ele><time>2026-03-28T15:03:09.163Z</time></trkpt><trkpt lat="45.973726" lon="12.6783497"><ele>33.0</ele><time>2026-03-28T15:03:15.811Z</time></trkpt><trkpt lat="45.9729742" lon="12.6780239"><ele>33.0</ele><time>2026-03-28T15:03:28.557Z</time></trkpt><trkpt lat="45.9728452" lon="12.6779807"><ele>33.0</ele><time>2026-03-28T15:03:33.569Z</time></trkpt><trkpt lat="45.9727646" lon="12.6780182"><ele>33.0</ele><time>2026-03-28T15:03:40.286Z</time></trkpt><trkpt lat="45.9730165" lon="12.6790386"><ele>33.0</ele><time>2026-03-28T15:04:24.32Z</time></trkpt><trkpt lat="45.9730383" lon="12.6793137"><ele>33.0</ele><time>2026-03-28T15:04:29.986Z</time></trkpt><trkpt lat="45.9736794" lon="12.6781308"><ele>35.0</ele><time>2026-03-28T15:04:56.046Z</time></trkpt><trkpt lat="45.9746032" lon="12.6768899"><ele>35.0</ele><time>2026-03-28T15:05:16.708Z</time></trkpt><trkpt lat="45.9751284" lon="12.6763302"><ele>35.0</ele><time>2026-03-28T15:05:22.724Z</time></trkpt><trkpt lat="45.975306" lon="12.6762"><ele>35.0</ele><time>2026-03-28T15:05:28.855Z</time></trkpt><trkpt lat="45.9753725" lon="12.6766494"><ele>36.0</ele><time>2026-03-28T15:05:34.874Z</time></trkpt><trkpt lat="45.9757045" lon="12.6772718"><ele>35.0</ele><time>2026-03-28T15:05:40.846Z</time></trkpt><trkpt lat="45.976321" lon="12.6786428"><ele>35.0</ele><time>2026-03-28T15:05:46.445Z</time></trkpt><trkpt lat="45.9763877" lon="12.6788435"><ele>35.0</ele><time>2026-03-28T15:05:52.408Z</time></trkpt><trkpt lat="45.976639" lon="12.6799535"><ele>37.0</ele><time>2026-03-28T15:05:58.379Z</time></trkpt><trkpt lat="45.9769509" lon="12.6804456"><ele>37.0</ele><time>2026-03-28T15:06:04.46Z</time></trkpt><trkpt lat="45.9771455" lon="12.6808541"><ele>37.0</ele><time>2026-03-28T15:06:27.606Z</time></trkpt><trkpt lat="45.9772312" lon="12.6812561"><ele>38.0</ele><time>2026-03-28T15:06:33.604Z</time></trkpt><trkpt lat="45.9775438" lon="12.6818099"><ele>37.0</ele><time>2026-03-28T15:06:39.536Z</time></trkpt><trkpt lat="45.9788171" lon="12.6832672"><ele>38.0</ele><time>2026-03-28T15:06:51.506Z</time></trkpt><trkpt lat="45.9772376" lon="12.6813345"><ele>40.0</ele><time>2026-03-28T15:06:57.607Z</time></trkpt><trkpt lat="45.9803322" lon="12.687999"><ele>40.0</ele><time>2026-03-28T15:07:14.099Z</time></trkpt><trkpt lat="45.9812381" lon="12.6881647"><ele>42.0</ele><time>2026-03-28T15:07:19.732Z</time></trkpt><trkpt lat="45.9817075" lon="12.6890315"><ele>42.0</ele><time>2026-03-28T15:07:25.317Z</time></trkpt><trkpt lat="45.9821548" lon="12.6901451"><ele>42.0</ele><time>2026-03-28T15:07:31.417Z</time></trkpt><trkpt lat="45.9824408" lon="12.6908578"><ele>43.0</ele><time>2026-03-28T15:07:37.81Z</time></trkpt><trkpt lat="45.9831433" lon="12.6915214"><ele>41.0</ele><time>2026-03-28T15:07:43.498Z</time></trkpt><trkpt lat="45.9833102" lon="12.6921608"><ele>41.5</ele><time>2026-03-28T15:07:49.306Z</time></trkpt><trkpt lat="45.9836387" lon="12.692511"><ele>42.0</ele><time>2026-03-28T15:08:01.585Z</time></trkpt><trkpt lat="45.9842883" lon="12.6932627"><ele>42.0</ele><time>2026-03-28T15:08:13.831Z</time></trkpt><trkpt lat="45.9851633" lon="12.6948674"><ele>42.0</ele><time>2026-03-28T15:08:19.986Z</time></trkpt><trkpt lat="45.9856991" lon="12.6949482"><ele>43.0</ele><time>2026-03-28T15:08:31.264Z</time></trkpt><trkpt lat="45.986244" lon="12.695459"><ele>44.0</ele><time>2026-03-28T15:08:37.264Z</time></trkpt><trkpt lat="45.9867293" lon="12.6958161"><ele>44.0</ele><time>2026-03-28T15:08:43.356Z</time></trkpt><trkpt lat="45.9868424" lon="12.6960156"><ele>44.0</ele><time>2026-03-28T15:08:49.437Z</time></trkpt><trkpt lat="45.9877197" lon="12.6961045"><ele>45.0</ele><time>2026-03-28T15:08:55.509Z</time></trkpt><trkpt lat="45.9881468" lon="12.6967526"><ele>43.0</ele><time>2026-03-28T15:09:01.512Z</time></trkpt><trkpt lat="45.9884637" lon="12.6987815"><ele>45.0</ele><time>2026-03-28T15:09:12.324Z</time></trkpt><trkpt lat="45.9894664" lon="12.6996911"><ele>43.0</ele><time>2026-03-28T15:09:18.281Z</time></trkpt><trkpt lat="45.9897054" lon="12.7006808"><ele>43.0</ele><time>2026-03-28T15:09:24.274Z</time></trkpt><trkpt lat="45.9900204" lon="12.7013071"><ele>43.0</ele><time>2026-03-28T15:09:30.568Z</time></trkpt><trkpt lat="45.9904737" lon="12.7017775"><ele>46.0</ele><time>2026-03-28T15:09:36.083Z</time></trkpt><trkpt lat="45.9910902" lon="12.7016009"><ele>46.0</ele><time>2026-03-28T15:09:59.53Z</time></trkpt><trkpt lat="45.9910553" lon="12.7012687"><ele>46.0</ele><time>2026-03-28T15:10:05.008Z</time></trkpt><trkpt lat="45.9914642" lon="12.7022988"><ele>45.0</ele><time>2026-03-28T15:10:10.985Z</time></trkpt><trkpt lat="45.9921714" lon="12.7042118"><ele>45.5</ele><time>2026-03-28T15:10:16.756Z</time></trkpt><trkpt lat="45.9924017" lon="12.7045876"><ele>46.0</ele><time>2026-03-28T15:10:22.886Z</time></trkpt><trkpt lat="45.9930488" lon="12.7050098"><ele>47.0</ele><time>2026-03-28T15:10:28.547Z</time></trkpt><trkpt lat="45.9937009" lon="12.7059438"><ele>48.0</ele><time>2026-03-28T15:10:34.538Z</time></trkpt><trkpt lat="45.9943162" lon="12.7070606"><ele>48.0</ele><time>2026-03-28T15:10:40.188Z</time></trkpt><trkpt lat="45.9944277" lon="12.7078183"><ele>48.0</ele><time>2026-03-28T15:10:46.359Z</time></trkpt><trkpt lat="45.9945383" lon="12.7081163"><ele>48.0</ele><time>2026-03-28T15:10:51.545Z</time></trkpt><trkpt lat="45.9947043" lon="12.7094129"><ele>47.0</ele><time>2026-03-28T15:10:57.646Z</time></trkpt><trkpt lat="45.994969" lon="12.7100578"><ele>49.0</ele><time>2026-03-28T15:11:03.756Z</time></trkpt><trkpt lat="45.995091" lon="12.7110243"><ele>49.5</ele><time>2026-03-28T15:11:09.423Z</time></trkpt><trkpt lat="45.9951067" lon="12.7111363"><ele>50.0</ele><time>2026-03-28T15:11:14.971Z</time></trkpt><trkpt lat="45.9956773" lon="12.7117561"><ele>52.0</ele><time>2026-03-28T15:11:21Z</time></trkpt><trkpt lat="45.9966346" lon="12.7119289"><ele>50.0</ele><time>2026-03-28T15:11:26.582Z</time></trkpt><trkpt lat="45.9967623" lon="12.7128806"><ele>50.0</ele><time>2026-03-28T15:11:32.123Z</time></trkpt><trkpt lat="45.996695" lon="12.7131799"><ele>50.0</ele><time>2026-03-28T15:11:37.634Z</time></trkpt><trkpt lat="45.9955746" lon="12.7137157"><ele>50.0</ele><time>2026-03-28T15:11:43.315Z</time></trkpt><trkpt lat="45.9953847" lon="12.7138416"><ele>50.0</ele><time>2026-03-28T15:11:48.883Z</time></trkpt><trkpt lat="45.9940802" lon="12.7148555"><ele>44.0</ele><time>2026-03-28T15:12:00.497Z</time></trkpt><trkpt lat="45.9919342" lon="12.7166527"><ele>44.0</ele><time>2026-03-28T15:12:16.573Z</time></trkpt><trkpt lat="45.9922378" lon="12.7163197"><ele>44.0</ele><time>2026-03-28T15:12:22.593Z</time></trkpt><trkpt lat="45.9920877" lon="12.7160268"><ele>44.0</ele><time>2026-03-28T15:12:28.624Z</time></trkpt><trkpt lat="45.9920992" lon="12.7162274"><ele>44.0</ele><time>2026-03-28T15:12:42.937Z</time></trkpt><trkpt lat="45.9921251" lon="12.7163531"><ele>44.0</ele><time>2026-03-28T15:12:45.937Z</time></trkpt><trkpt lat="45.9926814" lon="12.7179535"><ele>44.33333333333333</ele><time>2026-03-28T15:12:55.07Z</time></trkpt><trkpt lat="45.9926493" lon="12.7182996"><ele>44.666666666666664</ele><time>2026-03-28T15:12:57.936Z</time></trkpt><trkpt lat="45.9927033" lon="12.7184636"><ele>45.0</ele><time>2026-03-28T15:12:58.936Z</time></trkpt><trkpt lat="45.9927344" lon="12.7185779"><ele>45.0</ele><time>2026-03-28T15:12:59.936Z</time></trkpt><trkpt lat="45.9928057" lon="12.7188264"><ele>45.0</ele><time>2026-03-28T15:13:00.936Z</time></trkpt><trkpt lat="45.9928809" lon="12.7189608"><ele>45.0</ele><time>2026-03-28T15:13:02.937Z</time></trkpt><trkpt lat="45.9929428" lon="12.7190834"><ele>45.0</ele><time>2026-03-28T15:13:04.937Z</time></trkpt><trkpt lat="45.9929546" lon="12.7192423"><ele>44.5</ele><time>2026-03-28T15:13:05.937Z</time></trkpt><trkpt lat="45.9930565" lon="12.7195786"><ele>44.0</ele><time>2026-03-28T15:13:06.936Z</time></trkpt><trkpt lat="45.9931611" lon="12.7199098"><ele>44.0</ele><time>2026-03-28T15:13:07.937Z</time></trkpt><trkpt lat="45.9932513" lon="12.7202128"><ele>44.0</ele><time>2026-03-28T15:13:08.936Z</time></trkpt><trkpt lat="45.9932966" lon="12.7206354"><ele>44.0</ele><time>2026-03-28T15:13:09.937Z</time></trkpt><trkpt lat="45.9933775" lon="12.7208575"><ele>44.0</ele><time>2026-03-28T15:13:10.936Z</time></trkpt><trkpt lat="45.9934392" lon="12.7210569"><ele>44.0</ele><time>2026-03-28T15:13:11.936Z</time></trkpt><trkpt lat="45.9934967" lon="12.7211548"><ele>44.0</ele><time>2026-03-28T15:13:12.937Z</time></trkpt><trkpt lat="45.9935295" lon="12.7213103"><ele>44.0</ele><time>2026-03-28T15:13:13.935Z</time></trkpt><trkpt lat="45.9935917" lon="12.7215746"><ele>44.0</ele><time>2026-03-28T15:13:14.936Z</time></trkpt><trkpt lat="45.9936483" lon="12.721718"><ele>44.0</ele><time>2026-03-28T15:13:15.936Z</time></trkpt><trkpt lat="45.9937157" lon="12.7218684"><ele>44.0</ele><time>2026-03-28T15:13:16.937Z</time></trkpt><trkpt lat="45.9937768" lon="12.7220438"><ele>44.0</ele><time>2026-03-28T15:13:17.936Z</time></trkpt><trkpt lat="45.9938108" lon="12.7222546"><ele>44.0</ele><time>2026-03-28T15:13:18.936Z</time></trkpt><trkpt lat="45.9938626" lon="12.7225326"><ele>44.0</ele><time>2026-03-28T15:13:19.936Z</time></trkpt><trkpt lat="45.993907" lon="12.7227639"><ele>43.75</ele><time>2026-03-28T15:13:20.936Z</time></trkpt><trkpt lat="45.9939567" lon="12.7229116"><ele>43.5</ele><time>2026-03-28T15:13:21.937Z</time></trkpt><trkpt lat="45.9939928" lon="12.7231352"><ele>43.25</ele><time>2026-03-28T15:13:22.936Z</time></trkpt><trkpt lat="45.9940313" lon="12.7233333"><ele>43.0</ele><time>2026-03-28T15:13:23.936Z</time></trkpt><trkpt lat="45.9940717" lon="12.7235853"><ele>42.75</ele><time>2026-03-28T15:13:24.936Z</time></trkpt><trkpt lat="45.9941185" lon="12.7237735"><ele>42.5</ele><time>2026-03-28T15:13:25.937Z</time></trkpt><trkpt lat="45.994172" lon="12.7239116"><ele>42.25</ele><time>2026-03-28T15:13:26.937Z</time></trkpt><trkpt lat="45.994212" lon="12.7240435"><ele>42.0</ele><time>2026-03-28T15:13:27.937Z</time></trkpt><trkpt lat="45.9942431" lon="12.7242187"><ele>41.75</ele><time>2026-03-28T15:13:28.937Z</time></trkpt><trkpt lat="45.9942791" lon="12.7243787"><ele>41.5</ele><time>2026-03-28T15:13:29.937Z</time></trkpt><trkpt lat="45.9942851" lon="12.7245492"><ele>41.25</ele><time>2026-03-28T15:13:30.937Z</time></trkpt><trkpt lat="45.9942869" lon="12.7247182"><ele>41.0</ele><time>2026-03-28T15:13:31.936Z</time></trkpt><trkpt lat="45.9942906" lon="12.7249295"><ele>41.0</ele><time>2026-03-28T15:13:33.936Z</time></trkpt><trkpt lat="45.9943002" lon="12.7250577"><ele>41.0</ele><time>2026-03-28T15:13:34.936Z</time></trkpt><trkpt lat="45.9943261" lon="12.7251995"><ele>41.0</ele><time>2026-03-28T15:13:35.937Z</time></trkpt><trkpt lat="45.9943445" lon="12.7253374"><ele>41.0</ele><time>2026-03-28T15:13:36.936Z</time></trkpt><trkpt lat="45.9943674" lon="12.7255034"><ele>41.0</ele><time>2026-03-28T15:13:37.936Z</time></trkpt><trkpt lat="45.9943906" lon="12.7256335"><ele>41.599999999999994</ele><time>2026-03-28T15:13:38.937Z</time></trkpt><trkpt lat="45.9944127" lon="12.7257919"><ele>42.2</ele><time>2026-03-28T15:13:39.936Z</time></trkpt><trkpt lat="45.9944296" lon="12.7259369"><ele>42.8</ele><time>2026-03-28T15:13:40.936Z</time></trkpt><trkpt lat="45.9944495" lon="12.7260827"><ele>43.400000000000006</ele><time>2026-03-28T15:13:41.936Z</time></trkpt><trkpt lat="45.9944631" lon="12.7262453"><ele>44.0</ele><time>2026-03-28T15:13:42.937Z</time></trkpt><trkpt lat="45.9944898" lon="12.7263415"><ele>44.0</ele><time>2026-03-28T15:13:43.936Z</time></trkpt><trkpt lat="45.9945175" lon="12.7265376"><ele>44.0</ele><time>2026-03-28T15:13:45.937Z</time></trkpt><trkpt lat="45.9945363" lon="12.726695"><ele>44.0</ele><time>2026-03-28T15:13:46.936Z</time></trkpt><trkpt lat="45.9945445" lon="12.7268354"><ele>44.0</ele><time>2026-03-28T15:13:47.936Z</time></trkpt><trkpt lat="45.9945119" lon="12.7269641"><ele>44.0</ele><time>2026-03-28T15:13:48.935Z</time></trkpt><trkpt lat="45.9944768" lon="12.7271247"><ele>43.75</ele><time>2026-03-28T15:13:49.936Z</time></trkpt><trkpt lat="45.9944346" lon="12.727275"><ele>43.5</ele><time>2026-03-28T15:13:50.937Z</time></trkpt><trkpt lat="45.9944062" lon="12.727413"><ele>43.25</ele><time>2026-03-28T15:13:51.937Z</time></trkpt><trkpt lat="45.9943571" lon="12.7275795"><ele>43.0</ele><time>2026-03-28T15:13:52.936Z</time></trkpt><trkpt lat="45.9943198" lon="12.7277328"><ele>43.0</ele><time>2026-03-28T15:13:53.936Z</time></trkpt><trkpt lat="45.9942983" lon="12.7278617"><ele>43.0</ele><time>2026-03-28T15:13:54.936Z</time></trkpt><trkpt lat="45.9942936" lon="12.7280275"><ele>43.0</ele><time>2026-03-28T15:13:55.937Z</time></trkpt><trkpt lat="45.9942852" lon="12.7282206"><ele>43.0</ele><time>2026-03-28T15:13:56.936Z</time></trkpt><trkpt lat="45.994283" lon="12.7284035"><ele>43.0</ele><time>2026-03-28T15:13:57.937Z</time></trkpt><trkpt lat="45.9943048" lon="12.7285411"><ele>43.0</ele><time>2026-03-28T15:13:58.936Z</time></trkpt><trkpt lat="45.9943293" lon="12.7286974"><ele>43.0</ele><time>2026-03-28T15:13:59.937Z</time></trkpt><trkpt lat="45.9943674" lon="12.728855"><ele>43.0</ele><time>2026-03-28T15:14:00.936Z</time></trkpt><trkpt lat="45.9943933" lon="12.7290001"><ele>43.0</ele><time>2026-03-28T15:14:01.936Z</time></trkpt><trkpt lat="45.9944273" lon="12.7291583"><ele>43.25</ele><time>2026-03-28T15:14:02.937Z</time></trkpt><trkpt lat="45.994457" lon="12.7293304"><ele>43.5</ele><time>2026-03-28T15:14:03.936Z</time></trkpt><trkpt lat="45.9944839" lon="12.7295023"><ele>43.75</ele><time>2026-03-28T15:14:04.936Z</time></trkpt><trkpt lat="45.9945148" lon="12.7296766"><ele>44.0</ele><time>2026-03-28T15:14:05.936Z</time></trkpt><trkpt lat="45.9945475" lon="12.7298662"><ele>44.25</ele><time>2026-03-28T15:14:06.936Z</time></trkpt><trkpt lat="45.9945775" lon="12.7300719"><ele>44.5</ele><time>2026-03-28T15:14:07.936Z</time></trkpt><trkpt lat="45.9946053" lon="12.7302641"><ele>44.75</ele><time>2026-03-28T15:14:08.937Z</time></trkpt><trkpt lat="45.9946378" lon="12.7304643"><ele>45.0</ele><time>2026-03-28T15:14:09.936Z</time></trkpt><trkpt lat="45.9946693" lon="12.7306747"><ele>45.0</ele><time>2026-03-28T15:14:10.936Z</time></trkpt><trkpt lat="45.994695" lon="12.7308494"><ele>45.0</ele><time>2026-03-28T15:14:11.936Z</time></trkpt><trkpt lat="45.9947242" lon="12.7310139"><ele>45.0</ele><time>2026-03-28T15:14:12.937Z</time></trkpt><trkpt lat="45.9947413" lon="12.7311938"><ele>45.0</ele><time>2026-03-28T15:14:13.936Z</time></trkpt><trkpt lat="45.9947696" lon="12.7313576"><ele>45.0</ele><time>2026-03-28T15:14:14.937Z</time></trkpt><trkpt lat="45.9947869" lon="12.7315332"><ele>45.0</ele><time>2026-03-28T15:14:15.937Z</time></trkpt><trkpt lat="45.9947942" lon="12.7317039"><ele>45.0</ele><time>2026-03-28T15:14:16.936Z</time></trkpt><trkpt lat="45.9947919" lon="12.7319003"><ele>45.0</ele><time>2026-03-28T15:14:17.937Z</time></trkpt><trkpt lat="45.9947895" lon="12.7321065"><ele>44.75</ele><time>2026-03-28T15:14:18.936Z</time></trkpt><trkpt lat="45.9947866" lon="12.7323125"><ele>44.5</ele><time>2026-03-28T15:14:19.937Z</time></trkpt><trkpt lat="45.9947796" lon="12.7324794"><ele>44.25</ele><time>2026-03-28T15:14:20.937Z</time></trkpt><trkpt lat="45.9947774" lon="12.7326605"><ele>44.0</ele><time>2026-03-28T15:14:21.936Z</time></trkpt><trkpt lat="45.9947712" lon="12.7328264"><ele>44.0</ele><time>2026-03-28T15:14:22.937Z</time></trkpt><trkpt lat="45.9947599" lon="12.7329676"><ele>44.0</ele><time>2026-03-28T15:14:23.936Z</time></trkpt><trkpt lat="45.9947615" lon="12.733202"><ele>44.0</ele><time>2026-03-28T15:14:24.936Z</time></trkpt><trkpt lat="45.9947406" lon="12.7333682"><ele>44.0</ele><time>2026-03-28T15:14:25.936Z</time></trkpt><trkpt lat="45.9947244" lon="12.7335482"><ele>43.75</ele><time>2026-03-28T15:14:26.936Z</time></trkpt><trkpt lat="45.9946913" lon="12.7337243"><ele>43.5</ele><time>2026-03-28T15:14:27.935Z</time></trkpt><trkpt lat="45.9946503" lon="12.73389"><ele>43.25</ele><time>2026-03-28T15:14:28.937Z</time></trkpt><trkpt lat="45.9946001" lon="12.7340401"><ele>43.0</ele><time>2026-03-28T15:14:29.937Z</time></trkpt><trkpt lat="45.994542" lon="12.7341832"><ele>43.0</ele><time>2026-03-28T15:14:30.936Z</time></trkpt><trkpt lat="45.9944872" lon="12.73438"><ele>43.0</ele><time>2026-03-28T15:14:31.936Z</time></trkpt><trkpt lat="45.9944273" lon="12.7345301"><ele>43.0</ele><time>2026-03-28T15:14:32.937Z</time></trkpt><trkpt lat="45.9943704" lon="12.7347016"><ele>43.0</ele><time>2026-03-28T15:14:33.936Z</time></trkpt><trkpt lat="45.994328" lon="12.7348578"><ele>42.5</ele><time>2026-03-28T15:14:34.936Z</time></trkpt><trkpt lat="45.9942922" lon="12.7350153"><ele>42.0</ele><time>2026-03-28T15:14:35.936Z</time></trkpt><trkpt lat="45.9942841" lon="12.735257"><ele>41.5</ele><time>2026-03-28T15:14:36.936Z</time></trkpt><trkpt lat="45.9942527" lon="12.7354273"><ele>41.0</ele><time>2026-03-28T15:14:37.937Z</time></trkpt><trkpt lat="45.9942337" lon="12.7356612"><ele>41.0</ele><time>2026-03-28T15:14:38.936Z</time></trkpt><trkpt lat="45.994214" lon="12.7358908"><ele>41.0</ele><time>2026-03-28T15:14:39.936Z</time></trkpt><trkpt lat="45.9941938" lon="12.7361076"><ele>41.0</ele><time>2026-03-28T15:14:40.936Z</time></trkpt><trkpt lat="45.9941639" lon="12.7363078"><ele>41.25</ele><time>2026-03-28T15:14:41.937Z</time></trkpt><trkpt lat="45.9941359" lon="12.7364979"><ele>41.5</ele><time>2026-03-28T15:14:42.937Z</time></trkpt><trkpt lat="45.9941153" lon="12.7366631"><ele>41.75</ele><time>2026-03-28T15:14:43.936Z</time></trkpt><trkpt lat="45.9940973" lon="12.7368169"><ele>42.0</ele><time>2026-03-28T15:14:44.936Z</time></trkpt><trkpt lat="45.9940954" lon="12.7369804"><ele>42.0</ele><time>2026-03-28T15:14:45.936Z</time></trkpt><trkpt lat="45.9940996" lon="12.7371612"><ele>42.0</ele><time>2026-03-28T15:14:46.936Z</time></trkpt><trkpt lat="45.9941186" lon="12.7373291"><ele>42.0</ele><time>2026-03-28T15:14:47.937Z</time></trkpt><trkpt lat="45.9941513" lon="12.7375183"><ele>42.0</ele><time>2026-03-28T15:14:48.936Z</time></trkpt><trkpt lat="45.9942207" lon="12.7376574"><ele>41.75</ele><time>2026-03-28T15:14:49.937Z</time></trkpt><trkpt lat="45.994265" lon="12.7378364"><ele>41.5</ele><time>2026-03-28T15:14:50.936Z</time></trkpt><trkpt lat="45.9943287" lon="12.7379824"><ele>41.25</ele><time>2026-03-28T15:14:51.936Z</time></trkpt><trkpt lat="45.994387" lon="12.7381318"><ele>41.0</ele><time>2026-03-28T15:14:52.937Z</time></trkpt><trkpt lat="45.9944384" lon="12.7382863"><ele>41.0</ele><time>2026-03-28T15:14:53.936Z</time></trkpt><trkpt lat="45.9944816" lon="12.7384466"><ele>41.0</ele><time>2026-03-28T15:14:54.936Z</time></trkpt><trkpt lat="45.9945147" lon="12.7386105"><ele>41.0</ele><time>2026-03-28T15:14:55.936Z</time></trkpt><trkpt lat="45.9945249" lon="12.7387587"><ele>41.0</ele><time>2026-03-28T15:14:56.937Z</time></trkpt><trkpt lat="45.9945201" lon="12.7389059"><ele>41.0</ele><time>2026-03-28T15:14:57.936Z</time></trkpt><trkpt lat="45.9945154" lon="12.7390373"><ele>41.0</ele><time>2026-03-28T15:14:58.936Z</time></trkpt><trkpt lat="45.9945095" lon="12.7391575"><ele>41.0</ele><time>2026-03-28T15:14:59.936Z</time></trkpt><trkpt lat="45.9945033" lon="12.7392948"><ele>41.0</ele><time>2026-03-28T15:15:00.936Z</time></trkpt><trkpt lat="45.9944919" lon="12.7394375"><ele>41.0</ele><time>2026-03-28T15:15:01.936Z</time></trkpt><trkpt lat="45.9944819" lon="12.7395724"><ele>41.0</ele><time>2026-03-28T15:15:02.937Z</time></trkpt><trkpt lat="45.9944623" lon="12.7397147"><ele>41.0</ele><time>2026-03-28T15:15:03.937Z</time></trkpt><trkpt lat="45.9944505" lon="12.7398709"><ele>41.0</ele><time>2026-03-28T15:15:04.936Z</time></trkpt><trkpt lat="45.9944387" lon="12.7400327"><ele>41.0</ele><time>2026-03-28T15:15:05.936Z</time></trkpt><trkpt lat="45.9944264" lon="12.7402056"><ele>41.0</ele><time>2026-03-28T15:15:06.936Z</time></trkpt><trkpt lat="45.9944046" lon="12.7403767"><ele>41.0</ele><time>2026-03-28T15:15:07.936Z</time></trkpt><trkpt lat="45.9943933" lon="12.7405356"><ele>41.0</ele><time>2026-03-28T15:15:08.936Z</time></trkpt><trkpt lat="45.9943795" lon="12.7406862"><ele>41.0</ele><time>2026-03-28T15:15:09.936Z</time></trkpt><trkpt lat="45.9943663" lon="12.7408149"><ele>41.0</ele><time>2026-03-28T15:15:10.936Z</time></trkpt><trkpt lat="45.9943467" lon="12.7409555"><ele>41.0</ele><time>2026-03-28T15:15:11.937Z</time></trkpt><trkpt lat="45.994329" lon="12.7410869"><ele>41.199999999999996</ele><time>2026-03-28T15:15:12.936Z</time></trkpt><trkpt lat="45.9943167" lon="12.7412262"><ele>41.4</ele><time>2026-03-28T15:15:13.936Z</time></trkpt><trkpt lat="45.9943025" lon="12.7413854"><ele>41.6</ele><time>2026-03-28T15:15:14.937Z</time></trkpt><trkpt lat="45.9942859" lon="12.7415515"><ele>41.8</ele><time>2026-03-28T15:15:15.936Z</time></trkpt><trkpt lat="45.994269" lon="12.7417206"><ele>42.0</ele><time>2026-03-28T15:15:16.937Z</time></trkpt><trkpt lat="45.9942544" lon="12.7418927"><ele>42.25</ele><time>2026-03-28T15:15:17.937Z</time></trkpt><trkpt lat="45.9942426" lon="12.7420674"><ele>42.5</ele><time>2026-03-28T15:15:18.936Z</time></trkpt><trkpt lat="45.9942292" lon="12.742245"><ele>42.75</ele><time>2026-03-28T15:15:19.936Z</time></trkpt><trkpt lat="45.9942165" lon="12.742414"><ele>43.0</ele><time>2026-03-28T15:15:20.936Z</time></trkpt><trkpt lat="45.9942053" lon="12.742587"><ele>43.0</ele><time>2026-03-28T15:15:21.936Z</time></trkpt><trkpt lat="45.9941962" lon="12.7427542"><ele>43.0</ele><time>2026-03-28T15:15:22.936Z</time></trkpt><trkpt lat="45.9941777" lon="12.7429262"><ele>43.0</ele><time>2026-03-28T15:15:23.937Z</time></trkpt><trkpt lat="45.9941642" lon="12.7431001"><ele>43.0</ele><time>2026-03-28T15:15:24.936Z</time></trkpt><trkpt lat="45.9941449" lon="12.7432652"><ele>43.25</ele><time>2026-03-28T15:15:25.937Z</time></trkpt><trkpt lat="45.9941438" lon="12.7434345"><ele>43.5</ele><time>2026-03-28T15:15:26.937Z</time></trkpt><trkpt lat="45.9941348" lon="12.7436116"><ele>43.75</ele><time>2026-03-28T15:15:27.936Z</time></trkpt><trkpt lat="45.9941261" lon="12.7437799"><ele>44.0</ele><time>2026-03-28T15:15:28.936Z</time></trkpt><trkpt lat="45.9941258" lon="12.7439341"><ele>43.6</ele><time>2026-03-28T15:15:29.937Z</time></trkpt><trkpt lat="45.9941196" lon="12.7440827"><ele>43.2</ele><time>2026-03-28T15:15:30.936Z</time></trkpt><trkpt lat="45.994115" lon="12.7442397"><ele>42.800000000000004</ele><time>2026-03-28T15:15:31.937Z</time></trkpt><trkpt lat="45.9941235" lon="12.7443718"><ele>42.400000000000006</ele><time>2026-03-28T15:15:32.936Z</time></trkpt><trkpt lat="45.9941336" lon="12.7444857"><ele>42.0</ele><time>2026-03-28T15:15:33.937Z</time></trkpt><trkpt lat="45.994135" lon="12.7446344"><ele>42.0</ele><time>2026-03-28T15:15:34.936Z</time></trkpt><trkpt lat="45.9941423" lon="12.7447331"><ele>42.0</ele><time>2026-03-28T15:15:35.936Z</time></trkpt><trkpt lat="45.9941485" lon="12.7448309"><ele>42.0</ele><time>2026-03-28T15:15:36.936Z</time></trkpt><trkpt lat="45.9941619" lon="12.7449713"><ele>42.0</ele><time>2026-03-28T15:15:38.937Z</time></trkpt><trkpt lat="45.9941592" lon="12.745077"><ele>42.0</ele><time>2026-03-28T15:15:39.937Z</time></trkpt><trkpt lat="45.99411" lon="12.7451906"><ele>42.0</ele><time>2026-03-28T15:15:41.936Z</time></trkpt><trkpt lat="45.9939967" lon="12.7452472"><ele>42.0</ele><time>2026-03-28T15:15:43.937Z</time></trkpt><trkpt lat="45.9938805" lon="12.7453139"><ele>42.0</ele><time>2026-03-28T15:15:45.937Z</time></trkpt><trkpt lat="45.9937343" lon="12.7453315"><ele>42.0</ele><time>2026-03-28T15:15:46.936Z</time></trkpt><trkpt lat="45.993621" lon="12.7453417"><ele>42.0</ele><time>2026-03-28T15:15:47.936Z</time></trkpt><trkpt lat="45.993487" lon="12.7453672"><ele>42.0</ele><time>2026-03-28T15:15:48.937Z</time></trkpt><trkpt lat="45.9933554" lon="12.7454149"><ele>42.0</ele><time>2026-03-28T15:15:49.936Z</time></trkpt><trkpt lat="45.9932282" lon="12.7454497"><ele>42.0</ele><time>2026-03-28T15:15:50.937Z</time></trkpt><trkpt lat="45.9931119" lon="12.74548"><ele>42.0</ele><time>2026-03-28T15:15:51.937Z</time></trkpt><trkpt lat="45.9929884" lon="12.7455132"><ele>41.25</ele><time>2026-03-28T15:15:52.936Z</time></trkpt><trkpt lat="45.9928631" lon="12.7455468"><ele>40.5</ele><time>2026-03-28T15:15:53.937Z</time></trkpt><trkpt lat="45.9927393" lon="12.7455613"><ele>39.75</ele><time>2026-03-28T15:15:54.937Z</time></trkpt><trkpt lat="45.9926115" lon="12.7455993"><ele>39.0</ele><time>2026-03-28T15:15:55.937Z</time></trkpt><trkpt lat="45.992485" lon="12.7456326"><ele>39.0</ele><time>2026-03-28T15:15:56.936Z</time></trkpt><trkpt lat="45.9923619" lon="12.7456592"><ele>39.0</ele><time>2026-03-28T15:15:57.936Z</time></trkpt><trkpt lat="45.9922414" lon="12.7456942"><ele>39.0</ele><time>2026-03-28T15:15:58.936Z</time></trkpt><trkpt lat="45.9921177" lon="12.7457337"><ele>39.0</ele><time>2026-03-28T15:15:59.936Z</time></trkpt><trkpt lat="45.9919927" lon="12.7457694"><ele>39.0</ele><time>2026-03-28T15:16:00.936Z</time></trkpt><trkpt lat="45.9918704" lon="12.7457957"><ele>39.0</ele><time>2026-03-28T15:16:01.936Z</time></trkpt><trkpt lat="45.99175" lon="12.7458276"><ele>39.0</ele><time>2026-03-28T15:16:02.937Z</time></trkpt><trkpt lat="45.991629" lon="12.7458662"><ele>39.0</ele><time>2026-03-28T15:16:03.936Z</time></trkpt><trkpt lat="45.9915084" lon="12.7458968"><ele>39.25</ele><time>2026-03-28T15:16:04.936Z</time></trkpt><trkpt lat="45.9913876" lon="12.7459312"><ele>39.5</ele><time>2026-03-28T15:16:05.936Z</time></trkpt><trkpt lat="45.9912663" lon="12.7459682"><ele>39.75</ele><time>2026-03-28T15:16:06.936Z</time></trkpt><trkpt lat="45.9911428" lon="12.7459948"><ele>40.0</ele><time>2026-03-28T15:16:07.937Z</time></trkpt><trkpt lat="45.9910185" lon="12.7460273"><ele>40.25</ele><time>2026-03-28T15:16:08.937Z</time></trkpt><trkpt lat="45.9908931" lon="12.7460516"><ele>40.5</ele><time>2026-03-28T15:16:09.937Z</time></trkpt><trkpt lat="45.9907699" lon="12.7460902"><ele>40.75</ele><time>2026-03-28T15:16:10.936Z</time></trkpt><trkpt lat="45.9906447" lon="12.7461092"><ele>41.0</ele><time>2026-03-28T15:16:11.936Z</time></trkpt><trkpt lat="45.9905213" lon="12.7461409"><ele>41.0</ele><time>2026-03-28T15:16:12.936Z</time></trkpt><trkpt lat="45.990401" lon="12.7461795"><ele>41.0</ele><time>2026-03-28T15:16:13.937Z</time></trkpt><trkpt lat="45.9902755" lon="12.7462175"><ele>41.0</ele><time>2026-03-28T15:16:14.937Z</time></trkpt><trkpt lat="45.9901479" lon="12.7462498"><ele>41.0</ele><time>2026-03-28T15:16:15.936Z</time></trkpt><trkpt lat="45.9900248" lon="12.7462716"><ele>40.75</ele><time>2026-03-28T15:16:16.936Z</time></trkpt><trkpt lat="45.9899024" lon="12.7462989"><ele>40.5</ele><time>2026-03-28T15:16:17.937Z</time></trkpt><trkpt lat="45.9897876" lon="12.7463235"><ele>40.25</ele><time>2026-03-28T15:16:18.936Z</time></trkpt><trkpt lat="45.9896711" lon="12.7463533"><ele>40.0</ele><time>2026-03-28T15:16:19.936Z</time></trkpt><trkpt lat="45.9895571" lon="12.7463787"><ele>40.0</ele><time>2026-03-28T15:16:20.936Z</time></trkpt><trkpt lat="45.9894415" lon="12.7464044"><ele>40.0</ele><time>2026-03-28T15:16:21.937Z</time></trkpt><trkpt lat="45.9893265" lon="12.7464302"><ele>40.0</ele><time>2026-03-28T15:16:22.936Z</time></trkpt><trkpt lat="45.9892224" lon="12.7464599"><ele>40.0</ele><time>2026-03-28T15:16:23.937Z</time></trkpt><trkpt lat="45.9891167" lon="12.7464843"><ele>40.0</ele><time>2026-03-28T15:16:24.936Z</time></trkpt><trkpt lat="45.9890102" lon="12.7465125"><ele>39.2</ele><time>2026-03-28T15:16:25.935Z</time></trkpt><trkpt lat="45.9888988" lon="12.746541"><ele>38.4</ele><time>2026-03-28T15:16:26.937Z</time></trkpt><trkpt lat="45.9887928" lon="12.7465678"><ele>37.6</ele><time>2026-03-28T15:16:27.936Z</time></trkpt><trkpt lat="45.9886891" lon="12.7465936"><ele>36.8</ele><time>2026-03-28T15:16:28.937Z</time></trkpt><trkpt lat="45.988597" lon="12.7466156"><ele>36.0</ele><time>2026-03-28T15:16:29.937Z</time></trkpt><trkpt lat="45.9885179" lon="12.746645"><ele>36.0</ele><time>2026-03-28T15:16:30.936Z</time></trkpt><trkpt lat="45.988444" lon="12.7466652"><ele>36.0</ele><time>2026-03-28T15:16:31.937Z</time></trkpt><trkpt lat="45.98837" lon="12.7466846"><ele>36.0</ele><time>2026-03-28T15:16:32.936Z</time></trkpt><trkpt lat="45.9883034" lon="12.7467079"><ele>36.0</ele><time>2026-03-28T15:16:33.937Z</time></trkpt><trkpt lat="45.9882312" lon="12.7467338"><ele>36.0</ele><time>2026-03-28T15:16:34.937Z</time></trkpt><trkpt lat="45.9881431" lon="12.7467544"><ele>36.0</ele><time>2026-03-28T15:16:35.937Z</time></trkpt><trkpt lat="45.9880642" lon="12.746746"><ele>36.0</ele><time>2026-03-28T15:16:36.936Z</time></trkpt><trkpt lat="45.9879545" lon="12.7467945"><ele>36.0</ele><time>2026-03-28T15:16:37.937Z</time></trkpt><trkpt lat="45.9878482" lon="12.7468314"><ele>36.0</ele><time>2026-03-28T15:16:38.936Z</time></trkpt><trkpt lat="45.9877416" lon="12.7468662"><ele>36.0</ele><time>2026-03-28T15:16:39.936Z</time></trkpt><trkpt lat="45.9876356" lon="12.7469109"><ele>36.0</ele><time>2026-03-28T15:16:40.937Z</time></trkpt><trkpt lat="45.9875206" lon="12.7469394"><ele>36.0</ele><time>2026-03-28T15:16:41.937Z</time></trkpt><trkpt lat="45.9874058" lon="12.7469653"><ele>36.0</ele><time>2026-03-28T15:16:42.936Z</time></trkpt><trkpt lat="45.9872947" lon="12.7469746"><ele>36.0</ele><time>2026-03-28T15:16:43.936Z</time></trkpt><trkpt lat="45.9871823" lon="12.7470008"><ele>36.0</ele><time>2026-03-28T15:16:44.936Z</time></trkpt><trkpt lat="45.987071" lon="12.7470294"><ele>36.0</ele><time>2026-03-28T15:16:45.937Z</time></trkpt><trkpt lat="45.9869598" lon="12.7470583"><ele>36.0</ele><time>2026-03-28T15:16:46.936Z</time></trkpt><trkpt lat="45.98685" lon="12.7470898"><ele>36.0</ele><time>2026-03-28T15:16:47.937Z</time></trkpt><trkpt lat="45.986743" lon="12.7471291"><ele>36.0</ele><time>2026-03-28T15:16:48.936Z</time></trkpt><trkpt lat="45.9866451" lon="12.7471821"><ele>36.0</ele><time>2026-03-28T15:16:49.936Z</time></trkpt><trkpt lat="45.9865431" lon="12.7472784"><ele>36.2</ele><time>2026-03-28T15:16:50.936Z</time></trkpt><trkpt lat="45.9864564" lon="12.7473623"><ele>36.400000000000006</ele><time>2026-03-28T15:16:51.937Z</time></trkpt><trkpt lat="45.986368" lon="12.7474504"><ele>36.6</ele><time>2026-03-28T15:16:52.936Z</time></trkpt><trkpt lat="45.9862735" lon="12.7475587"><ele>36.800000000000004</ele><time>2026-03-28T15:16:53.935Z</time></trkpt><trkpt lat="45.9861922" lon="12.7476569"><ele>37.0</ele><time>2026-03-28T15:16:54.936Z</time></trkpt><trkpt lat="45.9860942" lon="12.7477599"><ele>37.0</ele><time>2026-03-28T15:16:55.936Z</time></trkpt><trkpt lat="45.9859966" lon="12.747897"><ele>37.0</ele><time>2026-03-28T15:16:56.937Z</time></trkpt><trkpt lat="45.985897" lon="12.7479849"><ele>37.0</ele><time>2026-03-28T15:16:57.937Z</time></trkpt><trkpt lat="45.9858002" lon="12.7480578"><ele>37.0</ele><time>2026-03-28T15:16:58.936Z</time></trkpt><trkpt lat="45.9857015" lon="12.7481521"><ele>36.25</ele><time>2026-03-28T15:16:59.937Z</time></trkpt><trkpt lat="45.9855999" lon="12.7482205"><ele>35.5</ele><time>2026-03-28T15:17:00.936Z</time></trkpt><trkpt lat="45.9854915" lon="12.7482887"><ele>34.75</ele><time>2026-03-28T15:17:01.936Z</time></trkpt><trkpt lat="45.9853805" lon="12.7483277"><ele>34.0</ele><time>2026-03-28T15:17:02.936Z</time></trkpt><trkpt lat="45.9852646" lon="12.7483791"><ele>34.0</ele><time>2026-03-28T15:17:03.936Z</time></trkpt><trkpt lat="45.9851506" lon="12.7484444"><ele>34.0</ele><time>2026-03-28T15:17:04.936Z</time></trkpt><trkpt lat="45.9850389" lon="12.7484919"><ele>34.0</ele><time>2026-03-28T15:17:05.937Z</time></trkpt><trkpt lat="45.9849233" lon="12.7485444"><ele>34.0</ele><time>2026-03-28T15:17:06.937Z</time></trkpt><trkpt lat="45.9848146" lon="12.748591"><ele>33.75</ele><time>2026-03-28T15:17:07.936Z</time></trkpt><trkpt lat="45.9847083" lon="12.7486319"><ele>33.5</ele><time>2026-03-28T15:17:08.936Z</time></trkpt><trkpt lat="45.9845975" lon="12.7486659"><ele>33.25</ele><time>2026-03-28T15:17:09.937Z</time></trkpt><trkpt lat="45.9844845" lon="12.7487023"><ele>33.0</ele><time>2026-03-28T15:17:10.937Z</time></trkpt><trkpt lat="45.9843739" lon="12.7487057"><ele>33.0</ele><time>2026-03-28T15:17:11.937Z</time></trkpt><trkpt lat="45.9842581" lon="12.7487055"><ele>33.0</ele><time>2026-03-28T15:17:12.936Z</time></trkpt><trkpt lat="45.9841482" lon="12.7487117"><ele>33.0</ele><time>2026-03-28T15:17:13.936Z</time></trkpt><trkpt lat="45.9840394" lon="12.7487013"><ele>33.0</ele><time>2026-03-28T15:17:14.936Z</time></trkpt><trkpt lat="45.9839285" lon="12.7486823"><ele>33.0</ele><time>2026-03-28T15:17:15.937Z</time></trkpt><trkpt lat="45.9838237" lon="12.7486669"><ele>33.199999999999996</ele><time>2026-03-28T15:17:16.936Z</time></trkpt><trkpt lat="45.9837096" lon="12.7486609"><ele>33.4</ele><time>2026-03-28T15:17:17.937Z</time></trkpt><trkpt lat="45.9836048" lon="12.7486837"><ele>33.599999999999994</ele><time>2026-03-28T15:17:18.935Z</time></trkpt><trkpt lat="45.9834971" lon="12.7486879"><ele>33.8</ele><time>2026-03-28T15:17:19.937Z</time></trkpt><trkpt lat="45.9833881" lon="12.7486905"><ele>34.0</ele><time>2026-03-28T15:17:20.936Z</time></trkpt><trkpt lat="45.9832814" lon="12.7486861"><ele>34.2</ele><time>2026-03-28T15:17:21.937Z</time></trkpt><trkpt lat="45.9831847" lon="12.7486798"><ele>34.4</ele><time>2026-03-28T15:17:22.937Z</time></trkpt><trkpt lat="45.9830841" lon="12.7486671"><ele>34.6</ele><time>2026-03-28T15:17:23.936Z</time></trkpt><trkpt lat="45.9829907" lon="12.7486477"><ele>34.8</ele><time>2026-03-28T15:17:24.936Z</time></trkpt><trkpt lat="45.9829003" lon="12.7486156"><ele>35.0</ele><time>2026-03-28T15:17:25.936Z</time></trkpt><trkpt lat="45.9828222" lon="12.7485733"><ele>35.0</ele><time>2026-03-28T15:17:26.937Z</time></trkpt><trkpt lat="45.9827511" lon="12.7485484"><ele>35.0</ele><time>2026-03-28T15:17:27.936Z</time></trkpt><trkpt lat="45.9826314" lon="12.748515"><ele>35.0</ele><time>2026-03-28T15:17:29.936Z</time></trkpt><trkpt lat="45.9825435" lon="12.7485776"><ele>35.0</ele><time>2026-03-28T15:17:31.937Z</time></trkpt><trkpt lat="45.9824516" lon="12.7486292"><ele>35.0</ele><time>2026-03-28T15:17:33.937Z</time></trkpt><trkpt lat="45.9823882" lon="12.7485064"><ele>34.6</ele><time>2026-03-28T15:17:35.937Z</time></trkpt><trkpt lat="45.9823389" lon="12.7483352"><ele>34.2</ele><time>2026-03-28T15:17:37.936Z</time></trkpt><trkpt lat="45.9823246" lon="12.7482257"><ele>33.8</ele><time>2026-03-28T15:17:38.936Z</time></trkpt><trkpt lat="45.9822649" lon="12.7480985"><ele>33.4</ele><time>2026-03-28T15:17:39.936Z</time></trkpt><trkpt lat="45.98221" lon="12.7479797"><ele>33.0</ele><time>2026-03-28T15:17:40.936Z</time></trkpt><trkpt lat="45.9821624" lon="12.7478489"><ele>32.8</ele><time>2026-03-28T15:17:41.937Z</time></trkpt><trkpt lat="45.9821177" lon="12.7477091"><ele>32.599999999999994</ele><time>2026-03-28T15:17:42.937Z</time></trkpt><trkpt lat="45.9820611" lon="12.7475791"><ele>32.400000000000006</ele><time>2026-03-28T15:17:43.936Z</time></trkpt><trkpt lat="45.9820158" lon="12.7474451"><ele>32.2</ele><time>2026-03-28T15:17:44.936Z</time></trkpt><trkpt lat="45.9819648" lon="12.7473277"><ele>32.0</ele><time>2026-03-28T15:17:45.936Z</time></trkpt><trkpt lat="45.9819104" lon="12.7472006"><ele>32.0</ele><time>2026-03-28T15:17:46.936Z</time></trkpt><trkpt lat="45.9818579" lon="12.7470662"><ele>32.0</ele><time>2026-03-28T15:17:47.937Z</time></trkpt><trkpt lat="45.9818114" lon="12.7469271"><ele>32.0</ele><time>2026-03-28T15:17:48.936Z</time></trkpt><trkpt lat="45.9817609" lon="12.7468034"><ele>32.0</ele><time>2026-03-28T15:17:49.936Z</time></trkpt><trkpt lat="45.9817045" lon="12.7466868"><ele>32.0</ele><time>2026-03-28T15:17:50.936Z</time></trkpt><trkpt lat="45.9816529" lon="12.7465587"><ele>31.8</ele><time>2026-03-28T15:17:51.936Z</time></trkpt><trkpt lat="45.9816016" lon="12.7464351"><ele>31.6</ele><time>2026-03-28T15:17:52.937Z</time></trkpt><trkpt lat="45.9815516" lon="12.7463048"><ele>31.400000000000002</ele><time>2026-03-28T15:17:53.936Z</time></trkpt><trkpt lat="45.9815047" lon="12.7461762"><ele>31.200000000000003</ele><time>2026-03-28T15:17:54.936Z</time></trkpt><trkpt lat="45.9814557" lon="12.7460437"><ele>31.0</ele><time>2026-03-28T15:17:55.937Z</time></trkpt><trkpt lat="45.98141" lon="12.74593"><ele>31.4</ele><time>2026-03-28T15:17:56.936Z</time></trkpt><trkpt lat="45.9813585" lon="12.7458078"><ele>31.8</ele><time>2026-03-28T15:17:57.936Z</time></trkpt><trkpt lat="45.9813186" lon="12.7456782"><ele>32.199999999999996</ele><time>2026-03-28T15:17:58.936Z</time></trkpt><trkpt lat="45.9812816" lon="12.7455571"><ele>32.6</ele><time>2026-03-28T15:17:59.937Z</time></trkpt><trkpt lat="45.9812545" lon="12.7454318"><ele>33.0</ele><time>2026-03-28T15:18:00.936Z</time></trkpt><trkpt lat="45.9811972" lon="12.7453082"><ele>32.8</ele><time>2026-03-28T15:18:01.936Z</time></trkpt><trkpt lat="45.9811543" lon="12.7452088"><ele>32.599999999999994</ele><time>2026-03-28T15:18:02.937Z</time></trkpt><trkpt lat="45.9810912" lon="12.7451207"><ele>32.400000000000006</ele><time>2026-03-28T15:18:03.936Z</time></trkpt><trkpt lat="45.9810143" lon="12.7450385"><ele>32.2</ele><time>2026-03-28T15:18:04.936Z</time></trkpt><trkpt lat="45.9809352" lon="12.7449832"><ele>32.0</ele><time>2026-03-28T15:18:05.936Z</time></trkpt><trkpt lat="45.9808381" lon="12.7449045"><ele>31.8</ele><time>2026-03-28T15:18:07.937Z</time></trkpt><trkpt lat="45.9807614" lon="12.7448431"><ele>31.6</ele><time>2026-03-28T15:18:09.936Z</time></trkpt><trkpt lat="45.9807068" lon="12.7448967"><ele>31.400000000000002</ele><time>2026-03-28T15:18:11.937Z</time></trkpt><trkpt lat="45.9806786" lon="12.7449939"><ele>31.200000000000003</ele><time>2026-03-28T15:18:13.936Z</time></trkpt><trkpt lat="45.9806747" lon="12.7451955"><ele>31.0</ele><time>2026-03-28T15:18:15.936Z</time></trkpt><trkpt lat="45.9806965" lon="12.7453681"><ele>31.000000000000004</ele><time>2026-03-28T15:18:17.937Z</time></trkpt><trkpt lat="45.98068" lon="12.7454631"><ele>31.0</ele><time>2026-03-28T15:18:18.937Z</time></trkpt><trkpt lat="45.9806131" lon="12.7456235"><ele>31.0</ele><time>2026-03-28T15:18:20.936Z</time></trkpt><trkpt lat="45.9805573" lon="12.7456982"><ele>31.0</ele><time>2026-03-28T15:18:21.937Z</time></trkpt><trkpt lat="45.9805175" lon="12.7457845"><ele>31.000000000000004</ele><time>2026-03-28T15:18:22.936Z</time></trkpt><trkpt lat="45.9804723" lon="12.7458815"><ele>31.0</ele><time>2026-03-28T15:18:23.936Z</time></trkpt><trkpt lat="45.9804134" lon="12.7459762"><ele>31.166666666666668</ele><time>2026-03-28T15:18:24.936Z</time></trkpt><trkpt lat="45.9803538" lon="12.7460516"><ele>31.333333333333336</ele><time>2026-03-28T15:18:25.937Z</time></trkpt><trkpt lat="45.980291" lon="12.7461414"><ele>31.5</ele><time>2026-03-28T15:18:26.936Z</time></trkpt><trkpt lat="45.9802366" lon="12.7462223"><ele>31.666666666666664</ele><time>2026-03-28T15:18:27.937Z</time></trkpt><trkpt lat="45.9801856" lon="12.7463104"><ele>31.833333333333332</ele><time>2026-03-28T15:18:28.937Z</time></trkpt><trkpt lat="45.9801393" lon="12.7463809"><ele>32.0</ele><time>2026-03-28T15:18:29.936Z</time></trkpt><trkpt lat="45.9800902" lon="12.7464589"><ele>31.999999999999996</ele><time>2026-03-28T15:18:30.937Z</time></trkpt><trkpt lat="45.9800391" lon="12.7465459"><ele>32.0</ele><time>2026-03-28T15:18:31.937Z</time></trkpt><trkpt lat="45.9799999" lon="12.7466183"><ele>32.0</ele><time>2026-03-28T15:18:32.936Z</time></trkpt><trkpt lat="45.9799734" lon="12.7467005"><ele>32.0</ele><time>2026-03-28T15:18:33.937Z</time></trkpt><trkpt lat="45.9799485" lon="12.7468683"><ele>31.999999999999996</ele><time>2026-03-28T15:18:35.937Z</time></trkpt><trkpt lat="45.9799492" lon="12.7469736"><ele>32.0</ele><time>2026-03-28T15:18:36.937Z</time></trkpt><trkpt lat="45.9799624" lon="12.7470642"><ele>31.999999999999996</ele><time>2026-03-28T15:18:37.937Z</time></trkpt><trkpt lat="45.979983" lon="12.7471622"><ele>32.0</ele><time>2026-03-28T15:18:38.937Z</time></trkpt><trkpt lat="45.9800195" lon="12.7472474"><ele>32.0</ele><time>2026-03-28T15:18:39.937Z</time></trkpt><trkpt lat="45.9800592" lon="12.7474085"><ele>32.0</ele><time>2026-03-28T15:18:41.936Z</time></trkpt><trkpt lat="45.9800962" lon="12.7474878"><ele>31.999999999999996</ele><time>2026-03-28T15:18:42.936Z</time></trkpt><trkpt lat="45.980088" lon="12.7475929"><ele>32.0</ele><time>2026-03-28T15:18:44.936Z</time></trkpt><trkpt lat="45.9800738" lon="12.7476929"><ele>32.2</ele><time>2026-03-28T15:18:46.936Z</time></trkpt><trkpt lat="45.9799925" lon="12.7478102"><ele>32.400000000000006</ele><time>2026-03-28T15:18:48.936Z</time></trkpt><trkpt lat="45.9798883" lon="12.7478936"><ele>32.599999999999994</ele><time>2026-03-28T15:18:50.937Z</time></trkpt><trkpt lat="45.9798204" lon="12.7479075"><ele>32.8</ele><time>2026-03-28T15:18:51.936Z</time></trkpt><trkpt lat="45.9797575" lon="12.7479259"><ele>33.0</ele><time>2026-03-28T15:18:52.936Z</time></trkpt><trkpt lat="45.9796596" lon="12.7479429"><ele>33.0</ele><time>2026-03-28T15:18:54.936Z</time></trkpt><trkpt lat="45.9795498" lon="12.7479627"><ele>33.0</ele><time>2026-03-28T15:18:56.936Z</time></trkpt><trkpt lat="45.9794784" lon="12.7479534"><ele>33.0</ele><time>2026-03-28T15:18:58.937Z</time></trkpt><trkpt lat="45.9794406" lon="12.7478638"><ele>33.0</ele><time>2026-03-28T15:19:01.937Z</time></trkpt><trkpt lat="45.979427" lon="12.7477729"><ele>33.0</ele><time>2026-03-28T15:39:09.934Z</time></trkpt><trkpt lat="45.9794401" lon="12.7476625"><ele>33.0</ele><time>2026-03-28T15:39:11.934Z</time></trkpt><trkpt lat="45.9794177" lon="12.7475516"><ele>32.833333333333336</ele><time>2026-03-28T15:39:13.934Z</time></trkpt><trkpt lat="45.9793541" lon="12.7474536"><ele>32.666666666666664</ele><time>2026-03-28T15:39:15.935Z</time></trkpt><trkpt lat="45.9793262" lon="12.7473114"><ele>32.5</ele><time>2026-03-28T15:39:17.934Z</time></trkpt><trkpt lat="45.979349" lon="12.7471532"><ele>32.33333333333333</ele><time>2026-03-28T15:39:19.934Z</time></trkpt><trkpt lat="45.9793489" lon="12.7470592"><ele>32.166666666666664</ele><time>2026-03-28T15:39:20.935Z</time></trkpt><trkpt lat="45.9793584" lon="12.7469648"><ele>32.0</ele><time>2026-03-28T15:39:21.935Z</time></trkpt><trkpt lat="45.9793716" lon="12.7468694"><ele>31.666666666666664</ele><time>2026-03-28T15:39:22.934Z</time></trkpt><trkpt lat="45.9794043" lon="12.7467132"><ele>31.333333333333332</ele><time>2026-03-28T15:39:24.934Z</time></trkpt><trkpt lat="45.9794011" lon="12.7466111"><ele>31.0</ele><time>2026-03-28T15:39:25.934Z</time></trkpt><trkpt lat="45.9793987" lon="12.7465136"><ele>30.666666666666664</ele><time>2026-03-28T15:39:26.934Z</time></trkpt><trkpt lat="45.9793956" lon="12.7463994"><ele>30.333333333333332</ele><time>2026-03-28T15:39:27.934Z</time></trkpt><trkpt lat="45.9793991" lon="12.7462896"><ele>30.0</ele><time>2026-03-28T15:39:28.934Z</time></trkpt><trkpt lat="45.9793806" lon="12.7461499"><ele>29.8</ele><time>2026-03-28T15:39:29.934Z</time></trkpt><trkpt lat="45.9793676" lon="12.7460032"><ele>29.6</ele><time>2026-03-28T15:39:30.934Z</time></trkpt><trkpt lat="45.9793679" lon="12.7458346"><ele>29.4</ele><time>2026-03-28T15:39:31.935Z</time></trkpt><trkpt lat="45.9793715" lon="12.7456805"><ele>29.2</ele><time>2026-03-28T15:39:32.934Z</time></trkpt><trkpt lat="45.9793718" lon="12.7455409"><ele>29.0</ele><time>2026-03-28T15:39:33.935Z</time></trkpt><trkpt lat="45.9793643" lon="12.7454274"><ele>29.000000000000004</ele><time>2026-03-28T15:39:34.934Z</time></trkpt><trkpt lat="45.9793451" lon="12.7453348"><ele>29.0</ele><time>2026-03-28T15:39:35.934Z</time></trkpt><trkpt lat="45.9793262" lon="12.7452357"><ele>29.000000000000004</ele><time>2026-03-28T15:39:36.934Z</time></trkpt><trkpt lat="45.9793101" lon="12.7451471"><ele>29.000000000000004</ele><time>2026-03-28T15:39:37.933Z</time></trkpt><trkpt lat="45.9792517" lon="12.7450497"><ele>29.0</ele><time>2026-03-28T15:39:39.933Z</time></trkpt><trkpt lat="45.9791847" lon="12.745103"><ele>29.000000000000004</ele><time>2026-03-28T15:39:41.934Z</time></trkpt><trkpt lat="45.9791531" lon="12.7452077"><ele>29.000000000000004</ele><time>2026-03-28T15:39:43.934Z</time></trkpt><trkpt lat="45.9791601" lon="12.7453307"><ele>28.999999999999996</ele><time>2026-03-28T15:39:44.934Z</time></trkpt><trkpt lat="45.9791731" lon="12.745433"><ele>29.0</ele><time>2026-03-28T15:39:45.934Z</time></trkpt><trkpt lat="45.9791831" lon="12.7455626"><ele>29.0</ele><time>2026-03-28T15:39:47.934Z</time></trkpt><trkpt lat="45.9791069" lon="12.7456494"><ele>29.0</ele><time>2026-03-28T15:39:50.934Z</time></trkpt><trkpt lat="45.9790257" lon="12.745696"><ele>28.999999999999996</ele><time>2026-03-28T15:39:52.935Z</time></trkpt><trkpt lat="45.9789831" lon="12.7457954"><ele>29.0</ele><time>2026-03-28T15:39:54.934Z</time></trkpt><trkpt lat="45.978947" lon="12.7459471"><ele>29.0</ele><time>2026-03-28T15:39:56.934Z</time></trkpt><trkpt lat="45.9788875" lon="12.7460758"><ele>29.0</ele><time>2026-03-28T15:39:58.934Z</time></trkpt><trkpt lat="45.9788198" lon="12.7461157"><ele>29.0</ele><time>2026-03-28T15:40:00.934Z</time></trkpt><trkpt lat="45.978845" lon="12.7459514"><ele>29.0</ele><time>2026-03-28T15:40:02.934Z</time></trkpt><trkpt lat="45.9788595" lon="12.7458157"><ele>29.0</ele><time>2026-03-28T15:40:04.935Z</time></trkpt><trkpt lat="45.9789091" lon="12.7456933"><ele>28.999999999999996</ele><time>2026-03-28T15:40:06.935Z</time></trkpt><trkpt lat="45.9789686" lon="12.7456006"><ele>29.0</ele><time>2026-03-28T15:40:08.934Z</time></trkpt><trkpt lat="45.9790119" lon="12.7454943"><ele>29.0</ele><time>2026-03-28T15:40:10.934Z</time></trkpt><trkpt lat="45.9789963" lon="12.7453844"><ele>29.0</ele><time>2026-03-28T15:40:12.934Z</time></trkpt><trkpt lat="45.978911" lon="12.7453718"><ele>28.999999999999996</ele><time>2026-03-28T15:40:14.934Z</time></trkpt><trkpt lat="45.9788643" lon="12.7454676"><ele>29.0</ele><time>2026-03-28T15:40:16.934Z</time></trkpt><trkpt lat="45.978764" lon="12.7455352"><ele>28.999999999999996</ele><time>2026-03-28T15:40:18.934Z</time></trkpt><trkpt lat="45.9786674" lon="12.7455507"><ele>29.0</ele><time>2026-03-28T15:40:20.935Z</time></trkpt><trkpt lat="45.9785839" lon="12.7455545"><ele>29.0</ele><time>2026-03-28T15:40:22.934Z</time></trkpt><trkpt lat="45.9785207" lon="12.7455429"><ele>29.0</ele><time>2026-03-28T15:40:24.935Z</time></trkpt><trkpt lat="45.9784366" lon="12.7455045"><ele>28.999999999999996</ele><time>2026-03-28T15:40:26.935Z</time></trkpt><trkpt lat="45.9783968" lon="12.7454109"><ele>29.0</ele><time>2026-03-28T15:40:28.934Z</time></trkpt><trkpt lat="45.9785016" lon="12.7453606"><ele>29.0</ele><time>2026-03-28T15:40:31.935Z</time></trkpt><trkpt lat="45.9785961" lon="12.7453461"><ele>29.0</ele><time>2026-03-28T15:40:33.934Z</time></trkpt><trkpt lat="45.9786616" lon="12.7453245"><ele>29.0</ele><time>2026-03-28T15:40:34.935Z</time></trkpt><trkpt lat="45.9787875" lon="12.7452925"><ele>29.0</ele><time>2026-03-28T15:40:36.934Z</time></trkpt><trkpt lat="45.9788633" lon="12.7452765"><ele>29.0</ele><time>2026-03-28T15:40:38.934Z</time></trkpt><trkpt lat="45.9789479" lon="12.7452163"><ele>29.499999999999996</ele><time>2026-03-28T15:40:40.935Z</time></trkpt><trkpt lat="45.9790174" lon="12.7451233"><ele>30.0</ele><time>2026-03-28T15:40:42.935Z</time></trkpt><trkpt lat="45.9790327" lon="12.7449959"><ele>30.5</ele><time>2026-03-28T15:40:44.934Z</time></trkpt><trkpt lat="45.9790207" lon="12.7448707"><ele>31.0</ele><time>2026-03-28T15:40:46.934Z</time></trkpt><trkpt lat="45.9790418" lon="12.7447551"><ele>31.499999999999996</ele><time>2026-03-28T15:40:48.935Z</time></trkpt><trkpt lat="45.9791047" lon="12.7447166"><ele>32.0</ele><time>2026-03-28T15:40:50.934Z</time></trkpt><trkpt lat="45.9791651" lon="12.7447507"><ele>31.999999999999996</ele><time>2026-03-28T15:40:51.934Z</time></trkpt><trkpt lat="45.9792267" lon="12.7447218"><ele>32.0</ele><time>2026-03-28T15:40:53.935Z</time></trkpt><trkpt lat="45.9792777" lon="12.7446391"><ele>32.0</ele><time>2026-03-28T15:40:55.935Z</time></trkpt><trkpt lat="45.9792331" lon="12.7444827"><ele>32.0</ele><time>2026-03-28T15:40:57.935Z</time></trkpt><trkpt lat="45.979131" lon="12.7444462"><ele>31.999999999999996</ele><time>2026-03-28T15:40:59.934Z</time></trkpt><trkpt lat="45.979055" lon="12.7444954"><ele>32.0</ele><time>2026-03-28T15:41:01.935Z</time></trkpt><trkpt lat="45.9789976" lon="12.7445805"><ele>32.0</ele><time>2026-03-28T15:41:03.935Z</time></trkpt><trkpt lat="45.9789435" lon="12.744671"><ele>32.0</ele><time>2026-03-28T15:41:05.934Z</time></trkpt><trkpt lat="45.9788881" lon="12.7447901"><ele>32.0</ele><time>2026-03-28T15:41:07.935Z</time></trkpt><trkpt lat="45.9788761" lon="12.7449087"><ele>32.0</ele><time>2026-03-28T15:41:09.935Z</time></trkpt><trkpt lat="45.9788093" lon="12.7450073"><ele>32.0</ele><time>2026-03-28T15:41:11.934Z</time></trkpt><trkpt lat="45.978732" lon="12.7450775"><ele>32.0</ele><time>2026-03-28T15:41:13.934Z</time></trkpt><trkpt lat="45.9786223" lon="12.7451302"><ele>32.0</ele><time>2026-03-28T15:41:15.935Z</time></trkpt><trkpt lat="45.9785245" lon="12.7451768"><ele>32.0</ele><time>2026-03-28T15:41:17.935Z</time></trkpt><trkpt lat="45.9784223" lon="12.7452346"><ele>32.0</ele><time>2026-03-28T15:41:19.934Z</time></trkpt><trkpt lat="45.9783132" lon="12.7453017"><ele>32.0</ele><time>2026-03-28T15:41:21.934Z</time></trkpt><trkpt lat="45.9782616" lon="12.7454257"><ele>32.2</ele><time>2026-03-28T15:41:23.934Z</time></trkpt><trkpt lat="45.9782397" lon="12.7455824"><ele>32.400000000000006</ele><time>2026-03-28T15:41:25.935Z</time></trkpt><trkpt lat="45.9782199" lon="12.745677"><ele>32.599999999999994</ele><time>2026-03-28T15:41:26.935Z</time></trkpt><trkpt lat="45.9782375" lon="12.7458025"><ele>32.8</ele><time>2026-03-28T15:41:28.934Z</time></trkpt><trkpt lat="45.9782636" lon="12.7459513"><ele>33.0</ele><time>2026-03-28T15:41:30.935Z</time></trkpt><trkpt lat="45.9782616" lon="12.7460924"><ele>32.6</ele><time>2026-03-28T15:41:32.934Z</time></trkpt><trkpt lat="45.9782855" lon="12.7461873"><ele>32.199999999999996</ele><time>2026-03-28T15:41:33.934Z</time></trkpt><trkpt lat="45.9783091" lon="12.7463585"><ele>31.8</ele><time>2026-03-28T15:41:35.934Z</time></trkpt><trkpt lat="45.9783316" lon="12.7464942"><ele>31.4</ele><time>2026-03-28T15:41:37.934Z</time></trkpt><trkpt lat="45.9784085" lon="12.7465844"><ele>31.0</ele><time>2026-03-28T15:41:39.935Z</time></trkpt><trkpt lat="45.9784663" lon="12.7466873"><ele>30.666666666666668</ele><time>2026-03-28T15:41:41.935Z</time></trkpt><trkpt lat="45.9785548" lon="12.7468043"><ele>30.333333333333336</ele><time>2026-03-28T15:41:43.934Z</time></trkpt><trkpt lat="45.9785936" lon="12.7468934"><ele>30.0</ele><time>2026-03-28T15:41:44.935Z</time></trkpt><trkpt lat="45.9786388" lon="12.7469759"><ele>29.666666666666664</ele><time>2026-03-28T15:41:45.935Z</time></trkpt><trkpt lat="45.9786854" lon="12.7470395"><ele>29.333333333333332</ele><time>2026-03-28T15:41:46.934Z</time></trkpt><trkpt lat="45.978742" lon="12.7470879"><ele>29.0</ele><time>2026-03-28T15:41:47.935Z</time></trkpt><trkpt lat="45.9788266" lon="12.747161"><ele>29.0</ele><time>2026-03-28T15:41:49.935Z</time></trkpt><trkpt lat="45.9790583" lon="12.7471749"><ele>29.0</ele><time>2026-03-28T15:41:58.935Z</time></trkpt><trkpt lat="45.9790808" lon="12.7473269"><ele>29.0</ele><time>2026-03-28T15:42:00.935Z</time></trkpt><trkpt lat="45.9791281" lon="12.7474711"><ele>29.6</ele><time>2026-03-28T15:42:02.934Z</time></trkpt><trkpt lat="45.9791928" lon="12.7475772"><ele>30.2</ele><time>2026-03-28T15:42:04.934Z</time></trkpt><trkpt lat="45.9792754" lon="12.7476677"><ele>30.800000000000004</ele><time>2026-03-28T15:42:06.934Z</time></trkpt><trkpt lat="45.9793707" lon="12.7477081"><ele>31.400000000000002</ele><time>2026-03-28T15:42:08.934Z</time></trkpt><trkpt lat="45.9794504" lon="12.7477717"><ele>32.0</ele><time>2026-03-28T15:42:10.935Z</time></trkpt><trkpt lat="45.9795062" lon="12.747894"><ele>31.999999999999996</ele><time>2026-03-28T15:42:13.934Z</time></trkpt><trkpt lat="45.9796213" lon="12.7479393"><ele>32.0</ele><time>2026-03-28T15:42:15.934Z</time></trkpt><trkpt lat="45.9797453" lon="12.7479305"><ele>32.0</ele><time>2026-03-28T15:42:17.934Z</time></trkpt><trkpt lat="45.9798141" lon="12.7479186"><ele>32.0</ele><time>2026-03-28T15:42:18.934Z</time></trkpt><trkpt lat="45.9798858" lon="12.7479163"><ele>31.999999999999996</ele><time>2026-03-28T15:42:19.935Z</time></trkpt><trkpt lat="45.9799478" lon="12.7478895"><ele>32.0</ele><time>2026-03-28T15:42:20.935Z</time></trkpt><trkpt lat="45.9800411" lon="12.7478164"><ele>32.166666666666664</ele><time>2026-03-28T15:42:22.934Z</time></trkpt><trkpt lat="45.9800552" lon="12.7476772"><ele>32.33333333333333</ele><time>2026-03-28T15:42:24.934Z</time></trkpt><trkpt lat="45.9800639" lon="12.7475342"><ele>32.5</ele><time>2026-03-28T15:42:26.934Z</time></trkpt><trkpt lat="45.9800973" lon="12.7474537"><ele>32.666666666666664</ele><time>2026-03-28T15:42:28.934Z</time></trkpt><trkpt lat="45.9801578" lon="12.7474136"><ele>32.833333333333336</ele><time>2026-03-28T15:42:30.935Z</time></trkpt><trkpt lat="45.9802321" lon="12.747392"><ele>33.0</ele><time>2026-03-28T15:42:32.934Z</time></trkpt><trkpt lat="45.9803161" lon="12.7473514"><ele>33.0</ele><time>2026-03-28T15:42:34.934Z</time></trkpt><trkpt lat="45.9804063" lon="12.7472676"><ele>33.0</ele><time>2026-03-28T15:42:36.935Z</time></trkpt><trkpt lat="45.980484" lon="12.7471903"><ele>33.0</ele><time>2026-03-28T15:42:38.935Z</time></trkpt><trkpt lat="45.9805622" lon="12.747208"><ele>33.0</ele><time>2026-03-28T15:42:40.935Z</time></trkpt><trkpt lat="45.9806614" lon="12.7473074"><ele>33.0</ele><time>2026-03-28T15:42:42.934Z</time></trkpt><trkpt lat="45.9807208" lon="12.7473442"><ele>33.0</ele><time>2026-03-28T15:42:43.934Z</time></trkpt><trkpt lat="45.98081" lon="12.747396"><ele>33.0</ele><time>2026-03-28T15:42:45.934Z</time></trkpt><trkpt lat="45.9808829" lon="12.7474017"><ele>33.0</ele><time>2026-03-28T15:42:47.935Z</time></trkpt><trkpt lat="45.9809579" lon="12.7474009"><ele>33.0</ele><time>2026-03-28T15:42:49.934Z</time></trkpt><trkpt lat="45.9810119" lon="12.7474574"><ele>33.0</ele><time>2026-03-28T15:42:51.934Z</time></trkpt><trkpt lat="45.981045" lon="12.7475554"><ele>33.0</ele><time>2026-03-28T15:42:53.934Z</time></trkpt><trkpt lat="45.981012" lon="12.7476669"><ele>33.0</ele><time>2026-03-28T15:42:55.934Z</time></trkpt><trkpt lat="45.980947" lon="12.7477786"><ele>33.0</ele><time>2026-03-28T15:42:57.934Z</time></trkpt><trkpt lat="45.980898" lon="12.747916"><ele>33.0</ele><time>2026-03-28T15:42:59.935Z</time></trkpt><trkpt lat="45.980899" lon="12.7480301"><ele>33.0</ele><time>2026-03-28T15:43:01.935Z</time></trkpt><trkpt lat="45.9809525" lon="12.7481255"><ele>33.0</ele><time>2026-03-28T15:43:03.935Z</time></trkpt><trkpt lat="45.9810437" lon="12.7481034"><ele>33.0</ele><time>2026-03-28T15:43:05.934Z</time></trkpt><trkpt lat="45.9811452" lon="12.748048"><ele>33.0</ele><time>2026-03-28T15:43:07.935Z</time></trkpt><trkpt lat="45.9812249" lon="12.7481001"><ele>33.0</ele><time>2026-03-28T15:43:09.934Z</time></trkpt><trkpt lat="45.9812356" lon="12.7481991"><ele>33.0</ele><time>2026-03-28T15:43:11.935Z</time></trkpt><trkpt lat="45.981211" lon="12.7482927"><ele>33.0</ele><time>2026-03-28T15:43:12.935Z</time></trkpt><trkpt lat="45.9811306" lon="12.7484492"><ele>33.0</ele><time>2026-03-28T15:43:14.933Z</time></trkpt><trkpt lat="45.9810534" lon="12.7485368"><ele>33.0</ele><time>2026-03-28T15:43:16.934Z</time></trkpt><trkpt lat="45.9809888" lon="12.748622"><ele>33.0</ele><time>2026-03-28T15:43:18.935Z</time></trkpt><trkpt lat="45.9809319" lon="12.7487032"><ele>33.0</ele><time>2026-03-28T15:43:21.934Z</time></trkpt><trkpt lat="45.9808626" lon="12.7487748"><ele>33.0</ele><time>2026-03-28T15:43:25.934Z</time></trkpt><trkpt lat="45.9807845" lon="12.74875"><ele>33.0</ele><time>2026-03-28T15:43:29.934Z</time></trkpt><trkpt lat="45.9807198" lon="12.7486974"><ele>32.833333333333336</ele><time>2026-03-28T15:43:32.935Z</time></trkpt><trkpt lat="45.9806412" lon="12.7486511"><ele>32.666666666666664</ele><time>2026-03-28T15:43:34.934Z</time></trkpt><trkpt lat="45.9805222" lon="12.7486077"><ele>32.5</ele><time>2026-03-28T15:43:36.935Z</time></trkpt><trkpt lat="45.9804572" lon="12.748581"><ele>32.33333333333333</ele><time>2026-03-28T15:43:37.935Z</time></trkpt><trkpt lat="45.9803846" lon="12.748534"><ele>32.166666666666664</ele><time>2026-03-28T15:43:38.934Z</time></trkpt><trkpt lat="45.9803155" lon="12.7484915"><ele>32.0</ele><time>2026-03-28T15:43:39.935Z</time></trkpt><trkpt lat="45.9802432" lon="12.7484552"><ele>31.999999999999996</ele><time>2026-03-28T15:43:40.934Z</time></trkpt><trkpt lat="45.9801746" lon="12.7484227"><ele>32.0</ele><time>2026-03-28T15:43:41.935Z</time></trkpt><trkpt lat="45.9801015" lon="12.7483927"><ele>32.0</ele><time>2026-03-28T15:43:42.935Z</time></trkpt><trkpt lat="45.9800318" lon="12.748378"><ele>32.0</ele><time>2026-03-28T15:43:43.935Z</time></trkpt><trkpt lat="45.9799269" lon="12.7484035"><ele>31.999999999999996</ele><time>2026-03-28T15:43:45.935Z</time></trkpt><trkpt lat="45.9798335" lon="12.74839"><ele>32.0</ele><time>2026-03-28T15:43:47.935Z</time></trkpt><trkpt lat="45.979754" lon="12.7483404"><ele>32.166666666666664</ele><time>2026-03-28T15:43:50.934Z</time></trkpt><trkpt lat="45.9796623" lon="12.7482942"><ele>32.33333333333333</ele><time>2026-03-28T15:43:53.935Z</time></trkpt><trkpt lat="45.979588" lon="12.7482453"><ele>32.5</ele><time>2026-03-28T15:43:56.935Z</time></trkpt><trkpt lat="45.9795395" lon="12.7481703"><ele>32.666666666666664</ele><time>2026-03-28T15:44:00.935Z</time></trkpt><trkpt lat="45.9795578" lon="12.7480531"><ele>32.833333333333336</ele><time>2026-03-28T15:44:06.934Z</time></trkpt><trkpt lat="45.9795509" lon="12.7479332"><ele>33.0</ele><time>2026-03-28T15:44:09.934Z</time></trkpt><trkpt lat="45.9794836" lon="12.7479076"><ele>33.0</ele><time>2026-03-28T15:44:11.934Z</time></trkpt><trkpt lat="45.9794338" lon="12.7478157"><ele>33.0</ele><time>2026-03-28T15:45:06.935Z</time></trkpt><trkpt lat="45.9794346" lon="12.7477145"><ele>33.0</ele><time>2026-03-28T15:45:08.935Z</time></trkpt><trkpt lat="45.9794514" lon="12.747619"><ele>33.0</ele><time>2026-03-28T15:45:10.935Z</time></trkpt><trkpt lat="45.9794229" lon="12.7475198"><ele>33.0</ele><time>2026-03-28T15:45:12.934Z</time></trkpt><trkpt lat="45.97936" lon="12.7474401"><ele>33.0</ele><time>2026-03-28T15:45:14.934Z</time></trkpt><trkpt lat="45.9793266" lon="12.7472793"><ele>32.8</ele><time>2026-03-28T15:45:16.935Z</time></trkpt><trkpt lat="45.9793337" lon="12.7471852"><ele>32.599999999999994</ele><time>2026-03-28T15:45:17.935Z</time></trkpt><trkpt lat="45.9793524" lon="12.7470273"><ele>32.400000000000006</ele><time>2026-03-28T15:45:19.935Z</time></trkpt><trkpt lat="45.9793695" lon="12.7468412"><ele>32.2</ele><time>2026-03-28T15:45:21.934Z</time></trkpt><trkpt lat="45.9793843" lon="12.7467517"><ele>32.0</ele><time>2026-03-28T15:45:22.934Z</time></trkpt><trkpt lat="45.9794074" lon="12.7465967"><ele>31.666666666666664</ele><time>2026-03-28T15:45:24.935Z</time></trkpt><trkpt lat="45.9794036" lon="12.7464914"><ele>31.333333333333332</ele><time>2026-03-28T15:45:25.934Z</time></trkpt><trkpt lat="45.9794055" lon="12.7463828"><ele>31.0</ele><time>2026-03-28T15:45:26.935Z</time></trkpt><trkpt lat="45.9793986" lon="12.7462745"><ele>30.666666666666664</ele><time>2026-03-28T15:45:27.934Z</time></trkpt><trkpt lat="45.9793771" lon="12.7461211"><ele>30.333333333333332</ele><time>2026-03-28T15:45:28.934Z</time></trkpt><trkpt lat="45.9793675" lon="12.7459798"><ele>30.0</ele><time>2026-03-28T15:45:29.935Z</time></trkpt><trkpt lat="45.9793626" lon="12.7458462"><ele>29.833333333333332</ele><time>2026-03-28T15:45:30.934Z</time></trkpt><trkpt lat="45.9793637" lon="12.745717"><ele>29.666666666666664</ele><time>2026-03-28T15:45:31.934Z</time></trkpt><trkpt lat="45.9793678" lon="12.7455843"><ele>29.5</ele><time>2026-03-28T15:45:32.934Z</time></trkpt><trkpt lat="45.979365" lon="12.7454671"><ele>29.333333333333332</ele><time>2026-03-28T15:45:33.934Z</time></trkpt><trkpt lat="45.9793519" lon="12.7453665"><ele>29.166666666666664</ele><time>2026-03-28T15:45:34.934Z</time></trkpt><trkpt lat="45.9793303" lon="12.7452643"><ele>29.0</ele><time>2026-03-28T15:45:35.934Z</time></trkpt><trkpt lat="45.9793091" lon="12.7451673"><ele>29.0</ele><time>2026-03-28T15:45:36.934Z</time></trkpt><trkpt lat="45.9792706" lon="12.7450375"><ele>29.0</ele><time>2026-03-28T15:45:38.934Z</time></trkpt><trkpt lat="45.9791969" lon="12.7450437"><ele>29.0</ele><time>2026-03-28T15:45:40.935Z</time></trkpt><trkpt lat="45.9791763" lon="12.7451648"><ele>29.0</ele><time>2026-03-28T15:45:42.934Z</time></trkpt><trkpt lat="45.9791674" lon="12.7453448"><ele>29.0</ele><time>2026-03-28T15:45:44.935Z</time></trkpt><trkpt lat="45.9791676" lon="12.7454527"><ele>28.999999999999996</ele><time>2026-03-28T15:45:45.935Z</time></trkpt><trkpt lat="45.9791752" lon="12.7455469"><ele>29.0</ele><time>2026-03-28T15:45:46.934Z</time></trkpt><trkpt lat="45.9791667" lon="12.745675"><ele>29.0</ele><time>2026-03-28T15:45:48.934Z</time></trkpt><trkpt lat="45.9790599" lon="12.7457141"><ele>29.0</ele><time>2026-03-28T15:45:50.934Z</time></trkpt><trkpt lat="45.9789896" lon="12.7457691"><ele>28.999999999999996</ele><time>2026-03-28T15:45:52.934Z</time></trkpt><trkpt lat="45.9789582" lon="12.7458998"><ele>29.0</ele><time>2026-03-28T15:45:54.934Z</time></trkpt><trkpt lat="45.9789103" lon="12.7460336"><ele>28.999999999999996</ele><time>2026-03-28T15:45:56.935Z</time></trkpt><trkpt lat="45.9788568" lon="12.7460891"><ele>29.0</ele><time>2026-03-28T15:45:58.935Z</time></trkpt><trkpt lat="45.9788163" lon="12.7460011"><ele>29.0</ele><time>2026-03-28T15:46:01.935Z</time></trkpt><trkpt lat="45.9788341" lon="12.7458939"><ele>29.0</ele><time>2026-03-28T15:46:02.935Z</time></trkpt><trkpt lat="45.9788672" lon="12.7457758"><ele>28.999999999999996</ele><time>2026-03-28T15:46:04.935Z</time></trkpt><trkpt lat="45.9789171" lon="12.7456333"><ele>29.0</ele><time>2026-03-28T15:46:06.934Z</time></trkpt><trkpt lat="45.9789846" lon="12.7455147"><ele>28.999999999999996</ele><time>2026-03-28T15:46:08.934Z</time></trkpt><trkpt lat="45.9790043" lon="12.745411"><ele>29.0</ele><time>2026-03-28T15:46:10.935Z</time></trkpt><trkpt lat="45.9789149" lon="12.745426"><ele>29.0</ele><time>2026-03-28T15:46:13.934Z</time></trkpt><trkpt lat="45.9788641" lon="12.7454909"><ele>29.0</ele><time>2026-03-28T15:46:15.934Z</time></trkpt><trkpt lat="45.978785" lon="12.7455468"><ele>28.999999999999996</ele><time>2026-03-28T15:46:17.933Z</time></trkpt><trkpt lat="45.9786748" lon="12.7455599"><ele>29.0</ele><time>2026-03-28T15:46:19.935Z</time></trkpt><trkpt lat="45.9786019" lon="12.7455507"><ele>28.999999999999996</ele><time>2026-03-28T15:46:21.934Z</time></trkpt><trkpt lat="45.9785352" lon="12.7455539"><ele>29.0</ele><time>2026-03-28T15:46:22.934Z</time></trkpt><trkpt lat="45.9784521" lon="12.7454996"><ele>29.0</ele><time>2026-03-28T15:46:24.934Z</time></trkpt><trkpt lat="45.9784021" lon="12.7454286"><ele>29.0</ele><time>2026-03-28T15:46:26.935Z</time></trkpt><trkpt lat="45.9784298" lon="12.7453463"><ele>28.999999999999996</ele><time>2026-03-28T15:46:29.934Z</time></trkpt><trkpt lat="45.9785417" lon="12.7453387"><ele>29.0</ele><time>2026-03-28T15:46:31.935Z</time></trkpt><trkpt lat="45.9786617" lon="12.7453032"><ele>28.999999999999996</ele><time>2026-03-28T15:46:33.934Z</time></trkpt><trkpt lat="45.9787325" lon="12.7452832"><ele>29.0</ele><time>2026-03-28T15:46:34.935Z</time></trkpt><trkpt lat="45.9787949" lon="12.7452676"><ele>29.0</ele><time>2026-03-28T15:46:35.934Z</time></trkpt><trkpt lat="45.97888" lon="12.7452395"><ele>29.0</ele><time>2026-03-28T15:46:37.934Z</time></trkpt><trkpt lat="45.9789812" lon="12.7451645"><ele>28.999999999999996</ele><time>2026-03-28T15:46:39.935Z</time></trkpt><trkpt lat="45.9790164" lon="12.745053"><ele>29.0</ele><time>2026-03-28T15:46:41.935Z</time></trkpt><trkpt lat="45.9790091" lon="12.7449126"><ele>28.833333333333332</ele><time>2026-03-28T15:46:43.934Z</time></trkpt><trkpt lat="45.9790033" lon="12.7447897"><ele>28.666666666666664</ele><time>2026-03-28T15:46:45.934Z</time></trkpt><trkpt lat="45.9790698" lon="12.7446872"><ele>28.5</ele><time>2026-03-28T15:46:47.935Z</time></trkpt><trkpt lat="45.9791656" lon="12.7447003"><ele>28.333333333333336</ele><time>2026-03-28T15:46:49.935Z</time></trkpt><trkpt lat="45.979235" lon="12.7446817"><ele>28.166666666666668</ele><time>2026-03-28T15:46:51.934Z</time></trkpt><trkpt lat="45.9792795" lon="12.7445991"><ele>28.0</ele><time>2026-03-28T15:46:53.934Z</time></trkpt><trkpt lat="45.9792272" lon="12.7445102"><ele>28.666666666666668</ele><time>2026-03-28T15:46:54.933Z</time></trkpt><trkpt lat="45.9791509" lon="12.7444654"><ele>29.333333333333336</ele><time>2026-03-28T15:46:56.934Z</time></trkpt><trkpt lat="45.9790555" lon="12.7445"><ele>30.0</ele><time>2026-03-28T15:46:58.934Z</time></trkpt><trkpt lat="45.9789806" lon="12.7445728"><ele>30.666666666666664</ele><time>2026-03-28T15:47:00.935Z</time></trkpt><trkpt lat="45.9789337" lon="12.7446803"><ele>31.333333333333332</ele><time>2026-03-28T15:47:02.934Z</time></trkpt><trkpt lat="45.9788888" lon="12.7447912"><ele>32.0</ele><time>2026-03-28T15:47:04.934Z</time></trkpt><trkpt lat="45.9788587" lon="12.7449257"><ele>31.999999999999996</ele><time>2026-03-28T15:47:06.934Z</time></trkpt><trkpt lat="45.9787871" lon="12.7450495"><ele>32.0</ele><time>2026-03-28T15:47:08.934Z</time></trkpt><trkpt lat="45.9787051" lon="12.7450835"><ele>32.0</ele><time>2026-03-28T15:47:10.935Z</time></trkpt><trkpt lat="45.9786465" lon="12.745123"><ele>32.0</ele><time>2026-03-28T15:47:11.935Z</time></trkpt><trkpt lat="45.9785853" lon="12.7451552"><ele>31.999999999999996</ele><time>2026-03-28T15:47:12.934Z</time></trkpt><trkpt lat="45.9784739" lon="12.7451931"><ele>32.0</ele><time>2026-03-28T15:47:14.934Z</time></trkpt><trkpt lat="45.9783887" lon="12.745228"><ele>32.2</ele><time>2026-03-28T15:47:16.934Z</time></trkpt><trkpt lat="45.9783292" lon="12.7452587"><ele>32.400000000000006</ele><time>2026-03-28T15:47:17.934Z</time></trkpt><trkpt lat="45.9782644" lon="12.7453887"><ele>32.599999999999994</ele><time>2026-03-28T15:47:19.935Z</time></trkpt><trkpt lat="45.9782256" lon="12.7455331"><ele>32.8</ele><time>2026-03-28T15:47:21.934Z</time></trkpt><trkpt lat="45.9782252" lon="12.745685"><ele>33.0</ele><time>2026-03-28T15:47:23.933Z</time></trkpt><trkpt lat="45.978268" lon="12.7458655"><ele>33.0</ele><time>2026-03-28T15:47:25.934Z</time></trkpt><trkpt lat="45.9782757" lon="12.7459586"><ele>33.0</ele><time>2026-03-28T15:47:26.935Z</time></trkpt><trkpt lat="45.9782801" lon="12.7461279"><ele>33.0</ele><time>2026-03-28T15:47:28.934Z</time></trkpt><trkpt lat="45.9783068" lon="12.7463002"><ele>33.0</ele><time>2026-03-28T15:47:30.934Z</time></trkpt><trkpt lat="45.9783247" lon="12.7464381"><ele>33.0</ele><time>2026-03-28T15:47:32.934Z</time></trkpt><trkpt lat="45.9783785" lon="12.7465514"><ele>32.199999999999996</ele><time>2026-03-28T15:47:34.935Z</time></trkpt><trkpt lat="45.9784491" lon="12.7466537"><ele>31.4</ele><time>2026-03-28T15:47:36.935Z</time></trkpt><trkpt lat="45.9785352" lon="12.7467623"><ele>30.599999999999998</ele><time>2026-03-28T15:47:38.934Z</time></trkpt><trkpt lat="45.9786006" lon="12.7469227"><ele>29.799999999999997</ele><time>2026-03-28T15:47:40.934Z</time></trkpt><trkpt lat="45.9786577" lon="12.7469798"><ele>29.0</ele><time>2026-03-28T15:47:41.934Z</time></trkpt><trkpt lat="45.9787453" lon="12.7470912"><ele>29.0</ele><time>2026-03-28T15:47:43.934Z</time></trkpt><trkpt lat="45.9788157" lon="12.7471623"><ele>29.0</ele><time>2026-03-28T15:47:45.934Z</time></trkpt><trkpt lat="45.9789027" lon="12.7471219"><ele>29.0</ele><time>2026-03-28T15:47:49.935Z</time></trkpt><trkpt lat="45.9790169" lon="12.7470778"><ele>29.0</ele><time>2026-03-28T15:47:51.935Z</time></trkpt><trkpt lat="45.9791299" lon="12.7472023"><ele>29.0</ele><time>2026-03-28T15:47:54.935Z</time></trkpt><trkpt lat="45.9791211" lon="12.7473631"><ele>28.999999999999996</ele><time>2026-03-28T15:47:56.934Z</time></trkpt><trkpt lat="45.9791577" lon="12.7474704"><ele>29.0</ele><time>2026-03-28T15:47:58.934Z</time></trkpt><trkpt lat="45.9792355" lon="12.7475749"><ele>29.0</ele><time>2026-03-28T15:48:00.934Z</time></trkpt><trkpt lat="45.9793111" lon="12.7476799"><ele>29.0</ele><time>2026-03-28T15:48:02.935Z</time></trkpt><trkpt lat="45.9793822" lon="12.7477046"><ele>28.999999999999996</ele><time>2026-03-28T15:48:04.935Z</time></trkpt><trkpt lat="45.9794439" lon="12.747777"><ele>29.0</ele><time>2026-03-28T15:48:07.934Z</time></trkpt><trkpt lat="45.9794843" lon="12.7478587"><ele>29.799999999999997</ele><time>2026-03-28T15:48:09.934Z</time></trkpt><trkpt lat="45.9795586" lon="12.7479581"><ele>30.599999999999998</ele><time>2026-03-28T15:48:11.935Z</time></trkpt><trkpt lat="45.9796411" lon="12.7479593"><ele>31.4</ele><time>2026-03-28T15:48:12.934Z</time></trkpt><trkpt lat="45.9797779" lon="12.7479266"><ele>32.199999999999996</ele><time>2026-03-28T15:48:14.934Z</time></trkpt><trkpt lat="45.9798545" lon="12.7479163"><ele>33.0</ele><time>2026-03-28T15:48:15.935Z</time></trkpt><trkpt lat="45.9799208" lon="12.7478932"><ele>33.0</ele><time>2026-03-28T15:48:16.935Z</time></trkpt><trkpt lat="45.9800149" lon="12.7478136"><ele>33.0</ele><time>2026-03-28T15:48:18.934Z</time></trkpt><trkpt lat="45.9800471" lon="12.7476922"><ele>33.0</ele><time>2026-03-28T15:48:20.935Z</time></trkpt><trkpt lat="45.9800592" lon="12.7475374"><ele>33.0</ele><time>2026-03-28T15:48:22.934Z</time></trkpt><trkpt lat="45.9800965" lon="12.747444"><ele>33.0</ele><time>2026-03-28T15:48:24.935Z</time></trkpt><trkpt lat="45.9801866" lon="12.747404"><ele>33.0</ele><time>2026-03-28T15:48:27.936Z</time></trkpt><trkpt lat="45.9803005" lon="12.7473661"><ele>33.0</ele><time>2026-03-28T15:48:29.934Z</time></trkpt><trkpt lat="45.980396" lon="12.7473032"><ele>33.0</ele><time>2026-03-28T15:48:31.935Z</time></trkpt><trkpt lat="45.9804714" lon="12.7472058"><ele>33.0</ele><time>2026-03-28T15:48:33.935Z</time></trkpt><trkpt lat="45.980553" lon="12.7472032"><ele>33.0</ele><time>2026-03-28T15:48:35.934Z</time></trkpt><trkpt lat="45.9806204" lon="12.7472736"><ele>33.0</ele><time>2026-03-28T15:48:37.934Z</time></trkpt><trkpt lat="45.9807237" lon="12.7473591"><ele>33.0</ele><time>2026-03-28T15:48:39.934Z</time></trkpt><trkpt lat="45.9808192" lon="12.747391"><ele>33.0</ele><time>2026-03-28T15:48:41.934Z</time></trkpt><trkpt lat="45.9808913" lon="12.7474103"><ele>33.0</ele><time>2026-03-28T15:48:43.934Z</time></trkpt><trkpt lat="45.9809788" lon="12.7474306"><ele>33.0</ele><time>2026-03-28T15:48:45.935Z</time></trkpt><trkpt lat="45.9810511" lon="12.7475282"><ele>33.0</ele><time>2026-03-28T15:48:48.934Z</time></trkpt><trkpt lat="45.9810496" lon="12.7476403"><ele>33.0</ele><time>2026-03-28T15:48:50.935Z</time></trkpt><trkpt lat="45.9809959" lon="12.7477449"><ele>33.0</ele><time>2026-03-28T15:48:52.934Z</time></trkpt><trkpt lat="45.9809546" lon="12.7478624"><ele>33.0</ele><time>2026-03-28T15:48:54.934Z</time></trkpt><trkpt lat="45.9809136" lon="12.7479368"><ele>33.0</ele><time>2026-03-28T15:48:55.935Z</time></trkpt><trkpt lat="45.9808939" lon="12.7480392"><ele>33.0</ele><time>2026-03-28T15:48:57.934Z</time></trkpt><trkpt lat="45.9809454" lon="12.7481356"><ele>33.0</ele><time>2026-03-28T15:48:59.934Z</time></trkpt><trkpt lat="45.9810267" lon="12.7481081"><ele>33.0</ele><time>2026-03-28T15:49:01.935Z</time></trkpt><trkpt lat="45.9811262" lon="12.7480452"><ele>33.0</ele><time>2026-03-28T15:49:03.934Z</time></trkpt><trkpt lat="45.9812073" lon="12.7480835"><ele>33.0</ele><time>2026-03-28T15:49:05.934Z</time></trkpt><trkpt lat="45.9812381" lon="12.748173"><ele>33.0</ele><time>2026-03-28T15:49:07.934Z</time></trkpt><trkpt lat="45.9811876" lon="12.7483393"><ele>33.0</ele><time>2026-03-28T15:49:09.934Z</time></trkpt><trkpt lat="45.9811091" lon="12.7484669"><ele>33.0</ele><time>2026-03-28T15:49:11.934Z</time></trkpt><trkpt lat="45.981038" lon="12.74856"><ele>33.0</ele><time>2026-03-28T15:49:13.934Z</time></trkpt><trkpt lat="45.9809806" lon="12.7486202"><ele>33.0</ele><time>2026-03-28T15:49:15.935Z</time></trkpt><trkpt lat="45.9809398" lon="12.7486975"><ele>33.0</ele><time>2026-03-28T15:49:17.935Z</time></trkpt><trkpt lat="45.9808826" lon="12.7487929"><ele>33.0</ele><time>2026-03-28T15:49:20.934Z</time></trkpt><trkpt lat="45.9808149" lon="12.7487952"><ele>32.833333333333336</ele><time>2026-03-28T15:49:23.935Z</time></trkpt><trkpt lat="45.9807604" lon="12.7487444"><ele>32.666666666666664</ele><time>2026-03-28T15:49:25.935Z</time></trkpt><trkpt lat="45.9807024" lon="12.7486736"><ele>32.5</ele><time>2026-03-28T15:49:27.935Z</time></trkpt><trkpt lat="45.980619" lon="12.7486368"><ele>32.33333333333333</ele><time>2026-03-28T15:49:29.934Z</time></trkpt><trkpt lat="45.9805329" lon="12.7485852"><ele>32.166666666666664</ele><time>2026-03-28T15:49:31.934Z</time></trkpt><trkpt lat="45.9804653" lon="12.7485694"><ele>32.0</ele><time>2026-03-28T15:49:32.934Z</time></trkpt><trkpt lat="45.9804054" lon="12.7485405"><ele>32.0</ele><time>2026-03-28T15:49:33.935Z</time></trkpt><trkpt lat="45.9803377" lon="12.7485002"><ele>31.999999999999996</ele><time>2026-03-28T15:49:34.934Z</time></trkpt><trkpt lat="45.9802751" lon="12.7484587"><ele>32.0</ele><time>2026-03-28T15:49:35.934Z</time></trkpt><trkpt lat="45.9802143" lon="12.7484172"><ele>32.0</ele><time>2026-03-28T15:49:36.935Z</time></trkpt><trkpt lat="45.9801514" lon="12.748383"><ele>31.999999999999996</ele><time>2026-03-28T15:49:37.934Z</time></trkpt><trkpt lat="45.9800803" lon="12.7483512"><ele>32.0</ele><time>2026-03-28T15:49:38.935Z</time></trkpt><trkpt lat="45.980015" lon="12.7483526"><ele>32.0</ele><time>2026-03-28T15:49:39.934Z</time></trkpt><trkpt lat="45.9799179" lon="12.7483924"><ele>32.14285714285714</ele><time>2026-03-28T15:49:41.934Z</time></trkpt><trkpt lat="45.9798343" lon="12.7484038"><ele>32.285714285714285</ele><time>2026-03-28T15:49:43.934Z</time></trkpt><trkpt lat="45.979757" lon="12.7483353"><ele>32.42857142857143</ele><time>2026-03-28T15:49:46.934Z</time></trkpt><trkpt lat="45.979695" lon="12.7483074"><ele>32.57142857142857</ele><time>2026-03-28T15:49:48.934Z</time></trkpt><trkpt lat="45.9796314" lon="12.7482752"><ele>32.714285714285715</ele><time>2026-03-28T15:49:50.934Z</time></trkpt><trkpt lat="45.9795702" lon="12.7482312"><ele>32.857142857142854</ele><time>2026-03-28T15:50:00.934Z</time></trkpt><trkpt lat="45.9795315" lon="12.748148"><ele>33.0</ele><time>2026-03-28T15:50:05.935Z</time></trkpt><trkpt lat="45.979563" lon="12.748038"><ele>33.0</ele><time>2026-03-28T15:50:12.934Z</time></trkpt><trkpt lat="45.9795507" lon="12.7479311"><ele>33.0</ele><time>2026-03-28T15:50:15.935Z</time></trkpt><trkpt lat="45.979485" lon="12.7478673"><ele>33.0</ele><time>2026-03-28T15:50:17.935Z</time></trkpt><trkpt lat="45.9794451" lon="12.7477666"><ele>33.0</ele><time>2026-03-28T15:50:19.935Z</time></trkpt><trkpt lat="45.9793815" lon="12.7476498"><ele>33.0</ele><time>2026-03-28T15:54:33.933Z</time></trkpt><trkpt lat="45.9793238" lon="12.7475259"><ele>33.0</ele><time>2026-03-28T15:54:35.933Z</time></trkpt><trkpt lat="45.9793182" lon="12.7473764"><ele>32.8</ele><time>2026-03-28T15:54:37.933Z</time></trkpt><trkpt lat="45.9793311" lon="12.7472579"><ele>32.599999999999994</ele><time>2026-03-28T15:54:38.933Z</time></trkpt><trkpt lat="45.9793446" lon="12.7470935"><ele>32.400000000000006</ele><time>2026-03-28T15:54:40.934Z</time></trkpt><trkpt lat="45.9793662" lon="12.7469557"><ele>32.2</ele><time>2026-03-28T15:54:42.933Z</time></trkpt><trkpt lat="45.9793827" lon="12.7468652"><ele>32.0</ele><time>2026-03-28T15:54:43.933Z</time></trkpt><trkpt lat="45.9794049" lon="12.7466896"><ele>31.666666666666664</ele><time>2026-03-28T15:54:45.934Z</time></trkpt><trkpt lat="45.9794109" lon="12.7465982"><ele>31.333333333333332</ele><time>2026-03-28T15:54:46.933Z</time></trkpt><trkpt lat="45.9794079" lon="12.7464856"><ele>31.0</ele><time>2026-03-28T15:54:47.934Z</time></trkpt><trkpt lat="45.9793958" lon="12.7462946"><ele>30.666666666666664</ele><time>2026-03-28T15:54:49.933Z</time></trkpt><trkpt lat="45.9793831" lon="12.7461893"><ele>30.333333333333332</ele><time>2026-03-28T15:54:50.934Z</time></trkpt><trkpt lat="45.9793713" lon="12.7460713"><ele>30.0</ele><time>2026-03-28T15:54:51.934Z</time></trkpt><trkpt lat="45.9793666" lon="12.7459341"><ele>29.833333333333332</ele><time>2026-03-28T15:54:52.933Z</time></trkpt><trkpt lat="45.9793675" lon="12.7457884"><ele>29.666666666666664</ele><time>2026-03-28T15:54:53.933Z</time></trkpt><trkpt lat="45.9793701" lon="12.7456647"><ele>29.5</ele><time>2026-03-28T15:54:54.933Z</time></trkpt><trkpt lat="45.9793669" lon="12.7455453"><ele>29.333333333333332</ele><time>2026-03-28T15:54:55.934Z</time></trkpt><trkpt lat="45.9793607" lon="12.7454333"><ele>29.166666666666664</ele><time>2026-03-28T15:54:56.933Z</time></trkpt><trkpt lat="45.9793446" lon="12.7453323"><ele>29.0</ele><time>2026-03-28T15:54:57.934Z</time></trkpt><trkpt lat="45.9793235" lon="12.7452295"><ele>28.999999999999996</ele><time>2026-03-28T15:54:58.934Z</time></trkpt><trkpt lat="45.9792828" lon="12.7450695"><ele>29.0</ele><time>2026-03-28T15:55:00.933Z</time></trkpt><trkpt lat="45.979222" lon="12.7450153"><ele>29.0</ele><time>2026-03-28T15:55:02.933Z</time></trkpt><trkpt lat="45.9791519" lon="12.7450284"><ele>29.0</ele><time>2026-03-28T15:55:04.932Z</time></trkpt><trkpt lat="45.9791543" lon="12.7451766"><ele>28.999999999999996</ele><time>2026-03-28T15:55:05.934Z</time></trkpt><trkpt lat="45.9791515" lon="12.7452869"><ele>29.0</ele><time>2026-03-28T15:55:06.934Z</time></trkpt><trkpt lat="45.9791609" lon="12.7453924"><ele>28.999999999999996</ele><time>2026-03-28T15:55:07.933Z</time></trkpt><trkpt lat="45.9791817" lon="12.7455373"><ele>29.0</ele><time>2026-03-28T15:55:09.933Z</time></trkpt><trkpt lat="45.9791647" lon="12.745626"><ele>29.0</ele><time>2026-03-28T15:55:11.933Z</time></trkpt><trkpt lat="45.9790858" lon="12.7456599"><ele>29.0</ele><time>2026-03-28T15:55:13.933Z</time></trkpt><trkpt lat="45.9789976" lon="12.7456942"><ele>28.999999999999996</ele><time>2026-03-28T15:55:15.934Z</time></trkpt><trkpt lat="45.9789465" lon="12.7458028"><ele>29.0</ele><time>2026-03-28T15:55:17.933Z</time></trkpt><trkpt lat="45.9789339" lon="12.7459324"><ele>28.999999999999996</ele><time>2026-03-28T15:55:18.934Z</time></trkpt><trkpt lat="45.978909" lon="12.7460189"><ele>29.0</ele><time>2026-03-28T15:55:19.933Z</time></trkpt><trkpt lat="45.9788236" lon="12.746068"><ele>29.0</ele><time>2026-03-28T15:55:22.933Z</time></trkpt><trkpt lat="45.9788273" lon="12.7459616"><ele>29.0</ele><time>2026-03-28T15:55:24.933Z</time></trkpt><trkpt lat="45.9788495" lon="12.7458316"><ele>28.999999999999996</ele><time>2026-03-28T15:55:26.933Z</time></trkpt><trkpt lat="45.9788831" lon="12.745694"><ele>29.0</ele><time>2026-03-28T15:55:28.934Z</time></trkpt><trkpt lat="45.9789245" lon="12.7455911"><ele>29.0</ele><time>2026-03-28T15:55:30.933Z</time></trkpt><trkpt lat="45.9789984" lon="12.7454548"><ele>29.0</ele><time>2026-03-28T15:55:32.933Z</time></trkpt><trkpt lat="45.9789655" lon="12.7453672"><ele>29.0</ele><time>2026-03-28T15:55:34.933Z</time></trkpt><trkpt lat="45.978892" lon="12.7454048"><ele>29.0</ele><time>2026-03-28T15:55:37.933Z</time></trkpt><trkpt lat="45.9788297" lon="12.7455449"><ele>29.0</ele><time>2026-03-28T15:55:39.933Z</time></trkpt><trkpt lat="45.9787168" lon="12.7455805"><ele>28.999999999999996</ele><time>2026-03-28T15:55:41.933Z</time></trkpt><trkpt lat="45.9786174" lon="12.7455969"><ele>29.0</ele><time>2026-03-28T15:55:43.934Z</time></trkpt><trkpt lat="45.9785432" lon="12.7455571"><ele>29.0</ele><time>2026-03-28T15:55:45.933Z</time></trkpt><trkpt lat="45.9784604" lon="12.7455201"><ele>29.0</ele><time>2026-03-28T15:55:47.934Z</time></trkpt><trkpt lat="45.9784135" lon="12.7454462"><ele>28.999999999999996</ele><time>2026-03-28T15:55:49.934Z</time></trkpt><trkpt lat="45.9784301" lon="12.7453565"><ele>29.0</ele><time>2026-03-28T15:55:52.934Z</time></trkpt><trkpt lat="45.9785118" lon="12.7453365"><ele>28.999999999999996</ele><time>2026-03-28T15:55:54.933Z</time></trkpt><trkpt lat="45.9785771" lon="12.7453245"><ele>29.0</ele><time>2026-03-28T15:55:55.933Z</time></trkpt><trkpt lat="45.9786449" lon="12.7453179"><ele>29.0</ele><time>2026-03-28T15:55:56.934Z</time></trkpt><trkpt lat="45.9787587" lon="12.7453096"><ele>29.0</ele><time>2026-03-28T15:55:58.933Z</time></trkpt><trkpt lat="45.9788501" lon="12.7452818"><ele>28.999999999999996</ele><time>2026-03-28T15:56:00.934Z</time></trkpt><trkpt lat="45.9789345" lon="12.7452399"><ele>29.0</ele><time>2026-03-28T15:56:02.934Z</time></trkpt><trkpt lat="45.9789837" lon="12.7451757"><ele>28.833333333333332</ele><time>2026-03-28T15:56:03.933Z</time></trkpt><trkpt lat="45.9790298" lon="12.7450634"><ele>28.666666666666664</ele><time>2026-03-28T15:56:05.933Z</time></trkpt><trkpt lat="45.9790325" lon="12.7449233"><ele>28.5</ele><time>2026-03-28T15:56:07.933Z</time></trkpt><trkpt lat="45.9790225" lon="12.7448032"><ele>28.333333333333336</ele><time>2026-03-28T15:56:09.933Z</time></trkpt><trkpt lat="45.9790742" lon="12.7447287"><ele>28.166666666666668</ele><time>2026-03-28T15:56:11.934Z</time></trkpt><trkpt lat="45.9791594" lon="12.7447243"><ele>28.0</ele><time>2026-03-28T15:56:13.933Z</time></trkpt><trkpt lat="45.9792458" lon="12.74471"><ele>28.0</ele><time>2026-03-28T15:56:15.933Z</time></trkpt><trkpt lat="45.9792815" lon="12.7446131"><ele>27.999999999999996</ele><time>2026-03-28T15:56:17.934Z</time></trkpt><trkpt lat="45.9792223" lon="12.7444817"><ele>27.999999999999996</ele><time>2026-03-28T15:56:19.933Z</time></trkpt><trkpt lat="45.9791251" lon="12.7444522"><ele>28.0</ele><time>2026-03-28T15:56:21.934Z</time></trkpt><trkpt lat="45.9790447" lon="12.7445066"><ele>28.0</ele><time>2026-03-28T15:56:23.933Z</time></trkpt><trkpt lat="45.978977" lon="12.7445827"><ele>28.799999999999997</ele><time>2026-03-28T15:56:25.934Z</time></trkpt><trkpt lat="45.9789272" lon="12.7446862"><ele>29.599999999999998</ele><time>2026-03-28T15:56:27.934Z</time></trkpt><trkpt lat="45.9788979" lon="12.7448326"><ele>30.400000000000002</ele><time>2026-03-28T15:56:29.933Z</time></trkpt><trkpt lat="45.9788522" lon="12.7449476"><ele>31.200000000000003</ele><time>2026-03-28T15:56:31.934Z</time></trkpt><trkpt lat="45.9787672" lon="12.7450463"><ele>32.0</ele><time>2026-03-28T15:56:33.933Z</time></trkpt><trkpt lat="45.9786802" lon="12.7450922"><ele>32.0</ele><time>2026-03-28T15:56:35.934Z</time></trkpt><trkpt lat="45.9785886" lon="12.7451394"><ele>32.0</ele><time>2026-03-28T15:56:37.934Z</time></trkpt><trkpt lat="45.9784926" lon="12.7451744"><ele>32.0</ele><time>2026-03-28T15:56:39.933Z</time></trkpt><trkpt lat="45.9784055" lon="12.7452074"><ele>32.0</ele><time>2026-03-28T15:56:41.934Z</time></trkpt><trkpt lat="45.9783069" lon="12.7452951"><ele>32.0</ele><time>2026-03-28T15:56:43.933Z</time></trkpt><trkpt lat="45.9782491" lon="12.7454507"><ele>32.166666666666664</ele><time>2026-03-28T15:56:45.933Z</time></trkpt><trkpt lat="45.9782342" lon="12.7455934"><ele>32.33333333333333</ele><time>2026-03-28T15:56:47.933Z</time></trkpt><trkpt lat="45.9782537" lon="12.7457199"><ele>32.5</ele><time>2026-03-28T15:56:49.934Z</time></trkpt><trkpt lat="45.9782698" lon="12.7458443"><ele>32.666666666666664</ele><time>2026-03-28T15:56:51.934Z</time></trkpt><trkpt lat="45.9782842" lon="12.7459755"><ele>32.833333333333336</ele><time>2026-03-28T15:56:53.933Z</time></trkpt><trkpt lat="45.978289" lon="12.746074"><ele>33.0</ele><time>2026-03-28T15:56:55.934Z</time></trkpt><trkpt lat="45.9783118" lon="12.7462464"><ele>32.6</ele><time>2026-03-28T15:56:57.934Z</time></trkpt><trkpt lat="45.9783306" lon="12.7463417"><ele>32.199999999999996</ele><time>2026-03-28T15:56:58.934Z</time></trkpt><trkpt lat="45.9783752" lon="12.7465149"><ele>31.8</ele><time>2026-03-28T15:57:00.933Z</time></trkpt><trkpt lat="45.9784449" lon="12.7466409"><ele>31.4</ele><time>2026-03-28T15:57:02.933Z</time></trkpt><trkpt lat="45.97853" lon="12.7467631"><ele>31.0</ele><time>2026-03-28T15:57:04.933Z</time></trkpt><trkpt lat="45.9786032" lon="12.7468874"><ele>30.6</ele><time>2026-03-28T15:57:06.934Z</time></trkpt><trkpt lat="45.978691" lon="12.7470283"><ele>30.200000000000003</ele><time>2026-03-28T15:57:08.933Z</time></trkpt><trkpt lat="45.9787756" lon="12.747127"><ele>29.799999999999997</ele><time>2026-03-28T15:57:10.934Z</time></trkpt><trkpt lat="45.9788391" lon="12.7471718"><ele>29.4</ele><time>2026-03-28T15:57:12.933Z</time></trkpt><trkpt lat="45.9789059" lon="12.7471367"><ele>29.0</ele><time>2026-03-28T15:57:15.934Z</time></trkpt><trkpt lat="45.9789856" lon="12.7470961"><ele>29.0</ele><time>2026-03-28T15:57:18.933Z</time></trkpt><trkpt lat="45.9790815" lon="12.7471982"><ele>29.0</ele><time>2026-03-28T15:57:21.933Z</time></trkpt><trkpt lat="45.9791093" lon="12.7472848"><ele>29.0</ele><time>2026-03-28T15:57:23.933Z</time></trkpt><trkpt lat="45.9791384" lon="12.7474011"><ele>29.0</ele><time>2026-03-28T15:57:25.933Z</time></trkpt><trkpt lat="45.9791851" lon="12.7475245"><ele>29.0</ele><time>2026-03-28T15:57:27.933Z</time></trkpt><trkpt lat="45.9792565" lon="12.7476151"><ele>29.499999999999996</ele><time>2026-03-28T15:57:29.933Z</time></trkpt><trkpt lat="45.9793448" lon="12.7476617"><ele>30.0</ele><time>2026-03-28T15:57:31.933Z</time></trkpt><trkpt lat="45.9794032" lon="12.7477085"><ele>30.5</ele><time>2026-03-28T15:57:33.933Z</time></trkpt><trkpt lat="45.9794361" lon="12.7478198"><ele>31.0</ele><time>2026-03-28T15:57:37.934Z</time></trkpt><trkpt lat="45.9794947" lon="12.7478741"><ele>31.499999999999996</ele><time>2026-03-28T15:57:38.933Z</time></trkpt><trkpt lat="45.9795631" lon="12.7479237"><ele>32.0</ele><time>2026-03-28T15:57:39.933Z</time></trkpt><trkpt lat="45.9796643" lon="12.747949"><ele>31.999999999999996</ele><time>2026-03-28T15:57:41.933Z</time></trkpt><trkpt lat="45.9797862" lon="12.7479282"><ele>32.0</ele><time>2026-03-28T15:57:43.934Z</time></trkpt><trkpt lat="45.9798569" lon="12.7479127"><ele>32.0</ele><time>2026-03-28T15:57:44.934Z</time></trkpt><trkpt lat="45.9799195" lon="12.7479014"><ele>32.0</ele><time>2026-03-28T15:57:45.933Z</time></trkpt><trkpt lat="45.9800087" lon="12.7478298"><ele>31.999999999999996</ele><time>2026-03-28T15:57:47.934Z</time></trkpt><trkpt lat="45.9800549" lon="12.7477279"><ele>32.0</ele><time>2026-03-28T15:57:49.934Z</time></trkpt><trkpt lat="45.9800731" lon="12.7475824"><ele>32.166666666666664</ele><time>2026-03-28T15:57:51.933Z</time></trkpt><trkpt lat="45.9800797" lon="12.7474714"><ele>32.33333333333333</ele><time>2026-03-28T15:57:53.934Z</time></trkpt><trkpt lat="45.9801455" lon="12.7474189"><ele>32.5</ele><time>2026-03-28T15:57:56.934Z</time></trkpt><trkpt lat="45.9802158" lon="12.7473805"><ele>32.666666666666664</ele><time>2026-03-28T15:57:58.933Z</time></trkpt><trkpt lat="45.9803128" lon="12.7473737"><ele>32.833333333333336</ele><time>2026-03-28T15:58:00.933Z</time></trkpt><trkpt lat="45.9803963" lon="12.7472896"><ele>33.0</ele><time>2026-03-28T15:58:02.933Z</time></trkpt><trkpt lat="45.9804792" lon="12.7471977"><ele>33.0</ele><time>2026-03-28T15:58:04.934Z</time></trkpt><trkpt lat="45.9805874" lon="12.7472574"><ele>33.0</ele><time>2026-03-28T15:58:07.933Z</time></trkpt><trkpt lat="45.9806819" lon="12.7473202"><ele>33.0</ele><time>2026-03-28T15:58:09.934Z</time></trkpt><trkpt lat="45.9807622" lon="12.7473602"><ele>33.0</ele><time>2026-03-28T15:58:11.934Z</time></trkpt><trkpt lat="45.9808283" lon="12.7473936"><ele>33.0</ele><time>2026-03-28T15:58:13.933Z</time></trkpt><trkpt lat="45.9808985" lon="12.7473892"><ele>33.0</ele><time>2026-03-28T15:58:15.934Z</time></trkpt><trkpt lat="45.9809969" lon="12.7473818"><ele>33.0</ele><time>2026-03-28T15:58:17.933Z</time></trkpt><trkpt lat="45.9810407" lon="12.7474626"><ele>33.0</ele><time>2026-03-28T15:58:19.933Z</time></trkpt><trkpt lat="45.9810584" lon="12.7475732"><ele>33.0</ele><time>2026-03-28T15:58:21.933Z</time></trkpt><trkpt lat="45.9810226" lon="12.7476633"><ele>33.0</ele><time>2026-03-28T15:58:23.934Z</time></trkpt><trkpt lat="45.9809693" lon="12.7477664"><ele>33.0</ele><time>2026-03-28T15:58:25.933Z</time></trkpt><trkpt lat="45.9809033" lon="12.7479108"><ele>33.0</ele><time>2026-03-28T15:58:27.934Z</time></trkpt><trkpt lat="45.980868" lon="12.7480398"><ele>33.0</ele><time>2026-03-28T15:58:29.933Z</time></trkpt><trkpt lat="45.9809227" lon="12.7481217"><ele>33.0</ele><time>2026-03-28T15:58:31.933Z</time></trkpt><trkpt lat="45.9809927" lon="12.7481317"><ele>33.0</ele><time>2026-03-28T15:58:33.933Z</time></trkpt><trkpt lat="45.9810708" lon="12.7480751"><ele>33.0</ele><time>2026-03-28T15:58:35.933Z</time></trkpt><trkpt lat="45.9811716" lon="12.7480538"><ele>33.0</ele><time>2026-03-28T15:58:37.933Z</time></trkpt><trkpt lat="45.9812306" lon="12.7481182"><ele>33.0</ele><time>2026-03-28T15:58:39.934Z</time></trkpt><trkpt lat="45.9812267" lon="12.7482519"><ele>33.0</ele><time>2026-03-28T15:58:41.933Z</time></trkpt><trkpt lat="45.9811689" lon="12.7483773"><ele>33.0</ele><time>2026-03-28T15:58:43.933Z</time></trkpt><trkpt lat="45.9810836" lon="12.7484974"><ele>33.0</ele><time>2026-03-28T15:58:45.933Z</time></trkpt><trkpt lat="45.9810149" lon="12.7485917"><ele>33.0</ele><time>2026-03-28T15:58:47.934Z</time></trkpt><trkpt lat="45.9809583" lon="12.7486465"><ele>33.0</ele><time>2026-03-28T15:58:49.933Z</time></trkpt><trkpt lat="45.9809233" lon="12.7487227"><ele>33.199999999999996</ele><time>2026-03-28T15:58:52.934Z</time></trkpt><trkpt lat="45.9808611" lon="12.7487788"><ele>33.4</ele><time>2026-03-28T15:58:55.933Z</time></trkpt><trkpt lat="45.9807731" lon="12.7487409"><ele>33.599999999999994</ele><time>2026-03-28T15:58:58.933Z</time></trkpt><trkpt lat="45.9807117" lon="12.7486668"><ele>33.8</ele><time>2026-03-28T15:59:00.933Z</time></trkpt><trkpt lat="45.9806181" lon="12.7486076"><ele>34.0</ele><time>2026-03-28T15:59:02.933Z</time></trkpt><trkpt lat="45.9805026" lon="12.7485857"><ele>33.6</ele><time>2026-03-28T15:59:04.933Z</time></trkpt><trkpt lat="45.9804422" lon="12.7485588"><ele>33.2</ele><time>2026-03-28T15:59:05.933Z</time></trkpt><trkpt lat="45.9803229" lon="12.7484808"><ele>32.800000000000004</ele><time>2026-03-28T15:59:07.933Z</time></trkpt><trkpt lat="45.9802576" lon="12.748441"><ele>32.4</ele><time>2026-03-28T15:59:08.934Z</time></trkpt><trkpt lat="45.9801283" lon="12.7483873"><ele>32.0</ele><time>2026-03-28T15:59:10.933Z</time></trkpt><trkpt lat="45.9800609" lon="12.7483688"><ele>32.166666666666664</ele><time>2026-03-28T15:59:11.933Z</time></trkpt><trkpt lat="45.9799956" lon="12.7483711"><ele>32.33333333333333</ele><time>2026-03-28T15:59:12.934Z</time></trkpt><trkpt lat="45.979878" lon="12.7484039"><ele>32.5</ele><time>2026-03-28T15:59:14.933Z</time></trkpt><trkpt lat="45.9798028" lon="12.7483788"><ele>32.666666666666664</ele><time>2026-03-28T15:59:16.934Z</time></trkpt><trkpt lat="45.9797372" lon="12.7483218"><ele>32.833333333333336</ele><time>2026-03-28T15:59:19.933Z</time></trkpt><trkpt lat="45.9796544" lon="12.7482904"><ele>33.0</ele><time>2026-03-28T15:59:24.933Z</time></trkpt><trkpt lat="45.9795774" lon="12.7482343"><ele>33.0</ele><time>2026-03-28T15:59:27.934Z</time></trkpt><trkpt lat="45.9795354" lon="12.7481637"><ele>33.0</ele><time>2026-03-28T15:59:40.933Z</time></trkpt><trkpt lat="45.979538" lon="12.748059"><ele>33.0</ele><time>2026-03-28T15:59:44.934Z</time></trkpt><trkpt lat="45.9795553" lon="12.7479589"><ele>33.0</ele><time>2026-03-28T15:59:47.934Z</time></trkpt><trkpt lat="45.9794955" lon="12.7479043"><ele>33.0</ele><time>2026-03-28T15:59:49.933Z</time></trkpt><trkpt lat="45.9794646" lon="12.7477979"><ele>33.0</ele><time>2026-03-28T15:59:51.933Z</time></trkpt><trkpt lat="45.9794563" lon="12.7476949"><ele>33.0</ele><time>2026-03-28T15:59:53.933Z</time></trkpt><trkpt lat="45.9794683" lon="12.7476015"><ele>32.8</ele><time>2026-03-28T15:59:55.933Z</time></trkpt><trkpt lat="45.9794214" lon="12.7475021"><ele>32.599999999999994</ele><time>2026-03-28T15:59:57.933Z</time></trkpt><trkpt lat="45.9793564" lon="12.7474336"><ele>32.400000000000006</ele><time>2026-03-28T15:59:58.934Z</time></trkpt><trkpt lat="45.9793279" lon="12.7472875"><ele>32.2</ele><time>2026-03-28T16:00:00.934Z</time></trkpt><trkpt lat="45.9793471" lon="12.7471374"><ele>32.0</ele><time>2026-03-28T16:00:02.933Z</time></trkpt><trkpt lat="45.9793581" lon="12.7469896"><ele>31.6</ele><time>2026-03-28T16:00:04.933Z</time></trkpt><trkpt lat="45.9793826" lon="12.7468126"><ele>31.200000000000003</ele><time>2026-03-28T16:00:06.933Z</time></trkpt><trkpt lat="45.9793914" lon="12.7467149"><ele>30.8</ele><time>2026-03-28T16:00:07.933Z</time></trkpt><trkpt lat="45.9794029" lon="12.746537"><ele>30.4</ele><time>2026-03-28T16:00:09.934Z</time></trkpt><trkpt lat="45.9794033" lon="12.7464213"><ele>30.0</ele><time>2026-03-28T16:00:10.934Z</time></trkpt><trkpt lat="45.9794001" lon="12.7463223"><ele>30.0</ele><time>2026-03-28T16:00:11.934Z</time></trkpt><trkpt lat="45.9793876" lon="12.7462112"><ele>30.0</ele><time>2026-03-28T16:00:12.933Z</time></trkpt><trkpt lat="45.9793763" lon="12.7460929"><ele>30.0</ele><time>2026-03-28T16:00:13.933Z</time></trkpt><trkpt lat="45.9793687" lon="12.7459767"><ele>30.0</ele><time>2026-03-28T16:00:14.933Z</time></trkpt><trkpt lat="45.9793656" lon="12.7458553"><ele>30.0</ele><time>2026-03-28T16:00:15.934Z</time></trkpt><trkpt lat="45.9793676" lon="12.7457271"><ele>30.0</ele><time>2026-03-28T16:00:16.933Z</time></trkpt><trkpt lat="45.9793748" lon="12.7456018"><ele>29.833333333333332</ele><time>2026-03-28T16:00:17.933Z</time></trkpt><trkpt lat="45.979371" lon="12.7454951"><ele>29.666666666666664</ele><time>2026-03-28T16:00:18.934Z</time></trkpt><trkpt lat="45.9793593" lon="12.7453924"><ele>29.5</ele><time>2026-03-28T16:00:19.933Z</time></trkpt><trkpt lat="45.9793388" lon="12.745283"><ele>29.333333333333332</ele><time>2026-03-28T16:00:20.933Z</time></trkpt><trkpt lat="45.979321" lon="12.7451843"><ele>29.166666666666664</ele><time>2026-03-28T16:00:21.934Z</time></trkpt><trkpt lat="45.9792868" lon="12.7450712"><ele>29.0</ele><time>2026-03-28T16:00:23.933Z</time></trkpt><trkpt lat="45.9792307" lon="12.7450066"><ele>29.0</ele><time>2026-03-28T16:00:25.933Z</time></trkpt><trkpt lat="45.9791858" lon="12.7451439"><ele>29.0</ele><time>2026-03-28T16:00:27.933Z</time></trkpt><trkpt lat="45.979186" lon="12.7453007"><ele>29.0</ele><time>2026-03-28T16:00:29.933Z</time></trkpt><trkpt lat="45.9791864" lon="12.7454163"><ele>29.0</ele><time>2026-03-28T16:00:30.933Z</time></trkpt><trkpt lat="45.9791907" lon="12.7455563"><ele>29.0</ele><time>2026-03-28T16:00:32.933Z</time></trkpt><trkpt lat="45.9791539" lon="12.7456354"><ele>29.0</ele><time>2026-03-28T16:00:34.933Z</time></trkpt><trkpt lat="45.9790602" lon="12.7456603"><ele>29.0</ele><time>2026-03-28T16:00:36.934Z</time></trkpt><trkpt lat="45.9789959" lon="12.7457558"><ele>29.0</ele><time>2026-03-28T16:00:38.933Z</time></trkpt><trkpt lat="45.9789541" lon="12.745891"><ele>29.0</ele><time>2026-03-28T16:00:40.934Z</time></trkpt><trkpt lat="45.9789136" lon="12.7460319"><ele>29.0</ele><time>2026-03-28T16:00:42.933Z</time></trkpt><trkpt lat="45.9788546" lon="12.7460816"><ele>29.0</ele><time>2026-03-28T16:00:44.934Z</time></trkpt><trkpt lat="45.9787974" lon="12.7460372"><ele>29.0</ele><time>2026-03-28T16:00:47.933Z</time></trkpt><trkpt lat="45.9788446" lon="12.745843"><ele>29.0</ele><time>2026-03-28T16:00:49.934Z</time></trkpt><trkpt lat="45.9788687" lon="12.745704"><ele>29.0</ele><time>2026-03-28T16:00:51.933Z</time></trkpt><trkpt lat="45.9789284" lon="12.7455879"><ele>29.0</ele><time>2026-03-28T16:00:53.933Z</time></trkpt><trkpt lat="45.9789908" lon="12.7454946"><ele>28.999999999999996</ele><time>2026-03-28T16:00:55.933Z</time></trkpt><trkpt lat="45.9790044" lon="12.7453726"><ele>29.0</ele><time>2026-03-28T16:00:57.933Z</time></trkpt><trkpt lat="45.9789359" lon="12.745371"><ele>29.0</ele><time>2026-03-28T16:00:58.933Z</time></trkpt><trkpt lat="45.978874" lon="12.7454588"><ele>29.0</ele><time>2026-03-28T16:01:01.934Z</time></trkpt><trkpt lat="45.9788371" lon="12.745538"><ele>28.999999999999996</ele><time>2026-03-28T16:01:02.933Z</time></trkpt><trkpt lat="45.9787299" lon="12.7455681"><ele>29.0</ele><time>2026-03-28T16:01:04.933Z</time></trkpt><trkpt lat="45.9786396" lon="12.745558"><ele>29.0</ele><time>2026-03-28T16:01:06.934Z</time></trkpt><trkpt lat="45.9785455" lon="12.7455669"><ele>29.0</ele><time>2026-03-28T16:01:08.933Z</time></trkpt><trkpt lat="45.9784658" lon="12.7455353"><ele>29.0</ele><time>2026-03-28T16:01:10.933Z</time></trkpt><trkpt lat="45.9784055" lon="12.7454559"><ele>29.0</ele><time>2026-03-28T16:01:12.933Z</time></trkpt><trkpt lat="45.9784255" lon="12.7453373"><ele>29.0</ele><time>2026-03-28T16:01:15.933Z</time></trkpt><trkpt lat="45.9785396" lon="12.7453287"><ele>29.0</ele><time>2026-03-28T16:01:17.934Z</time></trkpt><trkpt lat="45.9786516" lon="12.7453168"><ele>29.0</ele><time>2026-03-28T16:01:19.933Z</time></trkpt><trkpt lat="45.9787471" lon="12.7452849"><ele>29.0</ele><time>2026-03-28T16:01:21.933Z</time></trkpt><trkpt lat="45.9788469" lon="12.7452928"><ele>29.0</ele><time>2026-03-28T16:01:23.934Z</time></trkpt><trkpt lat="45.9789485" lon="12.7452254"><ele>29.0</ele><time>2026-03-28T16:01:25.933Z</time></trkpt><trkpt lat="45.9790047" lon="12.7451805"><ele>28.833333333333332</ele><time>2026-03-28T16:01:26.933Z</time></trkpt><trkpt lat="45.9790478" lon="12.7450658"><ele>28.666666666666664</ele><time>2026-03-28T16:01:28.933Z</time></trkpt><trkpt lat="45.9790203" lon="12.7449261"><ele>28.5</ele><time>2026-03-28T16:01:30.933Z</time></trkpt><trkpt lat="45.9790229" lon="12.7448137"><ele>28.333333333333336</ele><time>2026-03-28T16:01:32.934Z</time></trkpt><trkpt lat="45.9790541" lon="12.7447024"><ele>28.166666666666668</ele><time>2026-03-28T16:01:34.933Z</time></trkpt><trkpt lat="45.9791392" lon="12.7447197"><ele>28.0</ele><time>2026-03-28T16:01:36.933Z</time></trkpt><trkpt lat="45.9792264" lon="12.7446998"><ele>28.0</ele><time>2026-03-28T16:01:38.933Z</time></trkpt><trkpt lat="45.9792779" lon="12.7446025"><ele>27.999999999999996</ele><time>2026-03-28T16:01:40.933Z</time></trkpt><trkpt lat="45.9792291" lon="12.7444721"><ele>27.999999999999996</ele><time>2026-03-28T16:01:42.934Z</time></trkpt><trkpt lat="45.9791344" lon="12.74443"><ele>28.0</ele><time>2026-03-28T16:01:44.933Z</time></trkpt><trkpt lat="45.9790408" lon="12.7445115"><ele>28.0</ele><time>2026-03-28T16:01:46.934Z</time></trkpt><trkpt lat="45.9789837" lon="12.7445927"><ele>28.666666666666668</ele><time>2026-03-28T16:01:48.934Z</time></trkpt><trkpt lat="45.9789224" lon="12.7446995"><ele>29.333333333333336</ele><time>2026-03-28T16:01:50.933Z</time></trkpt><trkpt lat="45.9788992" lon="12.7448031"><ele>30.0</ele><time>2026-03-28T16:01:52.934Z</time></trkpt><trkpt lat="45.9788661" lon="12.7448836"><ele>30.666666666666664</ele><time>2026-03-28T16:01:53.934Z</time></trkpt><trkpt lat="45.9788133" lon="12.7449965"><ele>31.333333333333332</ele><time>2026-03-28T16:01:55.933Z</time></trkpt><trkpt lat="45.9787329" lon="12.7450668"><ele>32.0</ele><time>2026-03-28T16:01:57.934Z</time></trkpt><trkpt lat="45.9786448" lon="12.7451064"><ele>32.0</ele><time>2026-03-28T16:01:59.934Z</time></trkpt><trkpt lat="45.9785467" lon="12.7451616"><ele>32.0</ele><time>2026-03-28T16:02:01.932Z</time></trkpt><trkpt lat="45.9784595" lon="12.7451907"><ele>32.0</ele><time>2026-03-28T16:02:03.933Z</time></trkpt><trkpt lat="45.9783649" lon="12.7452339"><ele>32.0</ele><time>2026-03-28T16:02:05.933Z</time></trkpt><trkpt lat="45.9782822" lon="12.7453297"><ele>32.0</ele><time>2026-03-28T16:02:07.934Z</time></trkpt><trkpt lat="45.9782425" lon="12.745491"><ele>32.2</ele><time>2026-03-28T16:02:09.933Z</time></trkpt><trkpt lat="45.978229" lon="12.7456311"><ele>32.400000000000006</ele><time>2026-03-28T16:02:11.933Z</time></trkpt><trkpt lat="45.978238" lon="12.7457625"><ele>32.599999999999994</ele><time>2026-03-28T16:02:13.933Z</time></trkpt><trkpt lat="45.9782553" lon="12.7459287"><ele>32.8</ele><time>2026-03-28T16:02:15.933Z</time></trkpt><trkpt lat="45.9782608" lon="12.7460863"><ele>33.0</ele><time>2026-03-28T16:02:17.934Z</time></trkpt><trkpt lat="45.9782647" lon="12.7462242"><ele>32.5</ele><time>2026-03-28T16:02:19.934Z</time></trkpt><trkpt lat="45.9782895" lon="12.7463797"><ele>32.0</ele><time>2026-03-28T16:02:21.934Z</time></trkpt><trkpt lat="45.9783416" lon="12.746523"><ele>31.5</ele><time>2026-03-28T16:02:23.933Z</time></trkpt><trkpt lat="45.978419" lon="12.7466499"><ele>31.0</ele><time>2026-03-28T16:02:25.934Z</time></trkpt><trkpt lat="45.9785094" lon="12.746759"><ele>30.666666666666668</ele><time>2026-03-28T16:02:27.933Z</time></trkpt><trkpt lat="45.9785906" lon="12.746875"><ele>30.333333333333336</ele><time>2026-03-28T16:02:29.934Z</time></trkpt><trkpt lat="45.9786302" lon="12.74695"><ele>30.0</ele><time>2026-03-28T16:02:30.934Z</time></trkpt><trkpt lat="45.9786701" lon="12.7470255"><ele>29.666666666666664</ele><time>2026-03-28T16:02:31.934Z</time></trkpt><trkpt lat="45.9787613" lon="12.7471262"><ele>29.333333333333332</ele><time>2026-03-28T16:02:33.933Z</time></trkpt><trkpt lat="45.9788284" lon="12.7471492"><ele>29.0</ele><time>2026-03-28T16:02:36.933Z</time></trkpt><trkpt lat="45.9789055" lon="12.7471021"><ele>28.999999999999996</ele><time>2026-03-28T16:02:40.934Z</time></trkpt><trkpt lat="45.9789771" lon="12.7471053"><ele>29.0</ele><time>2026-03-28T16:02:43.933Z</time></trkpt><trkpt lat="45.9790297" lon="12.7471607"><ele>29.0</ele><time>2026-03-28T16:02:46.934Z</time></trkpt><trkpt lat="45.9790649" lon="12.7472519"><ele>29.0</ele><time>2026-03-28T16:02:48.934Z</time></trkpt><trkpt lat="45.9791333" lon="12.7473614"><ele>28.999999999999996</ele><time>2026-03-28T16:02:50.934Z</time></trkpt><trkpt lat="45.979219" lon="12.7474784"><ele>29.0</ele><time>2026-03-28T16:02:52.933Z</time></trkpt><trkpt lat="45.9792675" lon="12.7475407"><ele>29.499999999999996</ele><time>2026-03-28T16:02:53.933Z</time></trkpt><trkpt lat="45.9793195" lon="12.747596"><ele>30.0</ele><time>2026-03-28T16:02:54.933Z</time></trkpt><trkpt lat="45.979389" lon="12.7476774"><ele>30.5</ele><time>2026-03-28T16:02:56.933Z</time></trkpt><trkpt lat="45.979412" lon="12.7478075"><ele>31.0</ele><time>2026-03-28T16:02:58.933Z</time></trkpt><trkpt lat="45.9794591" lon="12.747905"><ele>31.499999999999996</ele><time>2026-03-28T16:03:00.933Z</time></trkpt><trkpt lat="45.9795678" lon="12.7479451"><ele>32.0</ele><time>2026-03-28T16:03:02.934Z</time></trkpt><trkpt lat="45.9796819" lon="12.7479674"><ele>32.0</ele><time>2026-03-28T16:03:04.934Z</time></trkpt><trkpt lat="45.9797557" lon="12.7479567"><ele>32.0</ele><time>2026-03-28T16:03:05.933Z</time></trkpt><trkpt lat="45.9798599" lon="12.7479118"><ele>32.0</ele><time>2026-03-28T16:03:06.933Z</time></trkpt><trkpt lat="45.9799763" lon="12.7478811"><ele>32.0</ele><time>2026-03-28T16:03:08.933Z</time></trkpt><trkpt lat="45.9800329" lon="12.7477794"><ele>32.0</ele><time>2026-03-28T16:03:10.933Z</time></trkpt><trkpt lat="45.9800692" lon="12.7476297"><ele>32.166666666666664</ele><time>2026-03-28T16:03:12.934Z</time></trkpt><trkpt lat="45.9800679" lon="12.7474921"><ele>32.33333333333333</ele><time>2026-03-28T16:03:14.933Z</time></trkpt><trkpt lat="45.980135" lon="12.7474169"><ele>32.5</ele><time>2026-03-28T16:03:17.933Z</time></trkpt><trkpt lat="45.9802168" lon="12.7473761"><ele>32.666666666666664</ele><time>2026-03-28T16:03:19.933Z</time></trkpt><trkpt lat="45.9803063" lon="12.7473516"><ele>32.833333333333336</ele><time>2026-03-28T16:03:21.934Z</time></trkpt><trkpt lat="45.9803713" lon="12.7472821"><ele>33.0</ele><time>2026-03-28T16:03:23.933Z</time></trkpt><trkpt lat="45.9804203" lon="12.7472184"><ele>33.0</ele><time>2026-03-28T16:03:24.934Z</time></trkpt><trkpt lat="45.9805043" lon="12.747189"><ele>33.0</ele><time>2026-03-28T16:03:26.934Z</time></trkpt><trkpt lat="45.9805813" lon="12.7472278"><ele>33.0</ele><time>2026-03-28T16:03:28.934Z</time></trkpt><trkpt lat="45.980675" lon="12.7473215"><ele>33.0</ele><time>2026-03-28T16:03:30.933Z</time></trkpt><trkpt lat="45.9807683" lon="12.747371"><ele>33.0</ele><time>2026-03-28T16:03:32.933Z</time></trkpt><trkpt lat="45.9808367" lon="12.7474004"><ele>33.0</ele><time>2026-03-28T16:03:34.934Z</time></trkpt><trkpt lat="45.980924" lon="12.7473902"><ele>33.0</ele><time>2026-03-28T16:03:36.933Z</time></trkpt><trkpt lat="45.9810047" lon="12.7473677"><ele>33.0</ele><time>2026-03-28T16:03:38.934Z</time></trkpt><trkpt lat="45.9810798" lon="12.7474263"><ele>33.0</ele><time>2026-03-28T16:03:40.933Z</time></trkpt><trkpt lat="45.9810849" lon="12.7475687"><ele>33.0</ele><time>2026-03-28T16:03:42.933Z</time></trkpt><trkpt lat="45.981057" lon="12.7476519"><ele>33.0</ele><time>2026-03-28T16:03:43.934Z</time></trkpt><trkpt lat="45.980978" lon="12.7477505"><ele>33.0</ele><time>2026-03-28T16:03:44.933Z</time></trkpt><trkpt lat="45.9809258" lon="12.747893"><ele>33.0</ele><time>2026-03-28T16:03:46.934Z</time></trkpt><trkpt lat="45.9808893" lon="12.7480364"><ele>33.0</ele><time>2026-03-28T16:03:48.934Z</time></trkpt><trkpt lat="45.9809201" lon="12.7481312"><ele>33.0</ele><time>2026-03-28T16:03:50.933Z</time></trkpt><trkpt lat="45.9809981" lon="12.7481511"><ele>33.0</ele><time>2026-03-28T16:03:52.933Z</time></trkpt><trkpt lat="45.9810931" lon="12.7480734"><ele>33.0</ele><time>2026-03-28T16:03:54.934Z</time></trkpt><trkpt lat="45.981192" lon="12.7480493"><ele>33.0</ele><time>2026-03-28T16:03:56.934Z</time></trkpt><trkpt lat="45.9812531" lon="12.7481632"><ele>33.0</ele><time>2026-03-28T16:03:58.934Z</time></trkpt><trkpt lat="45.9812299" lon="12.7482787"><ele>33.0</ele><time>2026-03-28T16:04:00.934Z</time></trkpt><trkpt lat="45.9811729" lon="12.7483595"><ele>33.0</ele><time>2026-03-28T16:04:01.934Z</time></trkpt><trkpt lat="45.9811262" lon="12.7484348"><ele>33.0</ele><time>2026-03-28T16:04:02.933Z</time></trkpt><trkpt lat="45.9810783" lon="12.7485008"><ele>33.166666666666664</ele><time>2026-03-28T16:04:03.933Z</time></trkpt><trkpt lat="45.981011" lon="12.7485934"><ele>33.333333333333336</ele><time>2026-03-28T16:04:05.933Z</time></trkpt><trkpt lat="45.9809532" lon="12.7486583"><ele>33.5</ele><time>2026-03-28T16:04:07.934Z</time></trkpt><trkpt lat="45.9809051" lon="12.7487338"><ele>33.66666666666667</ele><time>2026-03-28T16:04:10.933Z</time></trkpt><trkpt lat="45.9808499" lon="12.7487915"><ele>33.833333333333336</ele><time>2026-03-28T16:04:13.934Z</time></trkpt><trkpt lat="45.9807718" lon="12.748755"><ele>34.0</ele><time>2026-03-28T16:04:17.932Z</time></trkpt><trkpt lat="45.9807143" lon="12.7486854"><ele>33.6</ele><time>2026-03-28T16:04:19.933Z</time></trkpt><trkpt lat="45.9806459" lon="12.7486345"><ele>33.2</ele><time>2026-03-28T16:04:21.934Z</time></trkpt><trkpt lat="45.9805449" lon="12.7486038"><ele>32.800000000000004</ele><time>2026-03-28T16:04:23.933Z</time></trkpt><trkpt lat="45.9804333" lon="12.7485607"><ele>32.4</ele><time>2026-03-28T16:04:25.933Z</time></trkpt><trkpt lat="45.9803296" lon="12.7484985"><ele>32.0</ele><time>2026-03-28T16:04:27.933Z</time></trkpt><trkpt lat="45.9802716" lon="12.7484628"><ele>32.0</ele><time>2026-03-28T16:04:28.933Z</time></trkpt><trkpt lat="45.9802084" lon="12.7484265"><ele>32.0</ele><time>2026-03-28T16:04:29.934Z</time></trkpt><trkpt lat="45.9800855" lon="12.7483788"><ele>32.0</ele><time>2026-03-28T16:04:31.933Z</time></trkpt><trkpt lat="45.9799692" lon="12.7483907"><ele>32.0</ele><time>2026-03-28T16:04:33.933Z</time></trkpt><trkpt lat="45.9798717" lon="12.7484028"><ele>32.0</ele><time>2026-03-28T16:04:35.934Z</time></trkpt><trkpt lat="45.9798008" lon="12.7483818"><ele>32.166666666666664</ele><time>2026-03-28T16:04:37.933Z</time></trkpt><trkpt lat="45.9797237" lon="12.7483212"><ele>32.33333333333333</ele><time>2026-03-28T16:04:40.934Z</time></trkpt><trkpt lat="45.9796539" lon="12.7482884"><ele>32.5</ele><time>2026-03-28T16:04:42.933Z</time></trkpt><trkpt lat="45.9795879" lon="12.7482324"><ele>32.666666666666664</ele><time>2026-03-28T16:04:44.934Z</time></trkpt><trkpt lat="45.9795326" lon="12.7481577"><ele>32.833333333333336</ele><time>2026-03-28T16:04:48.933Z</time></trkpt><trkpt lat="45.9795375" lon="12.7480384"><ele>33.0</ele><time>2026-03-28T16:05:02.933Z</time></trkpt><trkpt lat="45.9795287" lon="12.7479301"><ele>33.0</ele><time>2026-03-28T16:05:06.933Z</time></trkpt><trkpt lat="45.9794566" lon="12.7478572"><ele>33.0</ele><time>2026-03-28T16:05:09.934Z</time></trkpt><trkpt lat="45.9794355" lon="12.7477623"><ele>33.0</ele><time>2026-03-28T16:05:11.933Z</time></trkpt><trkpt lat="45.9794391" lon="12.7476543"><ele>33.0</ele><time>2026-03-28T16:05:13.934Z</time></trkpt><trkpt lat="45.9794392" lon="12.7475586"><ele>33.0</ele><time>2026-03-28T16:05:15.934Z</time></trkpt><trkpt lat="45.9793834" lon="12.7474924"><ele>33.0</ele><time>2026-03-28T16:05:16.934Z</time></trkpt><trkpt lat="45.9793404" lon="12.7473733"><ele>32.8</ele><time>2026-03-28T16:05:18.933Z</time></trkpt><trkpt lat="45.9793423" lon="12.7472277"><ele>32.599999999999994</ele><time>2026-03-28T16:05:20.934Z</time></trkpt><trkpt lat="45.9793456" lon="12.7471291"><ele>32.400000000000006</ele><time>2026-03-28T16:05:21.933Z</time></trkpt><trkpt lat="45.9793528" lon="12.7470332"><ele>32.2</ele><time>2026-03-28T16:05:22.934Z</time></trkpt><trkpt lat="45.97937" lon="12.746862"><ele>32.0</ele><time>2026-03-28T16:05:24.934Z</time></trkpt><trkpt lat="45.9793938" lon="12.7467143"><ele>31.6</ele><time>2026-03-28T16:05:26.934Z</time></trkpt><trkpt lat="45.9794123" lon="12.7465446"><ele>31.200000000000003</ele><time>2026-03-28T16:05:28.933Z</time></trkpt><trkpt lat="45.9794156" lon="12.7464319"><ele>30.8</ele><time>2026-03-28T16:05:29.933Z</time></trkpt><trkpt lat="45.9794115" lon="12.7463327"><ele>30.4</ele><time>2026-03-28T16:05:30.933Z</time></trkpt><trkpt lat="45.9793956" lon="12.746195"><ele>30.0</ele><time>2026-03-28T16:05:31.933Z</time></trkpt><trkpt lat="45.9793815" lon="12.7460705"><ele>29.833333333333332</ele><time>2026-03-28T16:05:32.933Z</time></trkpt><trkpt lat="45.9793721" lon="12.7459303"><ele>29.666666666666664</ele><time>2026-03-28T16:05:33.933Z</time></trkpt><trkpt lat="45.9793704" lon="12.745787"><ele>29.5</ele><time>2026-03-28T16:05:34.933Z</time></trkpt><trkpt lat="45.9793704" lon="12.7456576"><ele>29.333333333333332</ele><time>2026-03-28T16:05:35.934Z</time></trkpt><trkpt lat="45.9793681" lon="12.7455435"><ele>29.166666666666664</ele><time>2026-03-28T16:05:36.934Z</time></trkpt><trkpt lat="45.9793597" lon="12.7454336"><ele>29.0</ele><time>2026-03-28T16:05:37.934Z</time></trkpt><trkpt lat="45.9793418" lon="12.7453308"><ele>29.0</ele><time>2026-03-28T16:05:38.933Z</time></trkpt><trkpt lat="45.9793191" lon="12.7452383"><ele>29.0</ele><time>2026-03-28T16:05:39.934Z</time></trkpt><trkpt lat="45.9792783" lon="12.7450884"><ele>29.0</ele><time>2026-03-28T16:05:41.934Z</time></trkpt><trkpt lat="45.9792098" lon="12.7450588"><ele>29.0</ele><time>2026-03-28T16:05:43.934Z</time></trkpt><trkpt lat="45.9791692" lon="12.7451925"><ele>29.0</ele><time>2026-03-28T16:05:46.933Z</time></trkpt><trkpt lat="45.9791808" lon="12.745384"><ele>29.0</ele><time>2026-03-28T16:05:48.934Z</time></trkpt><trkpt lat="45.979187" lon="12.7455431"><ele>29.0</ele><time>2026-03-28T16:05:50.934Z</time></trkpt><trkpt lat="45.9791262" lon="12.7456382"><ele>29.0</ele><time>2026-03-28T16:05:53.934Z</time></trkpt><trkpt lat="45.9790174" lon="12.7457093"><ele>29.0</ele><time>2026-03-28T16:05:55.934Z</time></trkpt><trkpt lat="45.9789754" lon="12.7458369"><ele>29.0</ele><time>2026-03-28T16:05:57.933Z</time></trkpt><trkpt lat="45.9789396" lon="12.7459661"><ele>28.999999999999996</ele><time>2026-03-28T16:05:59.934Z</time></trkpt><trkpt lat="45.9788883" lon="12.7460518"><ele>29.0</ele><time>2026-03-28T16:06:01.934Z</time></trkpt><trkpt lat="45.9788332" lon="12.74599"><ele>29.0</ele><time>2026-03-28T16:06:04.933Z</time></trkpt><trkpt lat="45.9788494" lon="12.7458565"><ele>29.0</ele><time>2026-03-28T16:06:06.934Z</time></trkpt><trkpt lat="45.9788495" lon="12.7457451"><ele>28.999999999999996</ele><time>2026-03-28T16:06:08.933Z</time></trkpt><trkpt lat="45.9789188" lon="12.7456102"><ele>29.0</ele><time>2026-03-28T16:06:10.934Z</time></trkpt><trkpt lat="45.9789772" lon="12.7455267"><ele>29.0</ele><time>2026-03-28T16:06:12.933Z</time></trkpt><trkpt lat="45.9789868" lon="12.7454106"><ele>29.0</ele><time>2026-03-28T16:06:14.933Z</time></trkpt><trkpt lat="45.9789" lon="12.7454151"><ele>29.0</ele><time>2026-03-28T16:06:17.934Z</time></trkpt><trkpt lat="45.9788417" lon="12.7455398"><ele>29.0</ele><time>2026-03-28T16:06:20.934Z</time></trkpt><trkpt lat="45.9787832" lon="12.7455967"><ele>29.0</ele><time>2026-03-28T16:06:21.934Z</time></trkpt><trkpt lat="45.9786771" lon="12.745574"><ele>28.999999999999996</ele><time>2026-03-28T16:06:23.933Z</time></trkpt><trkpt lat="45.9785853" lon="12.745566"><ele>29.0</ele><time>2026-03-28T16:06:25.934Z</time></trkpt><trkpt lat="45.9784898" lon="12.7455364"><ele>29.0</ele><time>2026-03-28T16:06:27.934Z</time></trkpt><trkpt lat="45.9784197" lon="12.7454787"><ele>29.0</ele><time>2026-03-28T16:06:29.933Z</time></trkpt><trkpt lat="45.9784182" lon="12.7453502"><ele>28.999999999999996</ele><time>2026-03-28T16:06:32.933Z</time></trkpt><trkpt lat="45.9784793" lon="12.7453159"><ele>29.0</ele><time>2026-03-28T16:06:34.933Z</time></trkpt><trkpt lat="45.9786108" lon="12.7453258"><ele>29.0</ele><time>2026-03-28T16:06:36.933Z</time></trkpt><trkpt lat="45.978718" lon="12.745289"><ele>29.0</ele><time>2026-03-28T16:06:38.934Z</time></trkpt><trkpt lat="45.9787894" lon="12.7452728"><ele>29.0</ele><time>2026-03-28T16:06:39.934Z</time></trkpt><trkpt lat="45.9788679" lon="12.7452538"><ele>29.0</ele><time>2026-03-28T16:06:41.933Z</time></trkpt><trkpt lat="45.9789723" lon="12.7451892"><ele>29.0</ele><time>2026-03-28T16:06:43.933Z</time></trkpt><trkpt lat="45.979024" lon="12.7450821"><ele>28.833333333333332</ele><time>2026-03-28T16:06:45.933Z</time></trkpt><trkpt lat="45.9790262" lon="12.7449488"><ele>28.666666666666664</ele><time>2026-03-28T16:06:47.934Z</time></trkpt><trkpt lat="45.9790102" lon="12.7448235"><ele>28.5</ele><time>2026-03-28T16:06:49.934Z</time></trkpt><trkpt lat="45.9790739" lon="12.7447575"><ele>28.333333333333336</ele><time>2026-03-28T16:06:51.933Z</time></trkpt><trkpt lat="45.9791496" lon="12.7447533"><ele>28.166666666666668</ele><time>2026-03-28T16:06:53.933Z</time></trkpt><trkpt lat="45.979227" lon="12.7447339"><ele>28.0</ele><time>2026-03-28T16:06:55.933Z</time></trkpt><trkpt lat="45.9792933" lon="12.7446571"><ele>28.0</ele><time>2026-03-28T16:06:57.933Z</time></trkpt><trkpt lat="45.9792606" lon="12.7445431"><ele>27.999999999999996</ele><time>2026-03-28T16:06:58.933Z</time></trkpt><trkpt lat="45.979143" lon="12.7444524"><ele>27.999999999999996</ele><time>2026-03-28T16:07:00.933Z</time></trkpt><trkpt lat="45.9790485" lon="12.7444712"><ele>28.0</ele><time>2026-03-28T16:07:02.933Z</time></trkpt><trkpt lat="45.9789699" lon="12.7445774"><ele>28.0</ele><time>2026-03-28T16:07:04.933Z</time></trkpt><trkpt lat="45.978925" lon="12.7446771"><ele>28.799999999999997</ele><time>2026-03-28T16:07:06.934Z</time></trkpt><trkpt lat="45.9788959" lon="12.7447742"><ele>29.599999999999998</ele><time>2026-03-28T16:07:08.933Z</time></trkpt><trkpt lat="45.9788768" lon="12.7448675"><ele>30.400000000000002</ele><time>2026-03-28T16:07:09.934Z</time></trkpt><trkpt lat="45.9788193" lon="12.745012"><ele>31.200000000000003</ele><time>2026-03-28T16:07:11.933Z</time></trkpt><trkpt lat="45.9787416" lon="12.7450792"><ele>32.0</ele><time>2026-03-28T16:07:13.934Z</time></trkpt><trkpt lat="45.9786271" lon="12.7451389"><ele>32.0</ele><time>2026-03-28T16:07:15.933Z</time></trkpt><trkpt lat="45.9785207" lon="12.7451605"><ele>32.0</ele><time>2026-03-28T16:07:17.933Z</time></trkpt><trkpt lat="45.978417" lon="12.7452181"><ele>32.0</ele><time>2026-03-28T16:07:19.933Z</time></trkpt><trkpt lat="45.9783578" lon="12.7452545"><ele>32.0</ele><time>2026-03-28T16:07:20.934Z</time></trkpt><trkpt lat="45.9783012" lon="12.7453031"><ele>32.0</ele><time>2026-03-28T16:07:21.933Z</time></trkpt><trkpt lat="45.9782618" lon="12.7454431"><ele>32.2</ele><time>2026-03-28T16:07:23.934Z</time></trkpt><trkpt lat="45.9782355" lon="12.7455982"><ele>32.400000000000006</ele><time>2026-03-28T16:07:25.933Z</time></trkpt><trkpt lat="45.9782665" lon="12.7457464"><ele>32.599999999999994</ele><time>2026-03-28T16:07:27.933Z</time></trkpt><trkpt lat="45.978286" lon="12.7459077"><ele>32.8</ele><time>2026-03-28T16:07:29.934Z</time></trkpt><trkpt lat="45.9782804" lon="12.7460028"><ele>33.0</ele><time>2026-03-28T16:07:30.934Z</time></trkpt><trkpt lat="45.9782899" lon="12.7461664"><ele>32.6</ele><time>2026-03-28T16:07:32.933Z</time></trkpt><trkpt lat="45.9783026" lon="12.7463413"><ele>32.199999999999996</ele><time>2026-03-28T16:07:34.934Z</time></trkpt><trkpt lat="45.9783088" lon="12.7464323"><ele>31.8</ele><time>2026-03-28T16:07:35.934Z</time></trkpt><trkpt lat="45.9783614" lon="12.7465713"><ele>31.4</ele><time>2026-03-28T16:07:37.933Z</time></trkpt><trkpt lat="45.9784195" lon="12.746638"><ele>31.0</ele><time>2026-03-28T16:07:39.933Z</time></trkpt><trkpt lat="45.9785004" lon="12.7467482"><ele>30.666666666666668</ele><time>2026-03-28T16:07:41.933Z</time></trkpt><trkpt lat="45.9785692" lon="12.7468733"><ele>30.333333333333336</ele><time>2026-03-28T16:07:43.934Z</time></trkpt><trkpt lat="45.9786262" lon="12.746946"><ele>30.0</ele><time>2026-03-28T16:07:44.933Z</time></trkpt><trkpt lat="45.9786757" lon="12.7470188"><ele>29.666666666666664</ele><time>2026-03-28T16:07:45.934Z</time></trkpt><trkpt lat="45.978748" lon="12.7471"><ele>29.333333333333332</ele><time>2026-03-28T16:07:47.934Z</time></trkpt><trkpt lat="45.9788347" lon="12.7471526"><ele>29.0</ele><time>2026-03-28T16:07:50.933Z</time></trkpt><trkpt lat="45.9789002" lon="12.7471352"><ele>28.999999999999996</ele><time>2026-03-28T16:07:52.933Z</time></trkpt><trkpt lat="45.9789794" lon="12.7471097"><ele>29.0</ele><time>2026-03-28T16:07:56.933Z</time></trkpt><trkpt lat="45.9790489" lon="12.7471167"><ele>29.0</ele><time>2026-03-28T16:07:58.933Z</time></trkpt><trkpt lat="45.9790967" lon="12.7471881"><ele>29.0</ele><time>2026-03-28T16:08:00.933Z</time></trkpt><trkpt lat="45.9791024" lon="12.7473156"><ele>28.999999999999996</ele><time>2026-03-28T16:08:02.934Z</time></trkpt><trkpt lat="45.9791324" lon="12.7474435"><ele>29.0</ele><time>2026-03-28T16:08:04.934Z</time></trkpt><trkpt lat="45.9791955" lon="12.7475127"><ele>29.499999999999996</ele><time>2026-03-28T16:08:05.934Z</time></trkpt><trkpt lat="45.9792681" lon="12.7476247"><ele>30.0</ele><time>2026-03-28T16:08:07.933Z</time></trkpt><trkpt lat="45.9793657" lon="12.7476959"><ele>30.5</ele><time>2026-03-28T16:08:09.933Z</time></trkpt><trkpt lat="45.9794395" lon="12.7477465"><ele>31.0</ele><time>2026-03-28T16:08:12.934Z</time></trkpt><trkpt lat="45.9794426" lon="12.7478572"><ele>31.499999999999996</ele><time>2026-03-28T16:08:15.933Z</time></trkpt><trkpt lat="45.9794903" lon="12.747936"><ele>32.0</ele><time>2026-03-28T16:21:36.932Z</time></trkpt><trkpt lat="45.979559" lon="12.7479542"><ele>31.999999999999996</ele><time>2026-03-28T16:21:37.933Z</time></trkpt><trkpt lat="45.9796255" lon="12.7479551"><ele>32.0</ele><time>2026-03-28T16:21:38.933Z</time></trkpt><trkpt lat="45.9796919" lon="12.7479495"><ele>32.0</ele><time>2026-03-28T16:21:39.932Z</time></trkpt><trkpt lat="45.9797671" lon="12.7479288"><ele>32.0</ele><time>2026-03-28T16:21:40.932Z</time></trkpt><trkpt lat="45.979836" lon="12.7479143"><ele>31.999999999999996</ele><time>2026-03-28T16:21:41.933Z</time></trkpt><trkpt lat="45.9799433" lon="12.7478755"><ele>32.0</ele><time>2026-03-28T16:21:43.933Z</time></trkpt><trkpt lat="45.9800254" lon="12.7477792"><ele>32.166666666666664</ele><time>2026-03-28T16:21:45.933Z</time></trkpt><trkpt lat="45.9800453" lon="12.7476396"><ele>32.33333333333333</ele><time>2026-03-28T16:21:47.933Z</time></trkpt><trkpt lat="45.9800483" lon="12.7474952"><ele>32.5</ele><time>2026-03-28T16:21:49.932Z</time></trkpt><trkpt lat="45.9801054" lon="12.7474246"><ele>32.666666666666664</ele><time>2026-03-28T16:21:52.931Z</time></trkpt><trkpt lat="45.9801738" lon="12.7473931"><ele>32.833333333333336</ele><time>2026-03-28T16:21:54.932Z</time></trkpt><trkpt lat="45.9802598" lon="12.7473668"><ele>33.0</ele><time>2026-03-28T16:21:56.932Z</time></trkpt><trkpt lat="45.9803319" lon="12.7473106"><ele>33.0</ele><time>2026-03-28T16:21:58.933Z</time></trkpt><trkpt lat="45.980417" lon="12.7472165"><ele>33.0</ele><time>2026-03-28T16:22:00.933Z</time></trkpt><trkpt lat="45.9804874" lon="12.7471734"><ele>33.0</ele><time>2026-03-28T16:22:02.933Z</time></trkpt><trkpt lat="45.9805656" lon="12.7472422"><ele>33.0</ele><time>2026-03-28T16:22:04.933Z</time></trkpt><trkpt lat="45.9806577" lon="12.7473115"><ele>33.0</ele><time>2026-03-28T16:22:06.933Z</time></trkpt><trkpt lat="45.9807432" lon="12.7473777"><ele>33.0</ele><time>2026-03-28T16:22:08.933Z</time></trkpt><trkpt lat="45.9808239" lon="12.7474075"><ele>33.0</ele><time>2026-03-28T16:22:10.932Z</time></trkpt><trkpt lat="45.9808901" lon="12.7473998"><ele>33.0</ele><time>2026-03-28T16:22:12.932Z</time></trkpt><trkpt lat="45.9809704" lon="12.7473999"><ele>33.0</ele><time>2026-03-28T16:22:14.932Z</time></trkpt><trkpt lat="45.9810247" lon="12.7474736"><ele>33.0</ele><time>2026-03-28T16:22:16.932Z</time></trkpt><trkpt lat="45.9810373" lon="12.7475782"><ele>33.0</ele><time>2026-03-28T16:22:18.932Z</time></trkpt><trkpt lat="45.9810011" lon="12.747698"><ele>33.0</ele><time>2026-03-28T16:22:21.932Z</time></trkpt><trkpt lat="45.9809428" lon="12.7478263"><ele>33.0</ele><time>2026-03-28T16:22:23.932Z</time></trkpt><trkpt lat="45.9808914" lon="12.7479582"><ele>33.0</ele><time>2026-03-28T16:22:25.932Z</time></trkpt><trkpt lat="45.9808892" lon="12.7480786"><ele>33.0</ele><time>2026-03-28T16:22:27.932Z</time></trkpt><trkpt lat="45.9809355" lon="12.7481415"><ele>33.0</ele><time>2026-03-28T16:22:29.932Z</time></trkpt><trkpt lat="45.9810199" lon="12.748127"><ele>33.0</ele><time>2026-03-28T16:22:31.932Z</time></trkpt><trkpt lat="45.9811061" lon="12.7480643"><ele>33.0</ele><time>2026-03-28T16:22:33.931Z</time></trkpt><trkpt lat="45.9811876" lon="12.7480713"><ele>33.0</ele><time>2026-03-28T16:22:35.931Z</time></trkpt><trkpt lat="45.9812356" lon="12.7481597"><ele>33.0</ele><time>2026-03-28T16:22:37.931Z</time></trkpt><trkpt lat="45.9812168" lon="12.7482786"><ele>33.0</ele><time>2026-03-28T16:22:39.931Z</time></trkpt><trkpt lat="45.9811638" lon="12.7484036"><ele>33.0</ele><time>2026-03-28T16:22:41.931Z</time></trkpt><trkpt lat="45.9811137" lon="12.7484698"><ele>33.0</ele><time>2026-03-28T16:22:42.931Z</time></trkpt><trkpt lat="45.9810327" lon="12.7485685"><ele>33.14285714285714</ele><time>2026-03-28T16:22:44.931Z</time></trkpt><trkpt lat="45.9809735" lon="12.7486266"><ele>33.285714285714285</ele><time>2026-03-28T16:22:46.931Z</time></trkpt><trkpt lat="45.9809334" lon="12.7486977"><ele>33.42857142857143</ele><time>2026-03-28T16:22:48.931Z</time></trkpt><trkpt lat="45.9808879" lon="12.7487727"><ele>33.57142857142857</ele><time>2026-03-28T16:22:51.931Z</time></trkpt><trkpt lat="45.9808221" lon="12.748798"><ele>33.714285714285715</ele><time>2026-03-28T16:23:50.931Z</time></trkpt><trkpt lat="45.9807602" lon="12.748781"><ele>33.857142857142854</ele><time>2026-03-28T16:24:03.932Z</time></trkpt><trkpt lat="45.9807033" lon="12.7487263"><ele>34.0</ele><time>2026-03-28T16:24:06.932Z</time></trkpt><trkpt lat="45.9806082" lon="12.7486904"><ele>33.6</ele><time>2026-03-28T16:24:09.932Z</time></trkpt><trkpt lat="45.9805615" lon="12.7486047"><ele>33.2</ele><time>2026-03-28T16:24:10.932Z</time></trkpt><trkpt lat="45.9804626" lon="12.7485713"><ele>32.800000000000004</ele><time>2026-03-28T16:24:12.931Z</time></trkpt><trkpt lat="45.9803636" lon="12.7484934"><ele>32.4</ele><time>2026-03-28T16:24:14.931Z</time></trkpt><trkpt lat="45.9803026" lon="12.7484606"><ele>32.0</ele><time>2026-03-28T16:24:15.931Z</time></trkpt><trkpt lat="45.9801906" lon="12.7484177"><ele>32.0</ele><time>2026-03-28T16:24:17.931Z</time></trkpt><trkpt lat="45.9801021" lon="12.7483734"><ele>32.0</ele><time>2026-03-28T16:24:19.931Z</time></trkpt><trkpt lat="45.9799908" lon="12.7483798"><ele>32.0</ele><time>2026-03-28T16:24:21.931Z</time></trkpt><trkpt lat="45.979895" lon="12.7484202"><ele>32.0</ele><time>2026-03-28T16:24:23.931Z</time></trkpt><trkpt lat="45.9798291" lon="12.7483927"><ele>32.0</ele><time>2026-03-28T16:24:25.931Z</time></trkpt><trkpt lat="45.9797627" lon="12.7483379"><ele>32.166666666666664</ele><time>2026-03-28T16:24:28.931Z</time></trkpt><trkpt lat="45.9796735" lon="12.7483634"><ele>32.33333333333333</ele><time>2026-03-28T16:24:32.932Z</time></trkpt><trkpt lat="45.9796094" lon="12.748284"><ele>32.5</ele><time>2026-03-28T16:24:34.931Z</time></trkpt><trkpt lat="45.979557" lon="12.7482153"><ele>32.666666666666664</ele><time>2026-03-28T16:24:36.932Z</time></trkpt><trkpt lat="45.9795258" lon="12.7481216"><ele>32.833333333333336</ele><time>2026-03-28T16:24:40.931Z</time></trkpt><trkpt lat="45.9795572" lon="12.7480307"><ele>33.0</ele><time>2026-03-28T16:24:43.931Z</time></trkpt><trkpt lat="45.9795588" lon="12.7479246"><ele>33.0</ele><time>2026-03-28T16:24:46.931Z</time></trkpt><trkpt lat="45.9795041" lon="12.7478774"><ele>33.0</ele><time>2026-03-28T16:24:48.932Z</time></trkpt><trkpt lat="45.9794557" lon="12.7477984"><ele>33.0</ele><time>2026-03-28T16:24:51.932Z</time></trkpt><trkpt lat="45.9794381" lon="12.747696"><ele>33.0</ele><time>2026-03-28T16:24:54.931Z</time></trkpt><trkpt lat="45.9794378" lon="12.7475986"><ele>33.0</ele><time>2026-03-28T16:24:56.932Z</time></trkpt><trkpt lat="45.97938" lon="12.7475074"><ele>33.0</ele><time>2026-03-28T16:24:59.932Z</time></trkpt><trkpt lat="45.9793399" lon="12.7473755"><ele>32.8</ele><time>2026-03-28T16:25:01.931Z</time></trkpt><trkpt lat="45.9793333" lon="12.7472286"><ele>32.599999999999994</ele><time>2026-03-28T16:25:02.932Z</time></trkpt><trkpt lat="45.9793209" lon="12.7471157"><ele>32.400000000000006</ele><time>2026-03-28T16:25:03.93Z</time></trkpt><trkpt lat="45.9793596" lon="12.7469457"><ele>32.2</ele><time>2026-03-28T16:25:05.931Z</time></trkpt><trkpt lat="45.9793922" lon="12.7467734"><ele>32.0</ele><time>2026-03-28T16:25:07.931Z</time></trkpt><trkpt lat="45.9794158" lon="12.7466302"><ele>31.666666666666664</ele><time>2026-03-28T16:25:09.931Z</time></trkpt><trkpt lat="45.9794062" lon="12.7465336"><ele>31.333333333333332</ele><time>2026-03-28T16:25:10.931Z</time></trkpt><trkpt lat="45.9794101" lon="12.7464242"><ele>31.0</ele><time>2026-03-28T16:25:11.932Z</time></trkpt><trkpt lat="45.9794038" lon="12.746317"><ele>30.666666666666664</ele><time>2026-03-28T16:25:12.932Z</time></trkpt><trkpt lat="45.9793834" lon="12.7461919"><ele>30.333333333333332</ele><time>2026-03-28T16:25:13.931Z</time></trkpt><trkpt lat="45.9793712" lon="12.7460447"><ele>30.0</ele><time>2026-03-28T16:25:14.932Z</time></trkpt><trkpt lat="45.9793711" lon="12.7458955"><ele>29.833333333333332</ele><time>2026-03-28T16:25:15.931Z</time></trkpt><trkpt lat="45.97937" lon="12.7457483"><ele>29.666666666666664</ele><time>2026-03-28T16:25:16.931Z</time></trkpt><trkpt lat="45.9793747" lon="12.7456122"><ele>29.5</ele><time>2026-03-28T16:25:17.932Z</time></trkpt><trkpt lat="45.9793667" lon="12.7455017"><ele>29.333333333333332</ele><time>2026-03-28T16:25:18.931Z</time></trkpt><trkpt lat="45.9793519" lon="12.7453943"><ele>29.166666666666664</ele><time>2026-03-28T16:25:19.931Z</time></trkpt><trkpt lat="45.9793287" lon="12.7453008"><ele>29.0</ele><time>2026-03-28T16:25:20.931Z</time></trkpt><trkpt lat="45.9793069" lon="12.7451964"><ele>29.0</ele><time>2026-03-28T16:25:21.931Z</time></trkpt><trkpt lat="45.9792701" lon="12.7450548"><ele>29.0</ele><time>2026-03-28T16:25:23.931Z</time></trkpt><trkpt lat="45.97918" lon="12.7450596"><ele>29.0</ele><time>2026-03-28T16:25:25.932Z</time></trkpt><trkpt lat="45.9791682" lon="12.7451714"><ele>29.0</ele><time>2026-03-28T16:25:27.932Z</time></trkpt><trkpt lat="45.9791879" lon="12.7453417"><ele>29.0</ele><time>2026-03-28T16:25:29.932Z</time></trkpt><trkpt lat="45.979194" lon="12.7454575"><ele>28.999999999999996</ele><time>2026-03-28T16:25:30.932Z</time></trkpt><trkpt lat="45.9791884" lon="12.7455688"><ele>29.0</ele><time>2026-03-28T16:25:32.931Z</time></trkpt><trkpt lat="45.979104" lon="12.7456304"><ele>29.0</ele><time>2026-03-28T16:25:34.931Z</time></trkpt><trkpt lat="45.9790345" lon="12.7456941"><ele>29.0</ele><time>2026-03-28T16:25:36.931Z</time></trkpt><trkpt lat="45.9789929" lon="12.7457861"><ele>28.999999999999996</ele><time>2026-03-28T16:25:58.931Z</time></trkpt><trkpt lat="45.9789885" lon="12.7459054"><ele>29.0</ele><time>2026-03-28T16:26:01.931Z</time></trkpt><trkpt lat="45.9789325" lon="12.7460207"><ele>29.0</ele><time>2026-03-28T16:26:03.932Z</time></trkpt><trkpt lat="45.9788676" lon="12.7460248"><ele>29.0</ele><time>2026-03-28T16:26:06.931Z</time></trkpt><trkpt lat="45.9788685" lon="12.745877"><ele>29.0</ele><time>2026-03-28T16:26:10.932Z</time></trkpt><trkpt lat="45.9789037" lon="12.7457091"><ele>29.0</ele><time>2026-03-28T16:26:12.931Z</time></trkpt><trkpt lat="45.9789771" lon="12.7455693"><ele>29.0</ele><time>2026-03-28T16:26:14.931Z</time></trkpt><trkpt lat="45.9790108" lon="12.7454577"><ele>28.999999999999996</ele><time>2026-03-28T16:26:16.931Z</time></trkpt><trkpt lat="45.9789371" lon="12.7454181"><ele>29.0</ele><time>2026-03-28T16:26:19.931Z</time></trkpt><trkpt lat="45.9788832" lon="12.7455263"><ele>29.0</ele><time>2026-03-28T16:26:21.931Z</time></trkpt><trkpt lat="45.9788143" lon="12.7455665"><ele>29.0</ele><time>2026-03-28T16:26:23.931Z</time></trkpt><trkpt lat="45.9787415" lon="12.7455731"><ele>28.999999999999996</ele><time>2026-03-28T16:26:25.931Z</time></trkpt><trkpt lat="45.9786602" lon="12.7455712"><ele>29.0</ele><time>2026-03-28T16:26:27.932Z</time></trkpt><trkpt lat="45.9785535" lon="12.7455453"><ele>28.999999999999996</ele><time>2026-03-28T16:26:30.931Z</time></trkpt><trkpt lat="45.9784647" lon="12.7454932"><ele>29.0</ele><time>2026-03-28T16:26:32.931Z</time></trkpt><trkpt lat="45.9784383" lon="12.7454032"><ele>29.0</ele><time>2026-03-28T16:26:34.931Z</time></trkpt><trkpt lat="45.9785104" lon="12.7453251"><ele>29.0</ele><time>2026-03-28T16:26:37.931Z</time></trkpt><trkpt lat="45.9786197" lon="12.7453221"><ele>28.999999999999996</ele><time>2026-03-28T16:26:39.932Z</time></trkpt><trkpt lat="45.9786944" lon="12.7452968"><ele>29.0</ele><time>2026-03-28T16:26:40.931Z</time></trkpt><trkpt lat="45.9787684" lon="12.7452624"><ele>28.999999999999996</ele><time>2026-03-28T16:26:42.931Z</time></trkpt><trkpt lat="45.9788537" lon="12.7452486"><ele>29.0</ele><time>2026-03-28T16:26:44.932Z</time></trkpt><trkpt lat="45.9789154" lon="12.7452197"><ele>29.0</ele><time>2026-03-28T16:26:45.931Z</time></trkpt><trkpt lat="45.9789788" lon="12.7451934"><ele>29.0</ele><time>2026-03-28T16:26:46.931Z</time></trkpt><trkpt lat="45.9790287" lon="12.745133"><ele>28.999999999999996</ele><time>2026-03-28T16:26:47.932Z</time></trkpt><trkpt lat="45.9790477" lon="12.745015"><ele>29.0</ele><time>2026-03-28T16:26:49.931Z</time></trkpt><trkpt lat="45.9790254" lon="12.7448888"><ele>28.833333333333332</ele><time>2026-03-28T16:26:51.931Z</time></trkpt><trkpt lat="45.9790562" lon="12.7448052"><ele>28.666666666666664</ele><time>2026-03-28T16:26:53.93Z</time></trkpt><trkpt lat="45.9791216" lon="12.7447444"><ele>28.5</ele><time>2026-03-28T16:26:55.931Z</time></trkpt><trkpt lat="45.979213" lon="12.7447107"><ele>28.333333333333336</ele><time>2026-03-28T16:26:58.932Z</time></trkpt><trkpt lat="45.9792692" lon="12.7446461"><ele>28.166666666666668</ele><time>2026-03-28T16:27:00.932Z</time></trkpt><trkpt lat="45.9792111" lon="12.7445138"><ele>28.0</ele><time>2026-03-28T16:27:02.932Z</time></trkpt><trkpt lat="45.9791293" lon="12.7444618"><ele>28.666666666666668</ele><time>2026-03-28T16:27:04.932Z</time></trkpt><trkpt lat="45.9790551" lon="12.7444715"><ele>29.333333333333336</ele><time>2026-03-28T16:27:06.931Z</time></trkpt><trkpt lat="45.9789803" lon="12.7445734"><ele>30.0</ele><time>2026-03-28T16:27:08.931Z</time></trkpt><trkpt lat="45.9789321" lon="12.7446603"><ele>30.666666666666664</ele><time>2026-03-28T16:27:10.931Z</time></trkpt><trkpt lat="45.9789101" lon="12.7447831"><ele>31.333333333333332</ele><time>2026-03-28T16:27:12.931Z</time></trkpt><trkpt lat="45.9788756" lon="12.7448677"><ele>32.0</ele><time>2026-03-28T16:27:14.931Z</time></trkpt><trkpt lat="45.9788377" lon="12.7449432"><ele>32.0</ele><time>2026-03-28T16:27:15.931Z</time></trkpt><trkpt lat="45.9787721" lon="12.7450376"><ele>32.0</ele><time>2026-03-28T16:27:17.932Z</time></trkpt><trkpt lat="45.9786561" lon="12.7450979"><ele>32.0</ele><time>2026-03-28T16:27:19.931Z</time></trkpt><trkpt lat="45.9785552" lon="12.7451283"><ele>32.0</ele><time>2026-03-28T16:27:21.931Z</time></trkpt><trkpt lat="45.9784492" lon="12.745164"><ele>32.0</ele><time>2026-03-28T16:27:23.931Z</time></trkpt><trkpt lat="45.978394" lon="12.7452127"><ele>32.2</ele><time>2026-03-28T16:27:24.931Z</time></trkpt><trkpt lat="45.9783356" lon="12.7452705"><ele>32.400000000000006</ele><time>2026-03-28T16:27:25.931Z</time></trkpt><trkpt lat="45.9782591" lon="12.7454089"><ele>32.599999999999994</ele><time>2026-03-28T16:27:27.932Z</time></trkpt><trkpt lat="45.9782386" lon="12.7455529"><ele>32.8</ele><time>2026-03-28T16:27:29.931Z</time></trkpt><trkpt lat="45.9782467" lon="12.7456848"><ele>33.0</ele><time>2026-03-28T16:27:31.931Z</time></trkpt><trkpt lat="45.9782654" lon="12.7458432"><ele>33.0</ele><time>2026-03-28T16:27:33.932Z</time></trkpt><trkpt lat="45.9782683" lon="12.7459875"><ele>33.0</ele><time>2026-03-28T16:27:35.931Z</time></trkpt><trkpt lat="45.9782806" lon="12.7461527"><ele>33.0</ele><time>2026-03-28T16:27:37.933Z</time></trkpt><trkpt lat="45.9783088" lon="12.7463124"><ele>33.0</ele><time>2026-03-28T16:27:39.932Z</time></trkpt><trkpt lat="45.9783283" lon="12.7464665"><ele>33.0</ele><time>2026-03-28T16:27:41.932Z</time></trkpt><trkpt lat="45.9783616" lon="12.7465461"><ele>32.199999999999996</ele><time>2026-03-28T16:27:42.932Z</time></trkpt><trkpt lat="45.9784256" lon="12.7466502"><ele>31.4</ele><time>2026-03-28T16:27:44.932Z</time></trkpt><trkpt lat="45.9785034" lon="12.7467542"><ele>30.599999999999998</ele><time>2026-03-28T16:27:46.931Z</time></trkpt><trkpt lat="45.9785464" lon="12.7468437"><ele>29.799999999999997</ele><time>2026-03-28T16:27:47.932Z</time></trkpt><trkpt lat="45.9786006" lon="12.7469261"><ele>29.0</ele><time>2026-03-28T16:27:48.932Z</time></trkpt><trkpt lat="45.9786866" lon="12.7470508"><ele>29.0</ele><time>2026-03-28T16:27:50.931Z</time></trkpt><trkpt lat="45.9787651" lon="12.7471536"><ele>29.0</ele><time>2026-03-28T16:27:52.932Z</time></trkpt><trkpt lat="45.9788429" lon="12.7471822"><ele>29.0</ele><time>2026-03-28T16:27:54.932Z</time></trkpt><trkpt lat="45.9789844" lon="12.7470897"><ele>29.0</ele><time>2026-03-28T16:28:00.932Z</time></trkpt><trkpt lat="45.9790676" lon="12.7471353"><ele>29.0</ele><time>2026-03-28T16:28:02.931Z</time></trkpt><trkpt lat="45.9791082" lon="12.7472587"><ele>28.999999999999996</ele><time>2026-03-28T16:28:04.931Z</time></trkpt><trkpt lat="45.9791206" lon="12.7473889"><ele>29.0</ele><time>2026-03-28T16:28:06.932Z</time></trkpt><trkpt lat="45.9791974" lon="12.7475014"><ele>29.0</ele><time>2026-03-28T16:28:08.932Z</time></trkpt><trkpt lat="45.9792626" lon="12.7476039"><ele>29.0</ele><time>2026-03-28T16:28:10.931Z</time></trkpt><trkpt lat="45.9793331" lon="12.7476655"><ele>28.999999999999996</ele><time>2026-03-28T16:28:12.931Z</time></trkpt><trkpt lat="45.9793927" lon="12.7477154"><ele>29.0</ele><time>2026-03-28T16:28:14.931Z</time></trkpt><trkpt lat="45.9794141" lon="12.7478123"><ele>29.666666666666664</ele><time>2026-03-28T16:28:17.931Z</time></trkpt><trkpt lat="45.9794618" lon="12.7478924"><ele>30.333333333333332</ele><time>2026-03-28T16:28:19.931Z</time></trkpt><trkpt lat="45.9795527" lon="12.7479218"><ele>31.0</ele><time>2026-03-28T16:28:21.931Z</time></trkpt><trkpt lat="45.9796254" lon="12.7479335"><ele>31.666666666666664</ele><time>2026-03-28T16:28:22.932Z</time></trkpt><trkpt lat="45.9797054" lon="12.7479224"><ele>32.333333333333336</ele><time>2026-03-28T16:28:23.932Z</time></trkpt><trkpt lat="45.9797817" lon="12.7479088"><ele>33.0</ele><time>2026-03-28T16:28:24.931Z</time></trkpt><trkpt lat="45.9798635" lon="12.7479005"><ele>33.0</ele><time>2026-03-28T16:28:25.931Z</time></trkpt><trkpt lat="45.9799417" lon="12.7478892"><ele>33.0</ele><time>2026-03-28T16:28:26.931Z</time></trkpt><trkpt lat="45.9799988" lon="12.7478487"><ele>33.0</ele><time>2026-03-28T16:28:27.932Z</time></trkpt><trkpt lat="45.9800354" lon="12.7477065"><ele>33.0</ele><time>2026-03-28T16:28:29.931Z</time></trkpt><trkpt lat="45.98004" lon="12.7475417"><ele>33.0</ele><time>2026-03-28T16:28:31.932Z</time></trkpt><trkpt lat="45.9800698" lon="12.7474304"><ele>33.0</ele><time>2026-03-28T16:28:33.931Z</time></trkpt><trkpt lat="45.9802357" lon="12.7473933"><ele>33.0</ele><time>2026-03-28T16:28:37.931Z</time></trkpt><trkpt lat="45.9803322" lon="12.7473399"><ele>33.0</ele><time>2026-03-28T16:28:39.931Z</time></trkpt><trkpt lat="45.980427" lon="12.7472491"><ele>33.0</ele><time>2026-03-28T16:28:41.931Z</time></trkpt><trkpt lat="45.9805065" lon="12.7471825"><ele>33.0</ele><time>2026-03-28T16:28:43.931Z</time></trkpt><trkpt lat="45.980602" lon="12.7472519"><ele>33.0</ele><time>2026-03-28T16:28:45.931Z</time></trkpt><trkpt lat="45.9806781" lon="12.7473167"><ele>33.0</ele><time>2026-03-28T16:28:47.932Z</time></trkpt><trkpt lat="45.9807808" lon="12.7473945"><ele>33.0</ele><time>2026-03-28T16:28:49.931Z</time></trkpt><trkpt lat="45.9808615" lon="12.7474139"><ele>33.0</ele><time>2026-03-28T16:28:51.931Z</time></trkpt><trkpt lat="45.9809498" lon="12.747393"><ele>33.0</ele><time>2026-03-28T16:28:53.931Z</time></trkpt><trkpt lat="45.9810109" lon="12.7474459"><ele>33.0</ele><time>2026-03-28T16:28:55.931Z</time></trkpt><trkpt lat="45.9810485" lon="12.747555"><ele>33.0</ele><time>2026-03-28T16:28:57.931Z</time></trkpt><trkpt lat="45.9810254" lon="12.7476463"><ele>33.0</ele><time>2026-03-28T16:28:59.932Z</time></trkpt><trkpt lat="45.9809766" lon="12.7477656"><ele>33.0</ele><time>2026-03-28T16:29:01.931Z</time></trkpt><trkpt lat="45.9809403" lon="12.7478463"><ele>33.0</ele><time>2026-03-28T16:29:02.931Z</time></trkpt><trkpt lat="45.9808898" lon="12.7479986"><ele>33.0</ele><time>2026-03-28T16:29:04.932Z</time></trkpt><trkpt lat="45.9808928" lon="12.7481046"><ele>33.0</ele><time>2026-03-28T16:29:06.932Z</time></trkpt><trkpt lat="45.9809765" lon="12.7481359"><ele>33.0</ele><time>2026-03-28T16:29:08.931Z</time></trkpt><trkpt lat="45.9810732" lon="12.7481063"><ele>33.0</ele><time>2026-03-28T16:29:10.932Z</time></trkpt><trkpt lat="45.9811628" lon="12.74806"><ele>33.0</ele><time>2026-03-28T16:29:12.931Z</time></trkpt><trkpt lat="45.9812226" lon="12.7481274"><ele>33.0</ele><time>2026-03-28T16:29:14.932Z</time></trkpt><trkpt lat="45.9812268" lon="12.748254"><ele>33.0</ele><time>2026-03-28T16:29:16.931Z</time></trkpt><trkpt lat="45.981159" lon="12.7484085"><ele>33.0</ele><time>2026-03-28T16:29:18.931Z</time></trkpt><trkpt lat="45.9811126" lon="12.7484712"><ele>33.199999999999996</ele><time>2026-03-28T16:29:19.931Z</time></trkpt><trkpt lat="45.9810441" lon="12.7485796"><ele>33.4</ele><time>2026-03-28T16:29:21.931Z</time></trkpt><trkpt lat="45.9809679" lon="12.7486555"><ele>33.599999999999994</ele><time>2026-03-28T16:29:24.932Z</time></trkpt><trkpt lat="45.9809076" lon="12.7487574"><ele>33.8</ele><time>2026-03-28T16:29:27.932Z</time></trkpt><trkpt lat="45.9808456" lon="12.7488086"><ele>34.0</ele><time>2026-03-28T16:29:30.932Z</time></trkpt><trkpt lat="45.9807517" lon="12.7490849"><ele>33.6</ele><time>2026-03-28T16:29:47.932Z</time></trkpt><trkpt lat="45.9807058" lon="12.7488362"><ele>33.2</ele><time>2026-03-28T16:29:48.93Z</time></trkpt><trkpt lat="45.9807676" lon="12.7488025"><ele>32.800000000000004</ele><time>2026-03-28T16:29:50.931Z</time></trkpt><trkpt lat="45.980714" lon="12.7487308"><ele>32.4</ele><time>2026-03-28T16:30:55.931Z</time></trkpt><trkpt lat="45.9806545" lon="12.7486639"><ele>32.0</ele><time>2026-03-28T16:30:57.931Z</time></trkpt><trkpt lat="45.9805548" lon="12.7485863"><ele>31.999999999999996</ele><time>2026-03-28T16:30:59.931Z</time></trkpt><trkpt lat="45.9804895" lon="12.7485856"><ele>32.0</ele><time>2026-03-28T16:31:00.931Z</time></trkpt><trkpt lat="45.9804278" lon="12.7485496"><ele>32.0</ele><time>2026-03-28T16:31:01.931Z</time></trkpt><trkpt lat="45.9803288" lon="12.7484821"><ele>32.0</ele><time>2026-03-28T16:31:03.932Z</time></trkpt><trkpt lat="45.9802149" lon="12.7484251"><ele>31.999999999999996</ele><time>2026-03-28T16:31:05.932Z</time></trkpt><trkpt lat="45.9801464" lon="12.7483979"><ele>32.0</ele><time>2026-03-28T16:31:06.932Z</time></trkpt><trkpt lat="45.9800779" lon="12.7483773"><ele>32.2</ele><time>2026-03-28T16:31:07.931Z</time></trkpt><trkpt lat="45.9799714" lon="12.7483822"><ele>32.400000000000006</ele><time>2026-03-28T16:31:09.932Z</time></trkpt><trkpt lat="45.9798591" lon="12.7484066"><ele>32.599999999999994</ele><time>2026-03-28T16:31:11.931Z</time></trkpt><trkpt lat="45.9797688" lon="12.7483651"><ele>32.8</ele><time>2026-03-28T16:31:14.932Z</time></trkpt><trkpt lat="45.9796744" lon="12.7483205"><ele>33.0</ele><time>2026-03-28T16:31:17.931Z</time></trkpt><trkpt lat="45.9796083" lon="12.7482806"><ele>33.0</ele><time>2026-03-28T16:31:19.931Z</time></trkpt><trkpt lat="45.9795518" lon="12.7482228"><ele>33.0</ele><time>2026-03-28T16:31:21.931Z</time></trkpt><trkpt lat="45.979519" lon="12.7481331"><ele>33.0</ele><time>2026-03-28T16:31:41.931Z</time></trkpt><trkpt lat="45.9795536" lon="12.7480488"><ele>33.0</ele><time>2026-03-28T16:31:44.931Z</time></trkpt><trkpt lat="45.979542" lon="12.7479398"><ele>33.0</ele><time>2026-03-28T16:31:47.932Z</time></trkpt><trkpt lat="45.9794931" lon="12.7478791"><ele>33.0</ele><time>2026-03-28T16:31:49.931Z</time></trkpt><trkpt lat="45.9794492" lon="12.7477784"><ele>33.0</ele><time>2026-03-28T16:31:52.931Z</time></trkpt><trkpt lat="45.9794705" lon="12.747679"><ele>32.8</ele><time>2026-03-28T16:31:54.931Z</time></trkpt><trkpt lat="45.9794155" lon="12.7475841"><ele>32.599999999999994</ele><time>2026-03-28T16:31:56.932Z</time></trkpt><trkpt lat="45.9793602" lon="12.7474505"><ele>32.400000000000006</ele><time>2026-03-28T16:31:58.93Z</time></trkpt><trkpt lat="45.9793393" lon="12.7473457"><ele>32.2</ele><time>2026-03-28T16:32:00.932Z</time></trkpt><trkpt lat="45.9793436" lon="12.7471692"><ele>32.0</ele><time>2026-03-28T16:32:02.931Z</time></trkpt><trkpt lat="45.9793483" lon="12.7470741"><ele>31.999999999999996</ele><time>2026-03-28T16:32:03.931Z</time></trkpt><trkpt lat="45.9793808" lon="12.7469062"><ele>32.0</ele><time>2026-03-28T16:32:05.931Z</time></trkpt><trkpt lat="45.9794019" lon="12.7468"><ele>32.0</ele><time>2026-03-28T16:32:06.932Z</time></trkpt><trkpt lat="45.9794113" lon="12.7467058"><ele>32.0</ele><time>2026-03-28T16:32:07.932Z</time></trkpt><trkpt lat="45.9794098" lon="12.7466105"><ele>31.999999999999996</ele><time>2026-03-28T16:32:08.931Z</time></trkpt><trkpt lat="45.9794121" lon="12.7465001"><ele>32.0</ele><time>2026-03-28T16:32:09.932Z</time></trkpt><trkpt lat="45.979414" lon="12.746385"><ele>31.6</ele><time>2026-03-28T16:32:10.932Z</time></trkpt><trkpt lat="45.9794041" lon="12.7462791"><ele>31.200000000000003</ele><time>2026-03-28T16:32:11.931Z</time></trkpt><trkpt lat="45.9793816" lon="12.7461375"><ele>30.8</ele><time>2026-03-28T16:32:12.931Z</time></trkpt><trkpt lat="45.9793752" lon="12.7459924"><ele>30.4</ele><time>2026-03-28T16:32:13.932Z</time></trkpt><trkpt lat="45.9793772" lon="12.7458521"><ele>30.0</ele><time>2026-03-28T16:32:14.931Z</time></trkpt><trkpt lat="45.9793803" lon="12.7456984"><ele>29.833333333333332</ele><time>2026-03-28T16:32:15.932Z</time></trkpt><trkpt lat="45.9793737" lon="12.7455671"><ele>29.666666666666664</ele><time>2026-03-28T16:32:16.932Z</time></trkpt><trkpt lat="45.9793669" lon="12.745451"><ele>29.5</ele><time>2026-03-28T16:32:17.931Z</time></trkpt><trkpt lat="45.979354" lon="12.7453501"><ele>29.333333333333332</ele><time>2026-03-28T16:32:18.931Z</time></trkpt><trkpt lat="45.9793364" lon="12.7452557"><ele>29.166666666666664</ele><time>2026-03-28T16:32:19.931Z</time></trkpt><trkpt lat="45.9793153" lon="12.7451415"><ele>29.0</ele><time>2026-03-28T16:32:21.931Z</time></trkpt><trkpt lat="45.9792331" lon="12.7450817"><ele>28.999999999999996</ele><time>2026-03-28T16:32:23.931Z</time></trkpt><trkpt lat="45.9791866" lon="12.7451446"><ele>29.0</ele><time>2026-03-28T16:32:25.931Z</time></trkpt><trkpt lat="45.9791774" lon="12.7452904"><ele>29.0</ele><time>2026-03-28T16:32:27.932Z</time></trkpt><trkpt lat="45.9791869" lon="12.7453939"><ele>29.0</ele><time>2026-03-28T16:32:28.932Z</time></trkpt><trkpt lat="45.9791903" lon="12.7454935"><ele>28.999999999999996</ele><time>2026-03-28T16:32:29.931Z</time></trkpt><trkpt lat="45.9791797" lon="12.7455878"><ele>29.0</ele><time>2026-03-28T16:32:31.931Z</time></trkpt><trkpt lat="45.9791178" lon="12.7456521"><ele>29.0</ele><time>2026-03-28T16:32:33.932Z</time></trkpt><trkpt lat="45.9790479" lon="12.74567"><ele>29.0</ele><time>2026-03-28T16:32:34.932Z</time></trkpt><trkpt lat="45.9789829" lon="12.7457753"><ele>29.0</ele><time>2026-03-28T16:32:36.932Z</time></trkpt><trkpt lat="45.9789435" lon="12.7459117"><ele>29.0</ele><time>2026-03-28T16:32:38.932Z</time></trkpt><trkpt lat="45.9789059" lon="12.746054"><ele>29.0</ele><time>2026-03-28T16:32:40.931Z</time></trkpt><trkpt lat="45.9788357" lon="12.7460849"><ele>29.0</ele><time>2026-03-28T16:32:42.932Z</time></trkpt><trkpt lat="45.9788067" lon="12.7459724"><ele>29.0</ele><time>2026-03-28T16:32:45.93Z</time></trkpt><trkpt lat="45.9788087" lon="12.7458629"><ele>29.0</ele><time>2026-03-28T16:32:46.931Z</time></trkpt><trkpt lat="45.9788375" lon="12.7457287"><ele>29.0</ele><time>2026-03-28T16:32:48.932Z</time></trkpt><trkpt lat="45.9788939" lon="12.7456283"><ele>29.0</ele><time>2026-03-28T16:32:50.932Z</time></trkpt><trkpt lat="45.9789782" lon="12.7455008"><ele>28.999999999999996</ele><time>2026-03-28T16:32:52.931Z</time></trkpt><trkpt lat="45.9789779" lon="12.7454058"><ele>29.0</ele><time>2026-03-28T16:32:54.932Z</time></trkpt><trkpt lat="45.978906" lon="12.7454107"><ele>29.0</ele><time>2026-03-28T16:32:57.931Z</time></trkpt><trkpt lat="45.9788199" lon="12.7455022"><ele>29.0</ele><time>2026-03-28T16:32:59.932Z</time></trkpt><trkpt lat="45.9787435" lon="12.745506"><ele>28.999999999999996</ele><time>2026-03-28T16:33:01.931Z</time></trkpt><trkpt lat="45.9786485" lon="12.7455207"><ele>29.0</ele><time>2026-03-28T16:33:03.931Z</time></trkpt><trkpt lat="45.9785553" lon="12.7455305"><ele>28.999999999999996</ele><time>2026-03-28T16:33:05.931Z</time></trkpt><trkpt lat="45.9784715" lon="12.7454903"><ele>29.0</ele><time>2026-03-28T16:33:07.932Z</time></trkpt><trkpt lat="45.9784033" lon="12.745411"><ele>29.0</ele><time>2026-03-28T16:33:09.932Z</time></trkpt><trkpt lat="45.9784683" lon="12.7453431"><ele>29.0</ele><time>2026-03-28T16:33:12.932Z</time></trkpt><trkpt lat="45.9785461" lon="12.745319"><ele>28.999999999999996</ele><time>2026-03-28T16:33:14.931Z</time></trkpt><trkpt lat="45.978635" lon="12.745338"><ele>29.0</ele><time>2026-03-28T16:33:15.932Z</time></trkpt><trkpt lat="45.9787324" lon="12.7453149"><ele>29.0</ele><time>2026-03-28T16:33:17.931Z</time></trkpt><trkpt lat="45.9787936" lon="12.7452925"><ele>29.0</ele><time>2026-03-28T16:33:18.931Z</time></trkpt><trkpt lat="45.9788945" lon="12.7452544"><ele>29.0</ele><time>2026-03-28T16:33:20.931Z</time></trkpt><trkpt lat="45.9789942" lon="12.7451809"><ele>29.0</ele><time>2026-03-28T16:33:22.931Z</time></trkpt><trkpt lat="45.9790251" lon="12.7450739"><ele>29.0</ele><time>2026-03-28T16:33:24.932Z</time></trkpt><trkpt lat="45.9790229" lon="12.7449421"><ele>28.833333333333332</ele><time>2026-03-28T16:33:26.931Z</time></trkpt><trkpt lat="45.9790272" lon="12.7448224"><ele>28.666666666666664</ele><time>2026-03-28T16:33:28.932Z</time></trkpt><trkpt lat="45.9790354" lon="12.7447087"><ele>28.5</ele><time>2026-03-28T16:33:30.932Z</time></trkpt><trkpt lat="45.9790981" lon="12.7446945"><ele>28.333333333333336</ele><time>2026-03-28T16:33:32.932Z</time></trkpt><trkpt lat="45.9791989" lon="12.7447088"><ele>28.166666666666668</ele><time>2026-03-28T16:33:34.931Z</time></trkpt><trkpt lat="45.979268" lon="12.7446303"><ele>28.0</ele><time>2026-03-28T16:33:36.931Z</time></trkpt><trkpt lat="45.979231" lon="12.7445438"><ele>28.799999999999997</ele><time>2026-03-28T16:33:37.931Z</time></trkpt><trkpt lat="45.9791519" lon="12.7444645"><ele>29.599999999999998</ele><time>2026-03-28T16:33:39.931Z</time></trkpt><trkpt lat="45.9790644" lon="12.7444709"><ele>30.400000000000002</ele><time>2026-03-28T16:33:41.931Z</time></trkpt><trkpt lat="45.9789773" lon="12.7445734"><ele>31.200000000000003</ele><time>2026-03-28T16:33:43.931Z</time></trkpt><trkpt lat="45.9789283" lon="12.7446756"><ele>32.0</ele><time>2026-03-28T16:33:45.931Z</time></trkpt><trkpt lat="45.978924" lon="12.7447846"><ele>32.0</ele><time>2026-03-28T16:33:47.931Z</time></trkpt><trkpt lat="45.9788871" lon="12.7449072"><ele>32.0</ele><time>2026-03-28T16:33:49.931Z</time></trkpt><trkpt lat="45.9788209" lon="12.745002"><ele>32.0</ele><time>2026-03-28T16:33:51.932Z</time></trkpt><trkpt lat="45.9787357" lon="12.7450603"><ele>32.0</ele><time>2026-03-28T16:33:53.931Z</time></trkpt><trkpt lat="45.9786153" lon="12.7451211"><ele>32.0</ele><time>2026-03-28T16:33:55.931Z</time></trkpt><trkpt lat="45.978508" lon="12.7451715"><ele>32.0</ele><time>2026-03-28T16:33:57.931Z</time></trkpt><trkpt lat="45.9784392" lon="12.7452049"><ele>32.0</ele><time>2026-03-28T16:33:58.931Z</time></trkpt><trkpt lat="45.9783238" lon="12.7452753"><ele>32.0</ele><time>2026-03-28T16:34:00.931Z</time></trkpt><trkpt lat="45.9782639" lon="12.7454176"><ele>32.0</ele><time>2026-03-28T16:34:02.931Z</time></trkpt><trkpt lat="45.9782415" lon="12.7455934"><ele>32.0</ele><time>2026-03-28T16:34:04.931Z</time></trkpt><trkpt lat="45.9782449" lon="12.745733"><ele>32.2</ele><time>2026-03-28T16:34:06.931Z</time></trkpt><trkpt lat="45.9782565" lon="12.7458808"><ele>32.400000000000006</ele><time>2026-03-28T16:34:08.931Z</time></trkpt><trkpt lat="45.9782715" lon="12.7460327"><ele>32.599999999999994</ele><time>2026-03-28T16:34:10.931Z</time></trkpt><trkpt lat="45.9782859" lon="12.7461965"><ele>32.8</ele><time>2026-03-28T16:34:12.931Z</time></trkpt><trkpt lat="45.9782956" lon="12.7463682"><ele>33.0</ele><time>2026-03-28T16:34:14.932Z</time></trkpt><trkpt lat="45.9783351" lon="12.74649"><ele>32.333333333333336</ele><time>2026-03-28T16:34:16.932Z</time></trkpt><trkpt lat="45.978386" lon="12.7465989"><ele>31.666666666666664</ele><time>2026-03-28T16:34:18.932Z</time></trkpt><trkpt lat="45.9784569" lon="12.7467173"><ele>31.0</ele><time>2026-03-28T16:34:20.932Z</time></trkpt><trkpt lat="45.9785028" lon="12.7467826"><ele>30.333333333333332</ele><time>2026-03-28T16:34:21.931Z</time></trkpt><trkpt lat="45.9785521" lon="12.7468563"><ele>29.666666666666664</ele><time>2026-03-28T16:34:22.931Z</time></trkpt><trkpt lat="45.9786069" lon="12.7469342"><ele>29.0</ele><time>2026-03-28T16:34:23.932Z</time></trkpt><trkpt lat="45.9786526" lon="12.7470118"><ele>28.999999999999996</ele><time>2026-03-28T16:34:24.931Z</time></trkpt><trkpt lat="45.9787047" lon="12.7470834"><ele>29.0</ele><time>2026-03-28T16:34:25.932Z</time></trkpt><trkpt lat="45.9787866" lon="12.7471559"><ele>29.0</ele><time>2026-03-28T16:34:27.931Z</time></trkpt><trkpt lat="45.9788776" lon="12.7471623"><ele>29.0</ele><time>2026-03-28T16:34:30.932Z</time></trkpt><trkpt lat="45.9789526" lon="12.7470928"><ele>28.999999999999996</ele><time>2026-03-28T16:34:32.931Z</time></trkpt><trkpt lat="45.9790376" lon="12.7470922"><ele>29.0</ele><time>2026-03-28T16:34:34.931Z</time></trkpt><trkpt lat="45.9791161" lon="12.7471462"><ele>29.0</ele><time>2026-03-28T16:34:36.931Z</time></trkpt><trkpt lat="45.9791322" lon="12.7472649"><ele>29.0</ele><time>2026-03-28T16:34:38.932Z</time></trkpt><trkpt lat="45.9791204" lon="12.7473709"><ele>29.0</ele><time>2026-03-28T16:34:39.931Z</time></trkpt><trkpt lat="45.9791704" lon="12.7474924"><ele>29.0</ele><time>2026-03-28T16:34:41.931Z</time></trkpt><trkpt lat="45.9792516" lon="12.7476192"><ele>29.0</ele><time>2026-03-28T16:34:43.931Z</time></trkpt><trkpt lat="45.9793438" lon="12.7476807"><ele>29.666666666666664</ele><time>2026-03-28T16:34:45.931Z</time></trkpt><trkpt lat="45.9794071" lon="12.7477328"><ele>30.333333333333332</ele><time>2026-03-28T16:34:47.931Z</time></trkpt><trkpt lat="45.9794352" lon="12.747822"><ele>31.0</ele><time>2026-03-28T16:34:49.931Z</time></trkpt><trkpt lat="45.9794911" lon="12.7479066"><ele>31.666666666666664</ele><time>2026-03-28T16:34:51.932Z</time></trkpt><trkpt lat="45.9795972" lon="12.7479502"><ele>32.333333333333336</ele><time>2026-03-28T16:34:53.931Z</time></trkpt><trkpt lat="45.9796721" lon="12.7479435"><ele>33.0</ele><time>2026-03-28T16:34:54.931Z</time></trkpt><trkpt lat="45.9797477" lon="12.7479252"><ele>33.0</ele><time>2026-03-28T16:34:55.932Z</time></trkpt><trkpt lat="45.9798159" lon="12.7479237"><ele>33.0</ele><time>2026-03-28T16:34:56.931Z</time></trkpt><trkpt lat="45.9798831" lon="12.7479115"><ele>33.0</ele><time>2026-03-28T16:34:57.932Z</time></trkpt><trkpt lat="45.9799968" lon="12.7478623"><ele>33.0</ele><time>2026-03-28T16:34:59.932Z</time></trkpt><trkpt lat="45.980069" lon="12.7477677"><ele>33.0</ele><time>2026-03-28T16:35:01.932Z</time></trkpt><trkpt lat="45.9800692" lon="12.7475948"><ele>33.0</ele><time>2026-03-28T16:35:03.932Z</time></trkpt><trkpt lat="45.9800726" lon="12.7474793"><ele>33.0</ele><time>2026-03-28T16:35:05.932Z</time></trkpt><trkpt lat="45.9801564" lon="12.7474143"><ele>33.0</ele><time>2026-03-28T16:35:08.931Z</time></trkpt><trkpt lat="45.9802516" lon="12.7473858"><ele>33.0</ele><time>2026-03-28T16:35:10.931Z</time></trkpt><trkpt lat="45.9803427" lon="12.7473404"><ele>33.0</ele><time>2026-03-28T16:35:12.931Z</time></trkpt><trkpt lat="45.9804227" lon="12.7472497"><ele>33.0</ele><time>2026-03-28T16:35:14.931Z</time></trkpt><trkpt lat="45.9805135" lon="12.7471914"><ele>33.0</ele><time>2026-03-28T16:35:16.931Z</time></trkpt><trkpt lat="45.9805903" lon="12.7472432"><ele>33.0</ele><time>2026-03-28T16:35:18.932Z</time></trkpt><trkpt lat="45.9806898" lon="12.7473255"><ele>33.0</ele><time>2026-03-28T16:35:20.932Z</time></trkpt><trkpt lat="45.9807788" lon="12.7473799"><ele>33.0</ele><time>2026-03-28T16:35:22.932Z</time></trkpt><trkpt lat="45.9808544" lon="12.7474021"><ele>33.0</ele><time>2026-03-28T16:35:24.931Z</time></trkpt><trkpt lat="45.9809347" lon="12.7473827"><ele>33.0</ele><time>2026-03-28T16:35:26.932Z</time></trkpt><trkpt lat="45.9810178" lon="12.7474243"><ele>33.0</ele><time>2026-03-28T16:35:28.931Z</time></trkpt><trkpt lat="45.9810577" lon="12.7475513"><ele>33.0</ele><time>2026-03-28T16:35:30.931Z</time></trkpt><trkpt lat="45.9810345" lon="12.7476591"><ele>33.0</ele><time>2026-03-28T16:35:32.931Z</time></trkpt><trkpt lat="45.9809624" lon="12.7477966"><ele>33.0</ele><time>2026-03-28T16:35:34.931Z</time></trkpt><trkpt lat="45.9809057" lon="12.7479243"><ele>33.0</ele><time>2026-03-28T16:35:36.931Z</time></trkpt><trkpt lat="45.9808894" lon="12.7480488"><ele>33.0</ele><time>2026-03-28T16:35:38.932Z</time></trkpt><trkpt lat="45.9809167" lon="12.7481487"><ele>33.0</ele><time>2026-03-28T16:35:40.931Z</time></trkpt><trkpt lat="45.9810012" lon="12.7481441"><ele>33.0</ele><time>2026-03-28T16:35:42.932Z</time></trkpt><trkpt lat="45.9810894" lon="12.7480745"><ele>33.0</ele><time>2026-03-28T16:35:44.931Z</time></trkpt><trkpt lat="45.9811912" lon="12.7480725"><ele>33.0</ele><time>2026-03-28T16:35:46.932Z</time></trkpt><trkpt lat="45.9812259" lon="12.7481642"><ele>33.0</ele><time>2026-03-28T16:35:48.932Z</time></trkpt><trkpt lat="45.9812155" lon="12.7482778"><ele>33.0</ele><time>2026-03-28T16:35:50.931Z</time></trkpt><trkpt lat="45.98116" lon="12.7484084"><ele>33.0</ele><time>2026-03-28T16:35:52.931Z</time></trkpt><trkpt lat="45.9810818" lon="12.7485096"><ele>33.166666666666664</ele><time>2026-03-28T16:35:54.931Z</time></trkpt><trkpt lat="45.9810123" lon="12.748591"><ele>33.333333333333336</ele><time>2026-03-28T16:35:56.931Z</time></trkpt><trkpt lat="45.980949" lon="12.7486644"><ele>33.5</ele><time>2026-03-28T16:35:58.931Z</time></trkpt><trkpt lat="45.9808963" lon="12.7487585"><ele>33.66666666666667</ele><time>2026-03-28T16:36:01.932Z</time></trkpt><trkpt lat="45.9808269" lon="12.7487669"><ele>33.833333333333336</ele><time>2026-03-28T16:36:05.931Z</time></trkpt><trkpt lat="45.9807515" lon="12.7487379"><ele>34.0</ele><time>2026-03-28T16:36:08.931Z</time></trkpt><trkpt lat="45.9806959" lon="12.7486894"><ele>33.66666666666667</ele><time>2026-03-28T16:36:10.932Z</time></trkpt><trkpt lat="45.9806028" lon="12.7486345"><ele>33.333333333333336</ele><time>2026-03-28T16:36:12.931Z</time></trkpt><trkpt lat="45.980541" lon="12.7486057"><ele>33.0</ele><time>2026-03-28T16:36:13.932Z</time></trkpt><trkpt lat="45.9804219" lon="12.7485476"><ele>32.666666666666664</ele><time>2026-03-28T16:36:15.931Z</time></trkpt><trkpt lat="45.9803624" lon="12.7485163"><ele>32.33333333333333</ele><time>2026-03-28T16:36:16.932Z</time></trkpt><trkpt lat="45.9802987" lon="12.7484804"><ele>32.0</ele><time>2026-03-28T16:36:17.931Z</time></trkpt><trkpt lat="45.9802312" lon="12.748445"><ele>31.999999999999996</ele><time>2026-03-28T16:36:18.931Z</time></trkpt><trkpt lat="45.9801682" lon="12.7484161"><ele>32.0</ele><time>2026-03-28T16:36:19.931Z</time></trkpt><trkpt lat="45.9800981" lon="12.7483931"><ele>32.0</ele><time>2026-03-28T16:36:20.932Z</time></trkpt><trkpt lat="45.9800299" lon="12.7483833"><ele>32.0</ele><time>2026-03-28T16:36:21.932Z</time></trkpt><trkpt lat="45.9799188" lon="12.7484114"><ele>31.999999999999996</ele><time>2026-03-28T16:36:23.931Z</time></trkpt><trkpt lat="45.9798266" lon="12.7483942"><ele>32.0</ele><time>2026-03-28T16:36:25.931Z</time></trkpt><trkpt lat="45.9797433" lon="12.7483302"><ele>32.166666666666664</ele><time>2026-03-28T16:36:28.931Z</time></trkpt><trkpt lat="45.9796597" lon="12.7482969"><ele>32.33333333333333</ele><time>2026-03-28T16:36:31.931Z</time></trkpt><trkpt lat="45.9795992" lon="12.7482456"><ele>32.5</ele><time>2026-03-28T16:36:34.931Z</time></trkpt><trkpt lat="45.9795376" lon="12.7481905"><ele>32.666666666666664</ele><time>2026-03-28T16:36:38.932Z</time></trkpt><trkpt lat="45.9795377" lon="12.7480734"><ele>32.833333333333336</ele><time>2026-03-28T16:36:44.931Z</time></trkpt><trkpt lat="45.9795586" lon="12.747964"><ele>33.0</ele><time>2026-03-28T16:36:47.931Z</time></trkpt><trkpt lat="45.9794805" lon="12.7479022"><ele>33.0</ele><time>2026-03-28T16:36:49.931Z</time></trkpt><trkpt lat="45.9794517" lon="12.7478199"><ele>33.0</ele><time>2026-03-28T16:36:51.931Z</time></trkpt><trkpt lat="45.979455" lon="12.7476903"><ele>33.0</ele><time>2026-03-28T16:36:54.931Z</time></trkpt><trkpt lat="45.9794595" lon="12.7475951"><ele>33.0</ele><time>2026-03-28T16:36:56.932Z</time></trkpt><trkpt lat="45.9794054" lon="12.7475151"><ele>33.0</ele><time>2026-03-28T16:36:58.93Z</time></trkpt><trkpt lat="45.9793405" lon="12.7473965"><ele>33.0</ele><time>2026-03-28T16:37:00.93Z</time></trkpt><trkpt lat="45.9793084" lon="12.7472898"><ele>32.8</ele><time>2026-03-28T16:37:02.929Z</time></trkpt><trkpt lat="45.9793391" lon="12.7470995"><ele>32.599999999999994</ele><time>2026-03-28T16:37:04.931Z</time></trkpt><trkpt lat="45.9793554" lon="12.7470061"><ele>32.400000000000006</ele><time>2026-03-28T16:37:05.93Z</time></trkpt><trkpt lat="45.9794025" lon="12.7468443"><ele>32.2</ele><time>2026-03-28T16:37:07.93Z</time></trkpt><trkpt lat="45.9794196" lon="12.7467559"><ele>32.0</ele><time>2026-03-28T16:37:08.931Z</time></trkpt><trkpt lat="45.9794194" lon="12.746651"><ele>31.666666666666664</ele><time>2026-03-28T16:37:09.93Z</time></trkpt><trkpt lat="45.9794191" lon="12.7465503"><ele>31.333333333333332</ele><time>2026-03-28T16:37:10.93Z</time></trkpt><trkpt lat="45.979413" lon="12.746455"><ele>31.0</ele><time>2026-03-28T16:37:11.931Z</time></trkpt><trkpt lat="45.9794008" lon="12.7463456"><ele>30.666666666666664</ele><time>2026-03-28T16:37:12.931Z</time></trkpt><trkpt lat="45.9793881" lon="12.7462285"><ele>30.333333333333332</ele><time>2026-03-28T16:37:13.931Z</time></trkpt><trkpt lat="45.9793732" lon="12.7461102"><ele>30.0</ele><time>2026-03-28T16:37:14.93Z</time></trkpt><trkpt lat="45.9793728" lon="12.7459704"><ele>29.833333333333332</ele><time>2026-03-28T16:37:15.93Z</time></trkpt><trkpt lat="45.979375" lon="12.7458119"><ele>29.666666666666664</ele><time>2026-03-28T16:37:16.93Z</time></trkpt><trkpt lat="45.9793819" lon="12.7456694"><ele>29.5</ele><time>2026-03-28T16:37:17.93Z</time></trkpt><trkpt lat="45.9793758" lon="12.7455554"><ele>29.333333333333332</ele><time>2026-03-28T16:37:18.93Z</time></trkpt><trkpt lat="45.9793714" lon="12.7454476"><ele>29.166666666666664</ele><time>2026-03-28T16:37:19.931Z</time></trkpt><trkpt lat="45.9793542" lon="12.7453436"><ele>29.0</ele><time>2026-03-28T16:37:20.93Z</time></trkpt><trkpt lat="45.9793348" lon="12.7452529"><ele>28.999999999999996</ele><time>2026-03-28T16:37:21.93Z</time></trkpt><trkpt lat="45.9792971" lon="12.7450911"><ele>29.0</ele><time>2026-03-28T16:37:23.93Z</time></trkpt><trkpt lat="45.9792183" lon="12.7450375"><ele>29.0</ele><time>2026-03-28T16:37:25.93Z</time></trkpt><trkpt lat="45.9791546" lon="12.7450643"><ele>29.0</ele><time>2026-03-28T16:37:27.93Z</time></trkpt><trkpt lat="45.9791764" lon="12.7451924"><ele>28.999999999999996</ele><time>2026-03-28T16:37:28.931Z</time></trkpt><trkpt lat="45.9791776" lon="12.7452838"><ele>29.0</ele><time>2026-03-28T16:37:29.93Z</time></trkpt><trkpt lat="45.9791893" lon="12.7453796"><ele>29.0</ele><time>2026-03-28T16:37:30.931Z</time></trkpt><trkpt lat="45.9791928" lon="12.7455074"><ele>29.0</ele><time>2026-03-28T16:37:32.93Z</time></trkpt><trkpt lat="45.9791609" lon="12.7456106"><ele>29.0</ele><time>2026-03-28T16:37:34.93Z</time></trkpt><trkpt lat="45.979063" lon="12.7456767"><ele>29.0</ele><time>2026-03-28T16:37:36.93Z</time></trkpt><trkpt lat="45.9789825" lon="12.7457734"><ele>29.0</ele><time>2026-03-28T16:37:38.93Z</time></trkpt><trkpt lat="45.9789505" lon="12.7459333"><ele>28.999999999999996</ele><time>2026-03-28T16:37:40.931Z</time></trkpt><trkpt lat="45.9789099" lon="12.7460392"><ele>29.0</ele><time>2026-03-28T16:37:42.931Z</time></trkpt><trkpt lat="45.9788459" lon="12.7460859"><ele>29.0</ele><time>2026-03-28T16:37:44.931Z</time></trkpt><trkpt lat="45.9788302" lon="12.7459337"><ele>29.0</ele><time>2026-03-28T16:37:47.931Z</time></trkpt><trkpt lat="45.9788427" lon="12.7458112"><ele>28.999999999999996</ele><time>2026-03-28T16:37:49.93Z</time></trkpt><trkpt lat="45.9788853" lon="12.7456989"><ele>29.0</ele><time>2026-03-28T16:37:51.93Z</time></trkpt><trkpt lat="45.9789646" lon="12.7456008"><ele>28.999999999999996</ele><time>2026-03-28T16:37:53.93Z</time></trkpt><trkpt lat="45.9790106" lon="12.7454719"><ele>29.0</ele><time>2026-03-28T16:37:55.931Z</time></trkpt><trkpt lat="45.9789845" lon="12.7453722"><ele>29.0</ele><time>2026-03-28T16:37:57.931Z</time></trkpt><trkpt lat="45.9789323" lon="12.7454485"><ele>29.0</ele><time>2026-03-28T16:37:59.93Z</time></trkpt><trkpt lat="45.9788704" lon="12.7455505"><ele>28.999999999999996</ele><time>2026-03-28T16:38:01.93Z</time></trkpt><trkpt lat="45.9787853" lon="12.7456058"><ele>29.0</ele><time>2026-03-28T16:38:03.93Z</time></trkpt><trkpt lat="45.9786819" lon="12.7455692"><ele>28.999999999999996</ele><time>2026-03-28T16:38:05.93Z</time></trkpt><trkpt lat="45.9785977" lon="12.7455562"><ele>29.0</ele><time>2026-03-28T16:38:07.931Z</time></trkpt><trkpt lat="45.9785116" lon="12.7455293"><ele>29.0</ele><time>2026-03-28T16:38:09.931Z</time></trkpt><trkpt lat="45.9784432" lon="12.7454768"><ele>29.0</ele><time>2026-03-28T16:38:11.931Z</time></trkpt><trkpt lat="45.9784215" lon="12.7453773"><ele>28.999999999999996</ele><time>2026-03-28T16:38:14.93Z</time></trkpt><trkpt lat="45.9784843" lon="12.7453254"><ele>29.0</ele><time>2026-03-28T16:38:16.93Z</time></trkpt><trkpt lat="45.978597" lon="12.7453344"><ele>29.0</ele><time>2026-03-28T16:38:18.93Z</time></trkpt><trkpt lat="45.9786979" lon="12.745311"><ele>29.0</ele><time>2026-03-28T16:38:20.93Z</time></trkpt><trkpt lat="45.9787884" lon="12.7452972"><ele>29.0</ele><time>2026-03-28T16:38:22.931Z</time></trkpt><trkpt lat="45.9788795" lon="12.745259"><ele>29.0</ele><time>2026-03-28T16:38:24.931Z</time></trkpt><trkpt lat="45.9789784" lon="12.7452054"><ele>29.0</ele><time>2026-03-28T16:38:26.931Z</time></trkpt><trkpt lat="45.9790317" lon="12.74511"><ele>28.833333333333332</ele><time>2026-03-28T16:38:28.93Z</time></trkpt><trkpt lat="45.9790283" lon="12.7449617"><ele>28.666666666666664</ele><time>2026-03-28T16:38:30.931Z</time></trkpt><trkpt lat="45.9790227" lon="12.7448232"><ele>28.5</ele><time>2026-03-28T16:38:32.93Z</time></trkpt><trkpt lat="45.9790808" lon="12.7447701"><ele>28.333333333333336</ele><time>2026-03-28T16:38:34.93Z</time></trkpt><trkpt lat="45.9791626" lon="12.7447717"><ele>28.166666666666668</ele><time>2026-03-28T16:38:36.93Z</time></trkpt><trkpt lat="45.9792211" lon="12.7447367"><ele>28.0</ele><time>2026-03-28T16:38:38.93Z</time></trkpt><trkpt lat="45.9792793" lon="12.7446738"><ele>28.0</ele><time>2026-03-28T16:38:40.931Z</time></trkpt><trkpt lat="45.9792444" lon="12.7445447"><ele>27.999999999999996</ele><time>2026-03-28T16:38:42.93Z</time></trkpt><trkpt lat="45.979155" lon="12.7445015"><ele>27.999999999999996</ele><time>2026-03-28T16:38:43.931Z</time></trkpt><trkpt lat="45.979056" lon="12.744513"><ele>28.0</ele><time>2026-03-28T16:38:45.931Z</time></trkpt><trkpt lat="45.978975" lon="12.7445805"><ele>28.0</ele><time>2026-03-28T16:38:47.93Z</time></trkpt><trkpt lat="45.9789329" lon="12.7446992"><ele>28.799999999999997</ele><time>2026-03-28T16:38:49.931Z</time></trkpt><trkpt lat="45.9789061" lon="12.744811"><ele>29.599999999999998</ele><time>2026-03-28T16:38:51.931Z</time></trkpt><trkpt lat="45.9788585" lon="12.7449252"><ele>30.400000000000002</ele><time>2026-03-28T16:38:53.931Z</time></trkpt><trkpt lat="45.9787827" lon="12.7450291"><ele>31.200000000000003</ele><time>2026-03-28T16:38:55.93Z</time></trkpt><trkpt lat="45.9787043" lon="12.7450969"><ele>32.0</ele><time>2026-03-28T16:38:57.93Z</time></trkpt><trkpt lat="45.9785891" lon="12.7451548"><ele>32.0</ele><time>2026-03-28T16:38:59.93Z</time></trkpt><trkpt lat="45.9784776" lon="12.7452077"><ele>32.0</ele><time>2026-03-28T16:39:01.93Z</time></trkpt><trkpt lat="45.9783673" lon="12.7452731"><ele>32.0</ele><time>2026-03-28T16:39:03.93Z</time></trkpt><trkpt lat="45.9782817" lon="12.7453555"><ele>32.0</ele><time>2026-03-28T16:39:05.93Z</time></trkpt><trkpt lat="45.9782394" lon="12.7454861"><ele>32.0</ele><time>2026-03-28T16:39:07.93Z</time></trkpt><trkpt lat="45.9782374" lon="12.7456162"><ele>32.2</ele><time>2026-03-28T16:39:09.93Z</time></trkpt><trkpt lat="45.9782589" lon="12.7457415"><ele>32.400000000000006</ele><time>2026-03-28T16:39:11.93Z</time></trkpt><trkpt lat="45.9782726" lon="12.7458306"><ele>32.599999999999994</ele><time>2026-03-28T16:39:12.931Z</time></trkpt><trkpt lat="45.9782863" lon="12.7459801"><ele>32.8</ele><time>2026-03-28T16:39:14.93Z</time></trkpt><trkpt lat="45.9782924" lon="12.7460905"><ele>33.0</ele><time>2026-03-28T16:39:15.93Z</time></trkpt><trkpt lat="45.97831" lon="12.746279"><ele>32.6</ele><time>2026-03-28T16:39:17.93Z</time></trkpt><trkpt lat="45.9783215" lon="12.7464254"><ele>32.199999999999996</ele><time>2026-03-28T16:39:19.93Z</time></trkpt><trkpt lat="45.9783783" lon="12.7465585"><ele>31.8</ele><time>2026-03-28T16:39:21.93Z</time></trkpt><trkpt lat="45.9784509" lon="12.7466894"><ele>31.4</ele><time>2026-03-28T16:39:23.93Z</time></trkpt><trkpt lat="45.9785343" lon="12.7467992"><ele>31.0</ele><time>2026-03-28T16:39:25.929Z</time></trkpt><trkpt lat="45.9786151" lon="12.746951"><ele>30.6</ele><time>2026-03-28T16:39:27.93Z</time></trkpt><trkpt lat="45.9786926" lon="12.7470801"><ele>30.200000000000003</ele><time>2026-03-28T16:39:29.93Z</time></trkpt><trkpt lat="45.9787802" lon="12.7471298"><ele>29.799999999999997</ele><time>2026-03-28T16:39:31.931Z</time></trkpt><trkpt lat="45.9788549" lon="12.7471295"><ele>29.4</ele><time>2026-03-28T16:39:33.93Z</time></trkpt><trkpt lat="45.9789564" lon="12.7471181"><ele>29.0</ele><time>2026-03-28T16:39:36.93Z</time></trkpt><trkpt lat="45.9790422" lon="12.7471021"><ele>29.0</ele><time>2026-03-28T16:39:38.93Z</time></trkpt><trkpt lat="45.9791201" lon="12.7472"><ele>29.0</ele><time>2026-03-28T16:39:40.931Z</time></trkpt><trkpt lat="45.9791037" lon="12.7472883"><ele>29.0</ele><time>2026-03-28T16:39:41.93Z</time></trkpt><trkpt lat="45.979128" lon="12.7474109"><ele>29.0</ele><time>2026-03-28T16:39:43.93Z</time></trkpt><trkpt lat="45.9791937" lon="12.7475309"><ele>29.0</ele><time>2026-03-28T16:39:45.931Z</time></trkpt><trkpt lat="45.9792792" lon="12.7476249"><ele>29.499999999999996</ele><time>2026-03-28T16:39:47.93Z</time></trkpt><trkpt lat="45.9793571" lon="12.7476717"><ele>30.0</ele><time>2026-03-28T16:39:49.93Z</time></trkpt><trkpt lat="45.9794175" lon="12.7477307"><ele>30.5</ele><time>2026-03-28T16:39:51.93Z</time></trkpt><trkpt lat="45.9794433" lon="12.747821"><ele>31.0</ele><time>2026-03-28T16:39:53.93Z</time></trkpt><trkpt lat="45.9795247" lon="12.7479069"><ele>31.499999999999996</ele><time>2026-03-28T16:39:55.931Z</time></trkpt><trkpt lat="45.9796176" lon="12.7479493"><ele>32.0</ele><time>2026-03-28T16:39:57.931Z</time></trkpt><trkpt lat="45.9796805" lon="12.7479384"><ele>32.2</ele><time>2026-03-28T16:39:58.931Z</time></trkpt><trkpt lat="45.9797544" lon="12.7479264"><ele>32.400000000000006</ele><time>2026-03-28T16:39:59.93Z</time></trkpt><trkpt lat="45.9798298" lon="12.7479212"><ele>32.599999999999994</ele><time>2026-03-28T16:40:00.93Z</time></trkpt><trkpt lat="45.9799362" lon="12.7478882"><ele>32.8</ele><time>2026-03-28T16:40:02.931Z</time></trkpt><trkpt lat="45.9800112" lon="12.7478046"><ele>33.0</ele><time>2026-03-28T16:40:04.93Z</time></trkpt><trkpt lat="45.9800459" lon="12.7476733"><ele>33.0</ele><time>2026-03-28T16:40:06.93Z</time></trkpt><trkpt lat="45.9800446" lon="12.7475764"><ele>33.0</ele><time>2026-03-28T16:40:07.931Z</time></trkpt><trkpt lat="45.9800731" lon="12.7474681"><ele>33.0</ele><time>2026-03-28T16:40:09.93Z</time></trkpt><trkpt lat="45.9801623" lon="12.7474126"><ele>33.0</ele><time>2026-03-28T16:40:12.93Z</time></trkpt><trkpt lat="45.9802427" lon="12.7473827"><ele>33.0</ele><time>2026-03-28T16:40:14.931Z</time></trkpt><trkpt lat="45.9803466" lon="12.7473373"><ele>33.0</ele><time>2026-03-28T16:40:16.93Z</time></trkpt><trkpt lat="45.9804307" lon="12.7472445"><ele>33.0</ele><time>2026-03-28T16:40:18.93Z</time></trkpt><trkpt lat="45.9805141" lon="12.7471942"><ele>33.0</ele><time>2026-03-28T16:40:20.93Z</time></trkpt><trkpt lat="45.9805955" lon="12.747263"><ele>33.0</ele><time>2026-03-28T16:40:22.93Z</time></trkpt><trkpt lat="45.9806906" lon="12.7473368"><ele>33.0</ele><time>2026-03-28T16:40:24.93Z</time></trkpt><trkpt lat="45.9807883" lon="12.7473845"><ele>33.0</ele><time>2026-03-28T16:40:26.93Z</time></trkpt><trkpt lat="45.9808677" lon="12.7474019"><ele>33.0</ele><time>2026-03-28T16:40:28.931Z</time></trkpt><trkpt lat="45.9809852" lon="12.7473957"><ele>33.0</ele><time>2026-03-28T16:40:30.93Z</time></trkpt><trkpt lat="45.981087" lon="12.7474426"><ele>33.0</ele><time>2026-03-28T16:40:32.93Z</time></trkpt><trkpt lat="45.9810618" lon="12.747539"><ele>33.0</ele><time>2026-03-28T16:40:33.93Z</time></trkpt><trkpt lat="45.9810411" lon="12.7476441"><ele>33.0</ele><time>2026-03-28T16:40:35.93Z</time></trkpt><trkpt lat="45.9809809" lon="12.7477733"><ele>33.0</ele><time>2026-03-28T16:40:37.931Z</time></trkpt><trkpt lat="45.9809128" lon="12.7479158"><ele>33.0</ele><time>2026-03-28T16:40:39.931Z</time></trkpt><trkpt lat="45.9808936" lon="12.7480342"><ele>33.0</ele><time>2026-03-28T16:40:41.931Z</time></trkpt><trkpt lat="45.9809334" lon="12.7481177"><ele>33.0</ele><time>2026-03-28T16:40:43.93Z</time></trkpt><trkpt lat="45.9810459" lon="12.7481306"><ele>33.0</ele><time>2026-03-28T16:40:46.93Z</time></trkpt><trkpt lat="45.9810966" lon="12.7480751"><ele>33.0</ele><time>2026-03-28T16:40:47.93Z</time></trkpt><trkpt lat="45.9811774" lon="12.7480797"><ele>33.0</ele><time>2026-03-28T16:40:49.93Z</time></trkpt><trkpt lat="45.981229" lon="12.748179"><ele>33.0</ele><time>2026-03-28T16:40:51.93Z</time></trkpt><trkpt lat="45.9812073" lon="12.7483003"><ele>33.0</ele><time>2026-03-28T16:40:53.931Z</time></trkpt><trkpt lat="45.9811228" lon="12.7484342"><ele>33.0</ele><time>2026-03-28T16:40:55.931Z</time></trkpt><trkpt lat="45.9810485" lon="12.7485529"><ele>33.166666666666664</ele><time>2026-03-28T16:40:57.931Z</time></trkpt><trkpt lat="45.9809859" lon="12.7486164"><ele>33.333333333333336</ele><time>2026-03-28T16:40:59.931Z</time></trkpt><trkpt lat="45.9809408" lon="12.7486808"><ele>33.5</ele><time>2026-03-28T16:41:01.93Z</time></trkpt><trkpt lat="45.9808956" lon="12.7487604"><ele>33.66666666666667</ele><time>2026-03-28T16:41:04.93Z</time></trkpt><trkpt lat="45.9808083" lon="12.7487646"><ele>33.833333333333336</ele><time>2026-03-28T16:41:08.931Z</time></trkpt><trkpt lat="45.9807308" lon="12.7487001"><ele>34.0</ele><time>2026-03-28T16:41:11.931Z</time></trkpt><trkpt lat="45.980651" lon="12.7486352"><ele>33.66666666666667</ele><time>2026-03-28T16:41:13.93Z</time></trkpt><trkpt lat="45.9805351" lon="12.7485831"><ele>33.333333333333336</ele><time>2026-03-28T16:41:15.931Z</time></trkpt><trkpt lat="45.9804653" lon="12.7485486"><ele>33.0</ele><time>2026-03-28T16:41:16.931Z</time></trkpt><trkpt lat="45.9803903" lon="12.748513"><ele>32.666666666666664</ele><time>2026-03-28T16:41:17.931Z</time></trkpt><trkpt lat="45.9803119" lon="12.7484727"><ele>32.33333333333333</ele><time>2026-03-28T16:41:18.93Z</time></trkpt><trkpt lat="45.9802374" lon="12.7484283"><ele>32.0</ele><time>2026-03-28T16:41:19.93Z</time></trkpt><trkpt lat="45.9801654" lon="12.7484009"><ele>31.999999999999996</ele><time>2026-03-28T16:41:20.93Z</time></trkpt><trkpt lat="45.9800818" lon="12.748374"><ele>32.0</ele><time>2026-03-28T16:41:21.93Z</time></trkpt><trkpt lat="45.9800123" lon="12.748372"><ele>32.0</ele><time>2026-03-28T16:41:22.931Z</time></trkpt><trkpt lat="45.9799521" lon="12.7484014"><ele>32.0</ele><time>2026-03-28T16:41:23.93Z</time></trkpt><trkpt lat="45.9798479" lon="12.7484102"><ele>31.999999999999996</ele><time>2026-03-28T16:41:25.93Z</time></trkpt><trkpt lat="45.9797814" lon="12.7483597"><ele>32.0</ele><time>2026-03-28T16:41:27.931Z</time></trkpt><trkpt lat="45.9796894" lon="12.7483229"><ele>32.166666666666664</ele><time>2026-03-28T16:41:30.931Z</time></trkpt><trkpt lat="45.979621" lon="12.7482811"><ele>32.33333333333333</ele><time>2026-03-28T16:41:32.93Z</time></trkpt><trkpt lat="45.9795566" lon="12.7482202"><ele>32.5</ele><time>2026-03-28T16:41:35.932Z</time></trkpt><trkpt lat="45.9795253" lon="12.7481118"><ele>32.666666666666664</ele><time>2026-03-28T16:41:39.93Z</time></trkpt><trkpt lat="45.9795613" lon="12.7479902"><ele>32.833333333333336</ele><time>2026-03-28T16:41:42.93Z</time></trkpt><trkpt lat="45.9794836" lon="12.7479226"><ele>33.0</ele><time>2026-03-28T16:41:45.93Z</time></trkpt><trkpt lat="45.979447" lon="12.7478377"><ele>33.0</ele><time>2026-03-28T16:41:47.93Z</time></trkpt><trkpt lat="45.9794341" lon="12.7477272"><ele>33.0</ele><time>2026-03-28T16:41:49.931Z</time></trkpt><trkpt lat="45.9794513" lon="12.7476224"><ele>33.0</ele><time>2026-03-28T16:41:51.93Z</time></trkpt><trkpt lat="45.9794487" lon="12.7475304"><ele>33.0</ele><time>2026-03-28T16:41:53.931Z</time></trkpt><trkpt lat="45.9793766" lon="12.7474454"><ele>33.0</ele><time>2026-03-28T16:41:55.931Z</time></trkpt><trkpt lat="45.9793623" lon="12.7473258"><ele>33.0</ele><time>2026-03-28T16:41:57.931Z</time></trkpt><trkpt lat="45.979357" lon="12.7471797"><ele>32.833333333333336</ele><time>2026-03-28T16:41:59.93Z</time></trkpt><trkpt lat="45.9793644" lon="12.7470798"><ele>32.666666666666664</ele><time>2026-03-28T16:42:00.93Z</time></trkpt><trkpt lat="45.9793762" lon="12.7469851"><ele>32.5</ele><time>2026-03-28T16:42:01.93Z</time></trkpt><trkpt lat="45.9793911" lon="12.7468877"><ele>32.33333333333333</ele><time>2026-03-28T16:42:02.93Z</time></trkpt><trkpt lat="45.9794165" lon="12.7467264"><ele>32.166666666666664</ele><time>2026-03-28T16:42:04.93Z</time></trkpt><trkpt lat="45.9794254" lon="12.7466319"><ele>32.0</ele><time>2026-03-28T16:42:05.93Z</time></trkpt><trkpt lat="45.9794273" lon="12.7465326"><ele>31.666666666666664</ele><time>2026-03-28T16:42:06.93Z</time></trkpt><trkpt lat="45.9794206" lon="12.7464333"><ele>31.333333333333332</ele><time>2026-03-28T16:42:07.93Z</time></trkpt><trkpt lat="45.9794133" lon="12.7463242"><ele>31.0</ele><time>2026-03-28T16:42:08.93Z</time></trkpt><trkpt lat="45.9793989" lon="12.7462109"><ele>30.666666666666664</ele><time>2026-03-28T16:42:09.93Z</time></trkpt><trkpt lat="45.9793859" lon="12.7460737"><ele>30.333333333333332</ele><time>2026-03-28T16:42:10.931Z</time></trkpt><trkpt lat="45.9793789" lon="12.7459113"><ele>30.0</ele><time>2026-03-28T16:42:11.931Z</time></trkpt><trkpt lat="45.9793792" lon="12.7457459"><ele>29.833333333333332</ele><time>2026-03-28T16:42:12.93Z</time></trkpt><trkpt lat="45.9793796" lon="12.7456031"><ele>29.666666666666664</ele><time>2026-03-28T16:42:13.93Z</time></trkpt><trkpt lat="45.9793752" lon="12.7454705"><ele>29.5</ele><time>2026-03-28T16:42:14.93Z</time></trkpt><trkpt lat="45.9793615" lon="12.745362"><ele>29.333333333333332</ele><time>2026-03-28T16:42:15.931Z</time></trkpt><trkpt lat="45.9793479" lon="12.7452589"><ele>29.166666666666664</ele><time>2026-03-28T16:42:16.93Z</time></trkpt><trkpt lat="45.9793246" lon="12.7451531"><ele>29.0</ele><time>2026-03-28T16:42:17.93Z</time></trkpt><trkpt lat="45.9792703" lon="12.745052"><ele>29.0</ele><time>2026-03-28T16:42:19.931Z</time></trkpt><trkpt lat="45.9791784" lon="12.7450819"><ele>29.0</ele><time>2026-03-28T16:42:21.93Z</time></trkpt><trkpt lat="45.9791697" lon="12.7452573"><ele>29.0</ele><time>2026-03-28T16:42:23.93Z</time></trkpt><trkpt lat="45.9791677" lon="12.7454316"><ele>29.0</ele><time>2026-03-28T16:42:25.929Z</time></trkpt><trkpt lat="45.9791703" lon="12.7455728"><ele>29.0</ele><time>2026-03-28T16:42:27.93Z</time></trkpt><trkpt lat="45.9790941" lon="12.7456637"><ele>29.0</ele><time>2026-03-28T16:42:29.931Z</time></trkpt><trkpt lat="45.9790062" lon="12.7457226"><ele>29.0</ele><time>2026-03-28T16:42:31.93Z</time></trkpt><trkpt lat="45.9789627" lon="12.745852"><ele>29.0</ele><time>2026-03-28T16:42:33.931Z</time></trkpt><trkpt lat="45.9789361" lon="12.7459856"><ele>29.0</ele><time>2026-03-28T16:42:35.93Z</time></trkpt><trkpt lat="45.9788566" lon="12.7460762"><ele>29.0</ele><time>2026-03-28T16:42:37.93Z</time></trkpt><trkpt lat="45.9788116" lon="12.7459792"><ele>29.0</ele><time>2026-03-28T16:42:40.93Z</time></trkpt><trkpt lat="45.9788493" lon="12.7458722"><ele>29.0</ele><time>2026-03-28T16:42:42.931Z</time></trkpt><trkpt lat="45.9788841" lon="12.7457152"><ele>29.0</ele><time>2026-03-28T16:42:44.93Z</time></trkpt><trkpt lat="45.9789573" lon="12.7456005"><ele>29.0</ele><time>2026-03-28T16:42:46.93Z</time></trkpt><trkpt lat="45.9790149" lon="12.7454581"><ele>29.0</ele><time>2026-03-28T16:42:48.93Z</time></trkpt><trkpt lat="45.9789994" lon="12.7453599"><ele>28.999999999999996</ele><time>2026-03-28T16:42:50.93Z</time></trkpt><trkpt lat="45.9789314" lon="12.7454165"><ele>29.0</ele><time>2026-03-28T16:42:51.93Z</time></trkpt><trkpt lat="45.9788962" lon="12.7455005"><ele>29.0</ele><time>2026-03-28T16:42:53.93Z</time></trkpt><trkpt lat="45.978809" lon="12.7455684"><ele>29.0</ele><time>2026-03-28T16:42:55.93Z</time></trkpt><trkpt lat="45.9787108" lon="12.7455917"><ele>28.999999999999996</ele><time>2026-03-28T16:42:57.93Z</time></trkpt><trkpt lat="45.978644" lon="12.7455765"><ele>29.0</ele><time>2026-03-28T16:42:58.931Z</time></trkpt><trkpt lat="45.97855" lon="12.7455639"><ele>28.999999999999996</ele><time>2026-03-28T16:43:00.93Z</time></trkpt><trkpt lat="45.9784768" lon="12.7455292"><ele>29.0</ele><time>2026-03-28T16:43:02.93Z</time></trkpt><trkpt lat="45.9783994" lon="12.7454437"><ele>29.0</ele><time>2026-03-28T16:43:04.931Z</time></trkpt><trkpt lat="45.9784536" lon="12.7453413"><ele>29.0</ele><time>2026-03-28T16:43:07.931Z</time></trkpt><trkpt lat="45.9785258" lon="12.7453252"><ele>28.999999999999996</ele><time>2026-03-28T16:43:09.931Z</time></trkpt><trkpt lat="45.9786124" lon="12.7453182"><ele>29.0</ele><time>2026-03-28T16:43:10.931Z</time></trkpt><trkpt lat="45.9787198" lon="12.7453002"><ele>29.0</ele><time>2026-03-28T16:43:12.931Z</time></trkpt><trkpt lat="45.9788325" lon="12.7452901"><ele>29.0</ele><time>2026-03-28T16:43:14.93Z</time></trkpt><trkpt lat="45.9789046" lon="12.7452489"><ele>29.0</ele><time>2026-03-28T16:43:16.931Z</time></trkpt><trkpt lat="45.9789975" lon="12.7451724"><ele>29.0</ele><time>2026-03-28T16:43:18.93Z</time></trkpt><trkpt lat="45.9790291" lon="12.7450492"><ele>29.0</ele><time>2026-03-28T16:43:20.93Z</time></trkpt><trkpt lat="45.97902" lon="12.7449162"><ele>28.799999999999997</ele><time>2026-03-28T16:43:22.93Z</time></trkpt><trkpt lat="45.9790287" lon="12.7447906"><ele>28.599999999999998</ele><time>2026-03-28T16:43:24.93Z</time></trkpt><trkpt lat="45.9791201" lon="12.7447488"><ele>28.4</ele><time>2026-03-28T16:43:26.93Z</time></trkpt><trkpt lat="45.9792024" lon="12.7447497"><ele>28.2</ele><time>2026-03-28T16:43:28.93Z</time></trkpt><trkpt lat="45.9792716" lon="12.744676"><ele>28.0</ele><time>2026-03-28T16:43:30.931Z</time></trkpt><trkpt lat="45.9792693" lon="12.7445124"><ele>28.000000000000004</ele><time>2026-03-28T16:43:33.93Z</time></trkpt><trkpt lat="45.9792083" lon="12.744467"><ele>28.0</ele><time>2026-03-28T16:43:34.93Z</time></trkpt><trkpt lat="45.9791271" lon="12.7444924"><ele>28.0</ele><time>2026-03-28T16:43:35.93Z</time></trkpt><trkpt lat="45.9790389" lon="12.7445473"><ele>28.0</ele><time>2026-03-28T16:43:37.93Z</time></trkpt><trkpt lat="45.9789717" lon="12.7446231"><ele>28.000000000000004</ele><time>2026-03-28T16:43:39.93Z</time></trkpt><trkpt lat="45.9789334" lon="12.7447291"><ele>28.0</ele><time>2026-03-28T16:43:41.93Z</time></trkpt><trkpt lat="45.9789039" lon="12.7448551"><ele>28.799999999999997</ele><time>2026-03-28T16:43:43.93Z</time></trkpt><trkpt lat="45.9788668" lon="12.7449688"><ele>29.599999999999998</ele><time>2026-03-28T16:43:45.93Z</time></trkpt><trkpt lat="45.9787815" lon="12.745045"><ele>30.400000000000002</ele><time>2026-03-28T16:43:47.931Z</time></trkpt><trkpt lat="45.9786842" lon="12.7451073"><ele>31.200000000000003</ele><time>2026-03-28T16:43:49.93Z</time></trkpt><trkpt lat="45.9785782" lon="12.7451649"><ele>32.0</ele><time>2026-03-28T16:43:51.93Z</time></trkpt><trkpt lat="45.9784809" lon="12.7451926"><ele>32.2</ele><time>2026-03-28T16:43:53.93Z</time></trkpt><trkpt lat="45.9783821" lon="12.7452497"><ele>32.400000000000006</ele><time>2026-03-28T16:43:55.931Z</time></trkpt><trkpt lat="45.9782881" lon="12.7453535"><ele>32.599999999999994</ele><time>2026-03-28T16:43:57.931Z</time></trkpt><trkpt lat="45.9782475" lon="12.7455022"><ele>32.8</ele><time>2026-03-28T16:43:59.931Z</time></trkpt><trkpt lat="45.9782392" lon="12.7456439"><ele>33.0</ele><time>2026-03-28T16:44:01.93Z</time></trkpt><trkpt lat="45.9782527" lon="12.7457908"><ele>33.0</ele><time>2026-03-28T16:44:03.93Z</time></trkpt><trkpt lat="45.9782784" lon="12.7459676"><ele>33.0</ele><time>2026-03-28T16:44:05.931Z</time></trkpt><trkpt lat="45.9782898" lon="12.7461273"><ele>33.0</ele><time>2026-03-28T16:44:07.931Z</time></trkpt><trkpt lat="45.9783184" lon="12.7463106"><ele>33.0</ele><time>2026-03-28T16:44:09.929Z</time></trkpt><trkpt lat="45.9783349" lon="12.7464547"><ele>32.199999999999996</ele><time>2026-03-28T16:44:11.931Z</time></trkpt><trkpt lat="45.9783798" lon="12.7465775"><ele>31.4</ele><time>2026-03-28T16:44:13.931Z</time></trkpt><trkpt lat="45.9784387" lon="12.7466806"><ele>30.599999999999998</ele><time>2026-03-28T16:44:15.93Z</time></trkpt><trkpt lat="45.9784834" lon="12.7467452"><ele>29.799999999999997</ele><time>2026-03-28T16:44:16.931Z</time></trkpt><trkpt lat="45.9785796" lon="12.74688"><ele>29.0</ele><time>2026-03-28T16:44:18.93Z</time></trkpt><trkpt lat="45.9786565" lon="12.7470227"><ele>28.999999999999996</ele><time>2026-03-28T16:44:20.931Z</time></trkpt><trkpt lat="45.9787156" lon="12.7470681"><ele>29.0</ele><time>2026-03-28T16:44:21.93Z</time></trkpt><trkpt lat="45.9787798" lon="12.7471466"><ele>29.0</ele><time>2026-03-28T16:44:23.93Z</time></trkpt><trkpt lat="45.9788668" lon="12.7471481"><ele>29.0</ele><time>2026-03-28T16:44:26.93Z</time></trkpt><trkpt lat="45.9789415" lon="12.747106"><ele>28.999999999999996</ele><time>2026-03-28T16:44:29.93Z</time></trkpt><trkpt lat="45.9790292" lon="12.7471122"><ele>29.0</ele><time>2026-03-28T16:44:31.931Z</time></trkpt><trkpt lat="45.9790888" lon="12.7472311"><ele>29.0</ele><time>2026-03-28T16:44:33.93Z</time></trkpt><trkpt lat="45.979116" lon="12.7473537"><ele>29.0</ele><time>2026-03-28T16:44:35.931Z</time></trkpt><trkpt lat="45.9791498" lon="12.7474812"><ele>29.0</ele><time>2026-03-28T16:44:37.93Z</time></trkpt><trkpt lat="45.979222" lon="12.7475951"><ele>29.0</ele><time>2026-03-28T16:44:39.931Z</time></trkpt><trkpt lat="45.9793236" lon="12.7476517"><ele>29.0</ele><time>2026-03-28T16:44:41.93Z</time></trkpt><trkpt lat="45.9794019" lon="12.747704"><ele>29.666666666666664</ele><time>2026-03-28T16:44:43.931Z</time></trkpt><trkpt lat="45.9794294" lon="12.7477952"><ele>30.333333333333332</ele><time>2026-03-28T16:44:45.93Z</time></trkpt><trkpt lat="45.9794761" lon="12.7478956"><ele>31.0</ele><time>2026-03-28T16:44:47.931Z</time></trkpt><trkpt lat="45.9795415" lon="12.7479488"><ele>31.666666666666664</ele><time>2026-03-28T16:44:49.93Z</time></trkpt><trkpt lat="45.9796374" lon="12.7479503"><ele>32.333333333333336</ele><time>2026-03-28T16:44:51.931Z</time></trkpt><trkpt lat="45.9797109" lon="12.7479398"><ele>33.0</ele><time>2026-03-28T16:44:52.931Z</time></trkpt><trkpt lat="45.9797874" lon="12.7479345"><ele>33.0</ele><time>2026-03-28T16:44:53.931Z</time></trkpt><trkpt lat="45.9798591" lon="12.7479132"><ele>33.0</ele><time>2026-03-28T16:44:54.93Z</time></trkpt><trkpt lat="45.9799716" lon="12.7478671"><ele>33.0</ele><time>2026-03-28T16:44:56.93Z</time></trkpt><trkpt lat="45.9800557" lon="12.7477795"><ele>33.0</ele><time>2026-03-28T16:44:58.93Z</time></trkpt><trkpt lat="45.9800784" lon="12.7476902"><ele>33.0</ele><time>2026-03-28T16:44:59.93Z</time></trkpt><trkpt lat="45.9800539" lon="12.7475488"><ele>33.0</ele><time>2026-03-28T16:45:01.931Z</time></trkpt><trkpt lat="45.9800807" lon="12.7474639"><ele>33.0</ele><time>2026-03-28T16:45:03.931Z</time></trkpt><trkpt lat="45.9801707" lon="12.7474061"><ele>33.0</ele><time>2026-03-28T16:45:06.93Z</time></trkpt><trkpt lat="45.9802618" lon="12.7473972"><ele>33.0</ele><time>2026-03-28T16:45:08.931Z</time></trkpt><trkpt lat="45.9803534" lon="12.747343"><ele>33.0</ele><time>2026-03-28T16:45:10.931Z</time></trkpt><trkpt lat="45.9804262" lon="12.7472486"><ele>33.0</ele><time>2026-03-28T16:45:12.931Z</time></trkpt><trkpt lat="45.9805067" lon="12.7472106"><ele>33.0</ele><time>2026-03-28T16:45:14.93Z</time></trkpt><trkpt lat="45.9805915" lon="12.747274"><ele>33.0</ele><time>2026-03-28T16:45:16.93Z</time></trkpt><trkpt lat="45.9806871" lon="12.7473427"><ele>33.0</ele><time>2026-03-28T16:45:18.93Z</time></trkpt><trkpt lat="45.9807841" lon="12.7473921"><ele>33.0</ele><time>2026-03-28T16:45:20.931Z</time></trkpt><trkpt lat="45.9809219" lon="12.7474021"><ele>33.0</ele><time>2026-03-28T16:45:23.931Z</time></trkpt><trkpt lat="45.9810101" lon="12.747413"><ele>33.0</ele><time>2026-03-28T16:45:25.93Z</time></trkpt><trkpt lat="45.9810397" lon="12.7475151"><ele>33.0</ele><time>2026-03-28T16:45:27.93Z</time></trkpt><trkpt lat="45.9810383" lon="12.7476269"><ele>33.0</ele><time>2026-03-28T16:45:29.931Z</time></trkpt><trkpt lat="45.9809959" lon="12.7477485"><ele>33.0</ele><time>2026-03-28T16:45:31.93Z</time></trkpt><trkpt lat="45.9809384" lon="12.7478746"><ele>33.0</ele><time>2026-03-28T16:45:33.931Z</time></trkpt><trkpt lat="45.9808851" lon="12.7480089"><ele>33.0</ele><time>2026-03-28T16:45:35.93Z</time></trkpt><trkpt lat="45.9809104" lon="12.7481173"><ele>33.0</ele><time>2026-03-28T16:45:37.93Z</time></trkpt><trkpt lat="45.9809876" lon="12.7481414"><ele>33.0</ele><time>2026-03-28T16:45:39.931Z</time></trkpt><trkpt lat="45.9810773" lon="12.7480866"><ele>33.0</ele><time>2026-03-28T16:45:41.929Z</time></trkpt><trkpt lat="45.9811812" lon="12.7480536"><ele>33.0</ele><time>2026-03-28T16:45:43.931Z</time></trkpt><trkpt lat="45.9812506" lon="12.748119"><ele>33.0</ele><time>2026-03-28T16:45:45.931Z</time></trkpt><trkpt lat="45.9812582" lon="12.7482198"><ele>33.0</ele><time>2026-03-28T16:45:47.93Z</time></trkpt><trkpt lat="45.9812009" lon="12.7483106"><ele>33.0</ele><time>2026-03-28T16:45:48.93Z</time></trkpt><trkpt lat="45.9811545" lon="12.748404"><ele>33.0</ele><time>2026-03-28T16:45:49.93Z</time></trkpt><trkpt lat="45.9810732" lon="12.7485266"><ele>33.0</ele><time>2026-03-28T16:45:51.931Z</time></trkpt><trkpt lat="45.9810143" lon="12.7486178"><ele>33.0</ele><time>2026-03-28T16:45:53.93Z</time></trkpt><trkpt lat="45.9809527" lon="12.7486645"><ele>33.0</ele><time>2026-03-28T16:45:55.93Z</time></trkpt><trkpt lat="45.9809168" lon="12.7487416"><ele>33.166666666666664</ele><time>2026-03-28T16:45:57.93Z</time></trkpt><trkpt lat="45.9808499" lon="12.7487871"><ele>33.333333333333336</ele><time>2026-03-28T16:46:09.931Z</time></trkpt><trkpt lat="45.980784" lon="12.748791"><ele>33.5</ele><time>2026-03-28T16:46:19.93Z</time></trkpt><trkpt lat="45.9807111" lon="12.748716"><ele>33.66666666666667</ele><time>2026-03-28T16:46:25.931Z</time></trkpt><trkpt lat="45.9806563" lon="12.7486603"><ele>33.833333333333336</ele><time>2026-03-28T16:46:27.93Z</time></trkpt><trkpt lat="45.9805572" lon="12.7486036"><ele>34.0</ele><time>2026-03-28T16:46:29.93Z</time></trkpt><trkpt lat="45.9804931" lon="12.7485894"><ele>33.66666666666667</ele><time>2026-03-28T16:46:30.93Z</time></trkpt><trkpt lat="45.9804316" lon="12.7485591"><ele>33.333333333333336</ele><time>2026-03-28T16:46:31.931Z</time></trkpt><trkpt lat="45.9803352" lon="12.7484967"><ele>33.0</ele><time>2026-03-28T16:46:33.93Z</time></trkpt><trkpt lat="45.9802711" lon="12.7484615"><ele>32.666666666666664</ele><time>2026-03-28T16:46:34.931Z</time></trkpt><trkpt lat="45.9802046" lon="12.7484283"><ele>32.33333333333333</ele><time>2026-03-28T16:46:35.93Z</time></trkpt><trkpt lat="45.9801244" lon="12.7483902"><ele>32.0</ele><time>2026-03-28T16:46:36.931Z</time></trkpt><trkpt lat="45.9800576" lon="12.7483894"><ele>32.166666666666664</ele><time>2026-03-28T16:46:37.93Z</time></trkpt><trkpt lat="45.9799457" lon="12.7483983"><ele>32.33333333333333</ele><time>2026-03-28T16:46:39.93Z</time></trkpt><trkpt lat="45.9798501" lon="12.7483993"><ele>32.5</ele><time>2026-03-28T16:46:41.931Z</time></trkpt><trkpt lat="45.9797871" lon="12.7483769"><ele>32.666666666666664</ele><time>2026-03-28T16:46:43.93Z</time></trkpt><trkpt lat="45.9797149" lon="12.7483217"><ele>32.833333333333336</ele><time>2026-03-28T16:46:48.93Z</time></trkpt><trkpt lat="45.9796417" lon="12.748301"><ele>33.0</ele><time>2026-03-28T16:46:51.93Z</time></trkpt><trkpt lat="45.9795847" lon="12.7482616"><ele>33.0</ele><time>2026-03-28T16:47:01.93Z</time></trkpt><trkpt lat="45.9795378" lon="12.7481927"><ele>33.0</ele><time>2026-03-28T16:47:14.931Z</time></trkpt><trkpt lat="45.9795321" lon="12.748067"><ele>33.0</ele><time>2026-03-28T16:47:44.93Z</time></trkpt><trkpt lat="45.9795235" lon="12.7479574"><ele>33.0</ele><time>2026-03-28T16:47:48.93Z</time></trkpt><trkpt lat="45.9794668" lon="12.7479105"><ele>33.0</ele><time>2026-03-28T16:47:50.93Z</time></trkpt><trkpt lat="45.9794342" lon="12.7478267"><ele>33.0</ele><time>2026-03-28T16:47:52.93Z</time></trkpt><trkpt lat="45.9794341" lon="12.7477279"><ele>33.0</ele><time>2026-03-28T16:47:54.931Z</time></trkpt><trkpt lat="45.9794459" lon="12.7476074"><ele>32.8</ele><time>2026-03-28T16:47:56.93Z</time></trkpt><trkpt lat="45.9793992" lon="12.7475175"><ele>32.599999999999994</ele><time>2026-03-28T16:47:58.93Z</time></trkpt><trkpt lat="45.9793472" lon="12.7474244"><ele>32.400000000000006</ele><time>2026-03-28T16:48:00.931Z</time></trkpt><trkpt lat="45.9793524" lon="12.7472858"><ele>32.2</ele><time>2026-03-28T16:48:02.931Z</time></trkpt><trkpt lat="45.9793725" lon="12.747132"><ele>32.0</ele><time>2026-03-28T16:48:04.931Z</time></trkpt><trkpt lat="45.9793807" lon="12.7469447"><ele>31.666666666666664</ele><time>2026-03-28T16:48:06.93Z</time></trkpt><trkpt lat="45.9794001" lon="12.7467635"><ele>31.333333333333332</ele><time>2026-03-28T16:48:08.93Z</time></trkpt><trkpt lat="45.9794095" lon="12.7466419"><ele>31.0</ele><time>2026-03-28T16:48:09.93Z</time></trkpt><trkpt lat="45.9794246" lon="12.7465392"><ele>30.666666666666664</ele><time>2026-03-28T16:48:10.93Z</time></trkpt><trkpt lat="45.9794219" lon="12.7464324"><ele>30.333333333333332</ele><time>2026-03-28T16:48:11.931Z</time></trkpt><trkpt lat="45.979419" lon="12.7463186"><ele>30.0</ele><time>2026-03-28T16:48:12.93Z</time></trkpt><trkpt lat="45.9794025" lon="12.7461996"><ele>30.0</ele><time>2026-03-28T16:48:13.93Z</time></trkpt><trkpt lat="45.9793924" lon="12.7460923"><ele>30.0</ele><time>2026-03-28T16:48:14.93Z</time></trkpt><trkpt lat="45.9793852" lon="12.7459592"><ele>30.0</ele><time>2026-03-28T16:48:15.931Z</time></trkpt><trkpt lat="45.9793705" lon="12.7458319"><ele>30.0</ele><time>2026-03-28T16:48:16.93Z</time></trkpt><trkpt lat="45.9793668" lon="12.7456634"><ele>30.0</ele><time>2026-03-28T16:48:17.931Z</time></trkpt><trkpt lat="45.9793624" lon="12.7455348"><ele>29.833333333333332</ele><time>2026-03-28T16:48:18.931Z</time></trkpt><trkpt lat="45.9793615" lon="12.7454239"><ele>29.666666666666664</ele><time>2026-03-28T16:48:19.931Z</time></trkpt><trkpt lat="45.979342" lon="12.7453363"><ele>29.5</ele><time>2026-03-28T16:48:20.931Z</time></trkpt><trkpt lat="45.9793181" lon="12.7452275"><ele>29.333333333333332</ele><time>2026-03-28T16:48:21.931Z</time></trkpt><trkpt lat="45.9792821" lon="12.7450884"><ele>29.166666666666664</ele><time>2026-03-28T16:48:23.931Z</time></trkpt><trkpt lat="45.9792017" lon="12.7450705"><ele>29.0</ele><time>2026-03-28T16:48:25.93Z</time></trkpt><trkpt lat="45.9791705" lon="12.7451723"><ele>29.0</ele><time>2026-03-28T16:48:27.931Z</time></trkpt><trkpt lat="45.9791646" lon="12.7453156"><ele>29.0</ele><time>2026-03-28T16:48:29.93Z</time></trkpt><trkpt lat="45.9791768" lon="12.7454081"><ele>29.0</ele><time>2026-03-28T16:48:30.93Z</time></trkpt><trkpt lat="45.979172" lon="12.7455641"><ele>29.0</ele><time>2026-03-28T16:48:32.93Z</time></trkpt><trkpt lat="45.9791211" lon="12.7456468"><ele>29.0</ele><time>2026-03-28T16:48:34.931Z</time></trkpt><trkpt lat="45.9790255" lon="12.7457059"><ele>28.999999999999996</ele><time>2026-03-28T16:48:36.931Z</time></trkpt><trkpt lat="45.9789802" lon="12.7458191"><ele>29.0</ele><time>2026-03-28T16:48:38.93Z</time></trkpt><trkpt lat="45.978949" lon="12.7459507"><ele>29.0</ele><time>2026-03-28T16:48:40.93Z</time></trkpt><trkpt lat="45.9788966" lon="12.7460405"><ele>29.0</ele><time>2026-03-28T16:48:42.931Z</time></trkpt><trkpt lat="45.9788328" lon="12.7460189"><ele>28.999999999999996</ele><time>2026-03-28T16:48:45.93Z</time></trkpt><trkpt lat="45.9788462" lon="12.7458881"><ele>29.0</ele><time>2026-03-28T16:48:47.93Z</time></trkpt><trkpt lat="45.9788627" lon="12.7457568"><ele>28.999999999999996</ele><time>2026-03-28T16:48:49.931Z</time></trkpt><trkpt lat="45.9789318" lon="12.7456234"><ele>29.0</ele><time>2026-03-28T16:48:51.93Z</time></trkpt><trkpt lat="45.9789962" lon="12.7455223"><ele>29.0</ele><time>2026-03-28T16:48:53.93Z</time></trkpt><trkpt lat="45.9789717" lon="12.7454159"><ele>29.0</ele><time>2026-03-28T16:48:55.93Z</time></trkpt><trkpt lat="45.9789075" lon="12.7453665"><ele>28.999999999999996</ele><time>2026-03-28T16:48:58.93Z</time></trkpt><trkpt lat="45.9788856" lon="12.7454631"><ele>29.0</ele><time>2026-03-28T16:48:59.93Z</time></trkpt><trkpt lat="45.9787988" lon="12.7455215"><ele>28.999999999999996</ele><time>2026-03-28T16:49:01.931Z</time></trkpt><trkpt lat="45.9787027" lon="12.745561"><ele>29.0</ele><time>2026-03-28T16:49:03.931Z</time></trkpt><trkpt lat="45.978614" lon="12.7455497"><ele>29.0</ele><time>2026-03-28T16:49:05.93Z</time></trkpt><trkpt lat="45.9785336" lon="12.7455454"><ele>29.0</ele><time>2026-03-28T16:49:07.93Z</time></trkpt><trkpt lat="45.9784342" lon="12.7455126"><ele>28.999999999999996</ele><time>2026-03-28T16:49:09.931Z</time></trkpt><trkpt lat="45.9784336" lon="12.7454037"><ele>29.0</ele><time>2026-03-28T16:49:11.93Z</time></trkpt><trkpt lat="45.9785058" lon="12.7453428"><ele>29.0</ele><time>2026-03-28T16:49:15.93Z</time></trkpt><trkpt lat="45.9786422" lon="12.7453266"><ele>29.0</ele><time>2026-03-28T16:49:17.93Z</time></trkpt><trkpt lat="45.9787096" lon="12.7453196"><ele>29.0</ele><time>2026-03-28T16:49:18.93Z</time></trkpt><trkpt lat="45.978794" lon="12.7453022"><ele>29.0</ele><time>2026-03-28T16:49:20.93Z</time></trkpt><trkpt lat="45.9788986" lon="12.7452358"><ele>29.0</ele><time>2026-03-28T16:49:22.93Z</time></trkpt><trkpt lat="45.9789981" lon="12.7451239"><ele>28.833333333333332</ele><time>2026-03-28T16:49:24.93Z</time></trkpt><trkpt lat="45.9790318" lon="12.7450153"><ele>28.666666666666664</ele><time>2026-03-28T16:49:26.93Z</time></trkpt><trkpt lat="45.9790287" lon="12.7448744"><ele>28.5</ele><time>2026-03-28T16:49:28.93Z</time></trkpt><trkpt lat="45.9790729" lon="12.7447676"><ele>28.333333333333336</ele><time>2026-03-28T16:49:30.93Z</time></trkpt><trkpt lat="45.9791379" lon="12.7447494"><ele>28.166666666666668</ele><time>2026-03-28T16:49:32.93Z</time></trkpt><trkpt lat="45.9792414" lon="12.7447541"><ele>28.0</ele><time>2026-03-28T16:49:34.93Z</time></trkpt><trkpt lat="45.9792587" lon="12.7446467"><ele>28.0</ele><time>2026-03-28T16:49:36.93Z</time></trkpt><trkpt lat="45.9792239" lon="12.7445511"><ele>27.999999999999996</ele><time>2026-03-28T16:49:38.931Z</time></trkpt><trkpt lat="45.9791233" lon="12.7445034"><ele>27.999999999999996</ele><time>2026-03-28T16:49:40.93Z</time></trkpt><trkpt lat="45.9790326" lon="12.7445308"><ele>28.0</ele><time>2026-03-28T16:49:42.93Z</time></trkpt><trkpt lat="45.9789454" lon="12.7446185"><ele>28.0</ele><time>2026-03-28T16:49:44.931Z</time></trkpt><trkpt lat="45.9789103" lon="12.7447286"><ele>28.799999999999997</ele><time>2026-03-28T16:49:46.93Z</time></trkpt><trkpt lat="45.9788982" lon="12.7448544"><ele>29.599999999999998</ele><time>2026-03-28T16:49:48.93Z</time></trkpt><trkpt lat="45.9788409" lon="12.7449714"><ele>30.400000000000002</ele><time>2026-03-28T16:49:50.931Z</time></trkpt><trkpt lat="45.9787626" lon="12.7450584"><ele>31.200000000000003</ele><time>2026-03-28T16:49:52.931Z</time></trkpt><trkpt lat="45.9786564" lon="12.7451083"><ele>32.0</ele><time>2026-03-28T16:49:54.93Z</time></trkpt><trkpt lat="45.9785902" lon="12.74514"><ele>32.0</ele><time>2026-03-28T16:49:55.93Z</time></trkpt><trkpt lat="45.9784885" lon="12.7451962"><ele>32.0</ele><time>2026-03-28T16:49:57.931Z</time></trkpt><trkpt lat="45.9784018" lon="12.7452318"><ele>32.0</ele><time>2026-03-28T16:49:59.93Z</time></trkpt><trkpt lat="45.9783076" lon="12.7453203"><ele>32.0</ele><time>2026-03-28T16:50:01.93Z</time></trkpt><trkpt lat="45.9782557" lon="12.7454698"><ele>32.0</ele><time>2026-03-28T16:50:03.93Z</time></trkpt><trkpt lat="45.9782398" lon="12.7456187"><ele>32.2</ele><time>2026-03-28T16:50:05.931Z</time></trkpt><trkpt lat="45.9782433" lon="12.7457667"><ele>32.400000000000006</ele><time>2026-03-28T16:50:07.93Z</time></trkpt><trkpt lat="45.9782479" lon="12.7459394"><ele>32.599999999999994</ele><time>2026-03-28T16:50:09.93Z</time></trkpt><trkpt lat="45.978247" lon="12.7460304"><ele>32.8</ele><time>2026-03-28T16:50:10.93Z</time></trkpt><trkpt lat="45.9782695" lon="12.7461938"><ele>33.0</ele><time>2026-03-28T16:50:12.93Z</time></trkpt><trkpt lat="45.9782963" lon="12.7463657"><ele>32.6</ele><time>2026-03-28T16:50:14.93Z</time></trkpt><trkpt lat="45.9783318" lon="12.7465252"><ele>32.199999999999996</ele><time>2026-03-28T16:50:16.93Z</time></trkpt><trkpt lat="45.9783745" lon="12.7466255"><ele>31.8</ele><time>2026-03-28T16:50:18.93Z</time></trkpt><trkpt lat="45.9784579" lon="12.7467434"><ele>31.4</ele><time>2026-03-28T16:50:20.931Z</time></trkpt><trkpt lat="45.9785513" lon="12.7468649"><ele>31.0</ele><time>2026-03-28T16:50:22.93Z</time></trkpt><trkpt lat="45.9785976" lon="12.7469395"><ele>30.666666666666668</ele><time>2026-03-28T16:50:23.93Z</time></trkpt><trkpt lat="45.9786437" lon="12.7470043"><ele>30.333333333333336</ele><time>2026-03-28T16:50:24.931Z</time></trkpt><trkpt lat="45.9787233" lon="12.7470904"><ele>30.0</ele><time>2026-03-28T16:50:26.931Z</time></trkpt><trkpt lat="45.9788042" lon="12.7471291"><ele>29.666666666666664</ele><time>2026-03-28T16:50:29.931Z</time></trkpt><trkpt lat="45.9788912" lon="12.7471046"><ele>29.333333333333332</ele><time>2026-03-28T16:50:32.931Z</time></trkpt><trkpt lat="45.9789752" lon="12.7470991"><ele>29.0</ele><time>2026-03-28T16:50:34.931Z</time></trkpt><trkpt lat="45.9790472" lon="12.7472161"><ele>29.0</ele><time>2026-03-28T16:50:38.93Z</time></trkpt><trkpt lat="45.9791313" lon="12.7474445"><ele>29.0</ele><time>2026-03-28T16:50:40.93Z</time></trkpt><trkpt lat="45.9791835" lon="12.7475515"><ele>29.0</ele><time>2026-03-28T16:50:42.93Z</time></trkpt><trkpt lat="45.979248" lon="12.7476793"><ele>29.0</ele><time>2026-03-28T16:50:44.931Z</time></trkpt><trkpt lat="45.9793305" lon="12.7476933"><ele>29.666666666666664</ele><time>2026-03-28T16:50:46.93Z</time></trkpt><trkpt lat="45.9793934" lon="12.747776"><ele>30.333333333333332</ele><time>2026-03-28T16:50:49.931Z</time></trkpt><trkpt lat="45.9794321" lon="12.7478719"><ele>31.0</ele><time>2026-03-28T16:50:51.931Z</time></trkpt><trkpt lat="45.9794977" lon="12.747947"><ele>31.666666666666664</ele><time>2026-03-28T16:50:53.931Z</time></trkpt><trkpt lat="45.9795787" lon="12.747945"><ele>32.333333333333336</ele><time>2026-03-28T16:50:54.931Z</time></trkpt><trkpt lat="45.979696" lon="12.7479373"><ele>33.0</ele><time>2026-03-28T16:50:56.93Z</time></trkpt><trkpt lat="45.9797671" lon="12.7479359"><ele>33.0</ele><time>2026-03-28T16:50:57.93Z</time></trkpt><trkpt lat="45.979832" lon="12.7479229"><ele>33.0</ele><time>2026-03-28T16:50:58.93Z</time></trkpt><trkpt lat="45.9799068" lon="12.7479145"><ele>33.0</ele><time>2026-03-28T16:50:59.93Z</time></trkpt><trkpt lat="45.9799977" lon="12.7478392"><ele>33.0</ele><time>2026-03-28T16:51:01.93Z</time></trkpt><trkpt lat="45.980033" lon="12.7477395"><ele>33.0</ele><time>2026-03-28T16:51:03.931Z</time></trkpt><trkpt lat="45.9800599" lon="12.7475595"><ele>33.0</ele><time>2026-03-28T16:51:05.93Z</time></trkpt><trkpt lat="45.9800538" lon="12.7474615"><ele>33.0</ele><time>2026-03-28T16:51:06.93Z</time></trkpt><trkpt lat="45.9800429" lon="12.7473624"><ele>33.0</ele><time>2026-03-28T16:51:07.931Z</time></trkpt><trkpt lat="45.9800183" lon="12.7472594"><ele>33.0</ele><time>2026-03-28T16:51:08.93Z</time></trkpt><trkpt lat="45.9799972" lon="12.7471654"><ele>33.0</ele><time>2026-03-28T16:51:09.93Z</time></trkpt><trkpt lat="45.9799719" lon="12.7469848"><ele>33.0</ele><time>2026-03-28T16:51:11.931Z</time></trkpt><trkpt lat="45.9799721" lon="12.746882"><ele>32.8</ele><time>2026-03-28T16:51:12.93Z</time></trkpt><trkpt lat="45.9799749" lon="12.7467893"><ele>32.599999999999994</ele><time>2026-03-28T16:51:13.93Z</time></trkpt><trkpt lat="45.9800562" lon="12.7466059"><ele>32.400000000000006</ele><time>2026-03-28T16:51:15.93Z</time></trkpt><trkpt lat="45.980112" lon="12.7464936"><ele>32.2</ele><time>2026-03-28T16:51:16.931Z</time></trkpt><trkpt lat="45.9801646" lon="12.7463949"><ele>32.0</ele><time>2026-03-28T16:51:17.931Z</time></trkpt><trkpt lat="45.9802394" lon="12.7462846"><ele>31.999999999999996</ele><time>2026-03-28T16:51:18.93Z</time></trkpt><trkpt lat="45.9802991" lon="12.7461953"><ele>32.0</ele><time>2026-03-28T16:51:19.93Z</time></trkpt><trkpt lat="45.9803516" lon="12.7461092"><ele>32.0</ele><time>2026-03-28T16:51:20.93Z</time></trkpt><trkpt lat="45.9804063" lon="12.7460322"><ele>32.0</ele><time>2026-03-28T16:51:21.93Z</time></trkpt><trkpt lat="45.9804467" lon="12.7459558"><ele>31.999999999999996</ele><time>2026-03-28T16:51:22.93Z</time></trkpt><trkpt lat="45.9804974" lon="12.7458751"><ele>32.0</ele><time>2026-03-28T16:51:23.931Z</time></trkpt><trkpt lat="45.9805644" lon="12.7457442"><ele>31.857142857142854</ele><time>2026-03-28T16:51:25.93Z</time></trkpt><trkpt lat="45.9806106" lon="12.7456631"><ele>31.71428571428571</ele><time>2026-03-28T16:51:26.93Z</time></trkpt><trkpt lat="45.980651" lon="12.7455859"><ele>31.57142857142857</ele><time>2026-03-28T16:51:27.93Z</time></trkpt><trkpt lat="45.980671" lon="12.7454995"><ele>31.42857142857143</ele><time>2026-03-28T16:51:28.93Z</time></trkpt><trkpt lat="45.9806808" lon="12.7453985"><ele>31.28571428571429</ele><time>2026-03-28T16:51:29.93Z</time></trkpt><trkpt lat="45.9806776" lon="12.7452796"><ele>31.142857142857146</ele><time>2026-03-28T16:51:30.93Z</time></trkpt><trkpt lat="45.9806756" lon="12.7451743"><ele>31.0</ele><time>2026-03-28T16:51:31.93Z</time></trkpt><trkpt lat="45.9806863" lon="12.7450661"><ele>30.833333333333336</ele><time>2026-03-28T16:51:32.93Z</time></trkpt><trkpt lat="45.9806969" lon="12.7449713"><ele>30.666666666666668</ele><time>2026-03-28T16:51:33.931Z</time></trkpt><trkpt lat="45.9807358" lon="12.7448886"><ele>30.5</ele><time>2026-03-28T16:51:35.931Z</time></trkpt><trkpt lat="45.9808479" lon="12.7449446"><ele>30.333333333333336</ele><time>2026-03-28T16:51:38.931Z</time></trkpt><trkpt lat="45.9809044" lon="12.7450066"><ele>30.166666666666668</ele><time>2026-03-28T16:51:39.931Z</time></trkpt><trkpt lat="45.9809605" lon="12.7450629"><ele>30.0</ele><time>2026-03-28T16:51:40.93Z</time></trkpt><trkpt lat="45.9810403" lon="12.7451264"><ele>30.4</ele><time>2026-03-28T16:51:41.931Z</time></trkpt><trkpt lat="45.9811078" lon="12.7452001"><ele>30.8</ele><time>2026-03-28T16:51:42.931Z</time></trkpt><trkpt lat="45.9811659" lon="12.7452998"><ele>31.200000000000003</ele><time>2026-03-28T16:51:43.93Z</time></trkpt><trkpt lat="45.9812179" lon="12.7454132"><ele>31.6</ele><time>2026-03-28T16:51:44.93Z</time></trkpt><trkpt lat="45.981258" lon="12.7455711"><ele>32.0</ele><time>2026-03-28T16:51:45.93Z</time></trkpt><trkpt lat="45.9813102" lon="12.745717"><ele>32.25</ele><time>2026-03-28T16:51:46.931Z</time></trkpt><trkpt lat="45.9813626" lon="12.7458587"><ele>32.5</ele><time>2026-03-28T16:51:47.931Z</time></trkpt><trkpt lat="45.9814223" lon="12.7460062"><ele>32.75</ele><time>2026-03-28T16:51:48.931Z</time></trkpt><trkpt lat="45.9814798" lon="12.7461726"><ele>33.0</ele><time>2026-03-28T16:51:49.93Z</time></trkpt><trkpt lat="45.9815398" lon="12.746343"><ele>32.75</ele><time>2026-03-28T16:51:50.93Z</time></trkpt><trkpt lat="45.9816101" lon="12.7465153"><ele>32.5</ele><time>2026-03-28T16:51:51.931Z</time></trkpt><trkpt lat="45.9816749" lon="12.7466756"><ele>32.25</ele><time>2026-03-28T16:51:52.931Z</time></trkpt><trkpt lat="45.9817328" lon="12.7468342"><ele>32.0</ele><time>2026-03-28T16:51:53.93Z</time></trkpt><trkpt lat="45.9817917" lon="12.746983"><ele>32.0</ele><time>2026-03-28T16:51:54.93Z</time></trkpt><trkpt lat="45.9818526" lon="12.7471507"><ele>32.0</ele><time>2026-03-28T16:51:55.931Z</time></trkpt><trkpt lat="45.9819218" lon="12.7473356"><ele>32.0</ele><time>2026-03-28T16:51:56.93Z</time></trkpt><trkpt lat="45.9819868" lon="12.7475155"><ele>32.0</ele><time>2026-03-28T16:51:57.931Z</time></trkpt><trkpt lat="45.9820573" lon="12.7476989"><ele>32.25</ele><time>2026-03-28T16:51:58.931Z</time></trkpt><trkpt lat="45.9821327" lon="12.7478841"><ele>32.5</ele><time>2026-03-28T16:51:59.93Z</time></trkpt><trkpt lat="45.9822031" lon="12.7480418"><ele>32.75</ele><time>2026-03-28T16:52:00.931Z</time></trkpt><trkpt lat="45.9822558" lon="12.7481885"><ele>33.0</ele><time>2026-03-28T16:52:01.931Z</time></trkpt><trkpt lat="45.9822986" lon="12.7483071"><ele>33.0</ele><time>2026-03-28T16:52:02.93Z</time></trkpt><trkpt lat="45.9823264" lon="12.7484176"><ele>33.0</ele><time>2026-03-28T16:52:03.931Z</time></trkpt><trkpt lat="45.9823536" lon="12.7485178"><ele>33.0</ele><time>2026-03-28T16:52:04.93Z</time></trkpt><trkpt lat="45.9823848" lon="12.7485986"><ele>33.0</ele><time>2026-03-28T16:52:05.93Z</time></trkpt><trkpt lat="45.9824658" lon="12.7486732"><ele>33.0</ele><time>2026-03-28T16:52:07.929Z</time></trkpt><trkpt lat="45.9825591" lon="12.7486328"><ele>33.0</ele><time>2026-03-28T16:52:09.931Z</time></trkpt><trkpt lat="45.982666" lon="12.74858"><ele>33.4</ele><time>2026-03-28T16:52:11.931Z</time></trkpt><trkpt lat="45.9827724" lon="12.748581"><ele>33.8</ele><time>2026-03-28T16:52:13.93Z</time></trkpt><trkpt lat="45.9828503" lon="12.7486469"><ele>34.2</ele><time>2026-03-28T16:52:14.93Z</time></trkpt><trkpt lat="45.9829365" lon="12.748679"><ele>34.6</ele><time>2026-03-28T16:52:15.931Z</time></trkpt><trkpt lat="45.9830322" lon="12.7487054"><ele>35.0</ele><time>2026-03-28T16:52:16.93Z</time></trkpt><trkpt lat="45.9831315" lon="12.7487225"><ele>35.0</ele><time>2026-03-28T16:52:17.93Z</time></trkpt><trkpt lat="45.9832328" lon="12.7487215"><ele>35.0</ele><time>2026-03-28T16:52:18.93Z</time></trkpt><trkpt lat="45.98334" lon="12.748714"><ele>35.0</ele><time>2026-03-28T16:52:19.93Z</time></trkpt><trkpt lat="45.9834587" lon="12.7487164"><ele>35.0</ele><time>2026-03-28T16:52:20.93Z</time></trkpt><trkpt lat="45.9835734" lon="12.7487142"><ele>35.0</ele><time>2026-03-28T16:52:21.93Z</time></trkpt><trkpt lat="45.9836978" lon="12.74871"><ele>34.75</ele><time>2026-03-28T16:52:22.93Z</time></trkpt><trkpt lat="45.9838314" lon="12.7487105"><ele>34.5</ele><time>2026-03-28T16:52:23.93Z</time></trkpt><trkpt lat="45.9839545" lon="12.7487152"><ele>34.25</ele><time>2026-03-28T16:52:24.93Z</time></trkpt><trkpt lat="45.9840723" lon="12.7487155"><ele>34.0</ele><time>2026-03-28T16:52:25.93Z</time></trkpt><trkpt lat="45.9841959" lon="12.7487227"><ele>33.75</ele><time>2026-03-28T16:52:26.93Z</time></trkpt><trkpt lat="45.9843251" lon="12.7487288"><ele>33.5</ele><time>2026-03-28T16:52:27.931Z</time></trkpt><trkpt lat="45.984446" lon="12.7487256"><ele>33.25</ele><time>2026-03-28T16:52:28.931Z</time></trkpt><trkpt lat="45.9845602" lon="12.7487079"><ele>33.0</ele><time>2026-03-28T16:52:29.931Z</time></trkpt><trkpt lat="45.9846772" lon="12.7486695"><ele>33.0</ele><time>2026-03-28T16:52:30.931Z</time></trkpt><trkpt lat="45.9848061" lon="12.7486111"><ele>33.0</ele><time>2026-03-28T16:52:31.93Z</time></trkpt><trkpt lat="45.9849416" lon="12.7485476"><ele>33.0</ele><time>2026-03-28T16:52:32.93Z</time></trkpt><trkpt lat="45.9850746" lon="12.7484883"><ele>33.0</ele><time>2026-03-28T16:52:33.93Z</time></trkpt><trkpt lat="45.9852142" lon="12.7484302"><ele>33.25</ele><time>2026-03-28T16:52:34.93Z</time></trkpt><trkpt lat="45.9853472" lon="12.7483698"><ele>33.5</ele><time>2026-03-28T16:52:35.931Z</time></trkpt><trkpt lat="45.9854772" lon="12.7483073"><ele>33.75</ele><time>2026-03-28T16:52:36.93Z</time></trkpt><trkpt lat="45.9855987" lon="12.7482543"><ele>34.0</ele><time>2026-03-28T16:52:37.931Z</time></trkpt><trkpt lat="45.9857033" lon="12.748189"><ele>34.0</ele><time>2026-03-28T16:52:38.931Z</time></trkpt><trkpt lat="45.985807" lon="12.7481018"><ele>34.0</ele><time>2026-03-28T16:52:39.93Z</time></trkpt><trkpt lat="45.9859141" lon="12.7480165"><ele>34.0</ele><time>2026-03-28T16:52:40.931Z</time></trkpt><trkpt lat="45.9860176" lon="12.7479175"><ele>34.0</ele><time>2026-03-28T16:52:41.93Z</time></trkpt><trkpt lat="45.9861166" lon="12.7478091"><ele>34.75</ele><time>2026-03-28T16:52:42.931Z</time></trkpt><trkpt lat="45.9861988" lon="12.7476976"><ele>35.5</ele><time>2026-03-28T16:52:43.93Z</time></trkpt><trkpt lat="45.9862819" lon="12.7475827"><ele>36.25</ele><time>2026-03-28T16:52:44.93Z</time></trkpt><trkpt lat="45.9863723" lon="12.7474632"><ele>37.0</ele><time>2026-03-28T16:52:45.93Z</time></trkpt><trkpt lat="45.9864609" lon="12.747363"><ele>37.0</ele><time>2026-03-28T16:52:46.93Z</time></trkpt><trkpt lat="45.9865587" lon="12.7472678"><ele>37.0</ele><time>2026-03-28T16:52:47.931Z</time></trkpt><trkpt lat="45.9866702" lon="12.7471913"><ele>37.0</ele><time>2026-03-28T16:52:48.93Z</time></trkpt><trkpt lat="45.986793" lon="12.747136"><ele>37.0</ele><time>2026-03-28T16:52:49.93Z</time></trkpt><trkpt lat="45.9869261" lon="12.7470947"><ele>36.66666666666667</ele><time>2026-03-28T16:52:50.93Z</time></trkpt><trkpt lat="45.9870672" lon="12.7470571"><ele>36.333333333333336</ele><time>2026-03-28T16:52:51.93Z</time></trkpt><trkpt lat="45.9872131" lon="12.7470144"><ele>36.0</ele><time>2026-03-28T16:52:52.931Z</time></trkpt><trkpt lat="45.9873688" lon="12.7469777"><ele>36.0</ele><time>2026-03-28T16:52:53.93Z</time></trkpt><trkpt lat="45.9875296" lon="12.7469503"><ele>36.0</ele><time>2026-03-28T16:52:54.93Z</time></trkpt><trkpt lat="45.9876835" lon="12.7469098"><ele>36.0</ele><time>2026-03-28T16:52:55.93Z</time></trkpt><trkpt lat="45.9878357" lon="12.7468626"><ele>36.0</ele><time>2026-03-28T16:52:56.931Z</time></trkpt><trkpt lat="45.987981" lon="12.7468155"><ele>36.0</ele><time>2026-03-28T16:52:57.93Z</time></trkpt><trkpt lat="45.9881311" lon="12.7467775"><ele>36.0</ele><time>2026-03-28T16:52:58.93Z</time></trkpt><trkpt lat="45.9882841" lon="12.7467324"><ele>36.0</ele><time>2026-03-28T16:52:59.931Z</time></trkpt><trkpt lat="45.9884366" lon="12.7466902"><ele>36.0</ele><time>2026-03-28T16:53:00.931Z</time></trkpt><trkpt lat="45.9885878" lon="12.7466466"><ele>36.0</ele><time>2026-03-28T16:53:01.93Z</time></trkpt><trkpt lat="45.9887452" lon="12.7466051"><ele>36.0</ele><time>2026-03-28T16:53:02.93Z</time></trkpt><trkpt lat="45.9889056" lon="12.7465588"><ele>36.0</ele><time>2026-03-28T16:53:03.931Z</time></trkpt><trkpt lat="45.9890671" lon="12.74652"><ele>36.0</ele><time>2026-03-28T16:53:04.931Z</time></trkpt><trkpt lat="45.9892314" lon="12.7464763"><ele>37.333333333333336</ele><time>2026-03-28T16:53:05.93Z</time></trkpt><trkpt lat="45.9893975" lon="12.7464301"><ele>38.66666666666667</ele><time>2026-03-28T16:53:06.931Z</time></trkpt><trkpt lat="45.989566" lon="12.7463899"><ele>40.0</ele><time>2026-03-28T16:53:07.93Z</time></trkpt><trkpt lat="45.9897331" lon="12.7463485"><ele>40.0</ele><time>2026-03-28T16:53:08.93Z</time></trkpt><trkpt lat="45.9898977" lon="12.7463065"><ele>40.0</ele><time>2026-03-28T16:53:09.931Z</time></trkpt><trkpt lat="45.990057" lon="12.7462677"><ele>40.0</ele><time>2026-03-28T16:53:10.931Z</time></trkpt><trkpt lat="45.9902116" lon="12.7462293"><ele>40.333333333333336</ele><time>2026-03-28T16:53:11.93Z</time></trkpt><trkpt lat="45.9903728" lon="12.7461867"><ele>40.666666666666664</ele><time>2026-03-28T16:53:12.93Z</time></trkpt><trkpt lat="45.9905262" lon="12.7461485"><ele>41.0</ele><time>2026-03-28T16:53:13.93Z</time></trkpt><trkpt lat="45.9906856" lon="12.7461035"><ele>41.0</ele><time>2026-03-28T16:53:14.93Z</time></trkpt><trkpt lat="45.9908423" lon="12.7460619"><ele>41.0</ele><time>2026-03-28T16:53:15.931Z</time></trkpt><trkpt lat="45.9909965" lon="12.7460194"><ele>41.0</ele><time>2026-03-28T16:53:16.931Z</time></trkpt><trkpt lat="45.9911467" lon="12.7459844"><ele>40.666666666666664</ele><time>2026-03-28T16:53:17.93Z</time></trkpt><trkpt lat="45.9913013" lon="12.7459428"><ele>40.333333333333336</ele><time>2026-03-28T16:53:18.931Z</time></trkpt><trkpt lat="45.9914578" lon="12.7459062"><ele>40.0</ele><time>2026-03-28T16:53:19.93Z</time></trkpt><trkpt lat="45.9916136" lon="12.7458685"><ele>39.66666666666667</ele><time>2026-03-28T16:53:20.93Z</time></trkpt><trkpt lat="45.9917721" lon="12.7458293"><ele>39.333333333333336</ele><time>2026-03-28T16:53:21.93Z</time></trkpt><trkpt lat="45.9919335" lon="12.7457868"><ele>39.0</ele><time>2026-03-28T16:53:22.93Z</time></trkpt><trkpt lat="45.992098" lon="12.745743"><ele>39.0</ele><time>2026-03-28T16:53:23.931Z</time></trkpt><trkpt lat="45.9922641" lon="12.745701"><ele>39.0</ele><time>2026-03-28T16:53:24.931Z</time></trkpt><trkpt lat="45.9924313" lon="12.7456566"><ele>39.0</ele><time>2026-03-28T16:53:25.931Z</time></trkpt><trkpt lat="45.9926028" lon="12.7456119"><ele>39.0</ele><time>2026-03-28T16:53:26.93Z</time></trkpt><trkpt lat="45.9927752" lon="12.7455659"><ele>39.0</ele><time>2026-03-28T16:53:27.93Z</time></trkpt><trkpt lat="45.9929471" lon="12.74552"><ele>39.0</ele><time>2026-03-28T16:53:28.93Z</time></trkpt><trkpt lat="45.9931161" lon="12.7454755"><ele>39.0</ele><time>2026-03-28T16:53:29.93Z</time></trkpt><trkpt lat="45.9932708" lon="12.745433"><ele>39.0</ele><time>2026-03-28T16:53:30.93Z</time></trkpt><trkpt lat="45.9933985" lon="12.7454"><ele>39.0</ele><time>2026-03-28T16:53:31.93Z</time></trkpt><trkpt lat="45.9935233" lon="12.7453631"><ele>39.0</ele><time>2026-03-28T16:53:32.93Z</time></trkpt><trkpt lat="45.9936294" lon="12.7453371"><ele>39.6</ele><time>2026-03-28T16:53:33.931Z</time></trkpt><trkpt lat="45.9937357" lon="12.745311"><ele>40.2</ele><time>2026-03-28T16:53:34.93Z</time></trkpt><trkpt lat="45.9938303" lon="12.7452926"><ele>40.800000000000004</ele><time>2026-03-28T16:53:35.93Z</time></trkpt><trkpt lat="45.9939064" lon="12.7452819"><ele>41.4</ele><time>2026-03-28T16:53:36.93Z</time></trkpt><trkpt lat="45.9939776" lon="12.7452638"><ele>42.0</ele><time>2026-03-28T16:53:37.931Z</time></trkpt><trkpt lat="45.9940713" lon="12.7452193"><ele>42.0</ele><time>2026-03-28T16:53:39.93Z</time></trkpt><trkpt lat="45.9941329" lon="12.7451559"><ele>42.0</ele><time>2026-03-28T16:53:41.931Z</time></trkpt><trkpt lat="45.9941632" lon="12.7450207"><ele>42.0</ele><time>2026-03-28T16:53:43.931Z</time></trkpt><trkpt lat="45.9941667" lon="12.7449232"><ele>42.0</ele><time>2026-03-28T16:53:44.931Z</time></trkpt><trkpt lat="45.9941638" lon="12.7448074"><ele>42.0</ele><time>2026-03-28T16:53:45.931Z</time></trkpt><trkpt lat="45.9941593" lon="12.744662"><ele>42.0</ele><time>2026-03-28T16:53:46.931Z</time></trkpt><trkpt lat="45.9941567" lon="12.7444975"><ele>42.0</ele><time>2026-03-28T16:53:47.93Z</time></trkpt><trkpt lat="45.9941591" lon="12.7443275"><ele>42.0</ele><time>2026-03-28T16:53:48.93Z</time></trkpt><trkpt lat="45.9941596" lon="12.7441559"><ele>42.0</ele><time>2026-03-28T16:53:49.931Z</time></trkpt><trkpt lat="45.994156" lon="12.7439715"><ele>42.0</ele><time>2026-03-28T16:53:50.93Z</time></trkpt><trkpt lat="45.9941562" lon="12.7437807"><ele>42.0</ele><time>2026-03-28T16:53:51.931Z</time></trkpt><trkpt lat="45.9941668" lon="12.7435826"><ele>42.0</ele><time>2026-03-28T16:53:52.931Z</time></trkpt><trkpt lat="45.9941748" lon="12.7433983"><ele>42.0</ele><time>2026-03-28T16:53:53.93Z</time></trkpt><trkpt lat="45.9941883" lon="12.7432063"><ele>42.0</ele><time>2026-03-28T16:53:54.93Z</time></trkpt><trkpt lat="45.994207" lon="12.7430115"><ele>42.25</ele><time>2026-03-28T16:53:55.931Z</time></trkpt><trkpt lat="45.9942204" lon="12.7428136"><ele>42.5</ele><time>2026-03-28T16:53:56.93Z</time></trkpt><trkpt lat="45.9942303" lon="12.7426168"><ele>42.75</ele><time>2026-03-28T16:53:57.931Z</time></trkpt><trkpt lat="45.9942409" lon="12.7424191"><ele>43.0</ele><time>2026-03-28T16:53:58.93Z</time></trkpt><trkpt lat="45.9942577" lon="12.7422073"><ele>43.0</ele><time>2026-03-28T16:53:59.931Z</time></trkpt><trkpt lat="45.9942783" lon="12.7419944"><ele>43.0</ele><time>2026-03-28T16:54:00.93Z</time></trkpt><trkpt lat="45.994305" lon="12.7417843"><ele>43.0</ele><time>2026-03-28T16:54:01.931Z</time></trkpt><trkpt lat="45.9943208" lon="12.7416066"><ele>43.0</ele><time>2026-03-28T16:54:02.931Z</time></trkpt><trkpt lat="45.9943244" lon="12.7414458"><ele>42.8</ele><time>2026-03-28T16:54:03.93Z</time></trkpt><trkpt lat="45.9943304" lon="12.7413003"><ele>42.599999999999994</ele><time>2026-03-28T16:54:04.931Z</time></trkpt><trkpt lat="45.9943467" lon="12.7411626"><ele>42.400000000000006</ele><time>2026-03-28T16:54:05.93Z</time></trkpt><trkpt lat="45.9943652" lon="12.7410298"><ele>42.2</ele><time>2026-03-28T16:54:06.93Z</time></trkpt><trkpt lat="45.9943783" lon="12.7408826"><ele>42.0</ele><time>2026-03-28T16:54:07.93Z</time></trkpt><trkpt lat="45.994391" lon="12.7407218"><ele>41.75</ele><time>2026-03-28T16:54:08.93Z</time></trkpt><trkpt lat="45.994402" lon="12.7405419"><ele>41.5</ele><time>2026-03-28T16:54:09.929Z</time></trkpt><trkpt lat="45.9944188" lon="12.7403462"><ele>41.25</ele><time>2026-03-28T16:54:10.93Z</time></trkpt><trkpt lat="45.9944453" lon="12.7401368"><ele>41.0</ele><time>2026-03-28T16:54:11.93Z</time></trkpt><trkpt lat="45.9944583" lon="12.7399221"><ele>41.0</ele><time>2026-03-28T16:54:12.93Z</time></trkpt><trkpt lat="45.994484" lon="12.7396986"><ele>41.0</ele><time>2026-03-28T16:54:13.93Z</time></trkpt><trkpt lat="45.9945055" lon="12.7394773"><ele>41.0</ele><time>2026-03-28T16:54:14.93Z</time></trkpt><trkpt lat="45.994527" lon="12.7392722"><ele>41.0</ele><time>2026-03-28T16:54:15.931Z</time></trkpt><trkpt lat="45.9945446" lon="12.7390742"><ele>41.0</ele><time>2026-03-28T16:54:16.93Z</time></trkpt><trkpt lat="45.9945519" lon="12.738907"><ele>41.0</ele><time>2026-03-28T16:54:17.93Z</time></trkpt><trkpt lat="45.994538" lon="12.7387443"><ele>41.0</ele><time>2026-03-28T16:54:18.93Z</time></trkpt><trkpt lat="45.9945073" lon="12.7385711"><ele>41.0</ele><time>2026-03-28T16:54:19.93Z</time></trkpt><trkpt lat="45.9944646" lon="12.7383908"><ele>41.0</ele><time>2026-03-28T16:54:20.93Z</time></trkpt><trkpt lat="45.9944155" lon="12.7382105"><ele>41.0</ele><time>2026-03-28T16:54:21.93Z</time></trkpt><trkpt lat="45.9943579" lon="12.7380046"><ele>41.0</ele><time>2026-03-28T16:54:22.93Z</time></trkpt><trkpt lat="45.9942991" lon="12.7378136"><ele>41.25</ele><time>2026-03-28T16:54:23.93Z</time></trkpt><trkpt lat="45.9942443" lon="12.7376397"><ele>41.5</ele><time>2026-03-28T16:54:24.93Z</time></trkpt><trkpt lat="45.9941923" lon="12.7374673"><ele>41.75</ele><time>2026-03-28T16:54:25.93Z</time></trkpt><trkpt lat="45.9941546" lon="12.7373055"><ele>42.0</ele><time>2026-03-28T16:54:26.93Z</time></trkpt><trkpt lat="45.9941274" lon="12.7371336"><ele>42.0</ele><time>2026-03-28T16:54:27.931Z</time></trkpt><trkpt lat="45.9941153" lon="12.7369493"><ele>42.0</ele><time>2026-03-28T16:54:28.93Z</time></trkpt><trkpt lat="45.9941172" lon="12.7367628"><ele>42.0</ele><time>2026-03-28T16:54:29.93Z</time></trkpt><trkpt lat="45.9941394" lon="12.7365841"><ele>42.0</ele><time>2026-03-28T16:54:30.93Z</time></trkpt><trkpt lat="45.9941681" lon="12.7364056"><ele>42.25</ele><time>2026-03-28T16:54:31.93Z</time></trkpt><trkpt lat="45.9942042" lon="12.7362045"><ele>42.5</ele><time>2026-03-28T16:54:32.93Z</time></trkpt><trkpt lat="45.9942312" lon="12.7360052"><ele>42.75</ele><time>2026-03-28T16:54:33.931Z</time></trkpt><trkpt lat="45.9942557" lon="12.7358004"><ele>43.0</ele><time>2026-03-28T16:54:34.93Z</time></trkpt><trkpt lat="45.9942746" lon="12.7356008"><ele>42.5</ele><time>2026-03-28T16:54:35.93Z</time></trkpt><trkpt lat="45.9942971" lon="12.7353954"><ele>42.0</ele><time>2026-03-28T16:54:36.93Z</time></trkpt><trkpt lat="45.994322" lon="12.7352154"><ele>41.5</ele><time>2026-03-28T16:54:37.931Z</time></trkpt><trkpt lat="45.9943507" lon="12.7350442"><ele>41.0</ele><time>2026-03-28T16:54:38.931Z</time></trkpt><trkpt lat="45.9943703" lon="12.7348989"><ele>41.0</ele><time>2026-03-28T16:54:39.931Z</time></trkpt><trkpt lat="45.9943973" lon="12.7347671"><ele>41.0</ele><time>2026-03-28T16:54:40.931Z</time></trkpt><trkpt lat="45.9944205" lon="12.7346602"><ele>41.0</ele><time>2026-03-28T16:54:41.931Z</time></trkpt><trkpt lat="45.994443" lon="12.7345389"><ele>41.0</ele><time>2026-03-28T16:54:43.93Z</time></trkpt><trkpt lat="45.9943929" lon="12.7344761"><ele>41.0</ele><time>2026-03-28T16:54:46.93Z</time></trkpt><trkpt lat="45.9943332" lon="12.7345251"><ele>41.0</ele><time>2026-03-28T16:54:50.931Z</time></trkpt><trkpt lat="45.9944046" lon="12.734501"><ele>40.99999999999999</ele><time>2026-03-28T16:54:57.93Z</time></trkpt><trkpt lat="45.9944433" lon="12.7345904"><ele>41.0</ele><time>2026-03-28T16:55:01.93Z</time></trkpt><trkpt lat="45.9943773" lon="12.7345767"><ele>41.0</ele><time>2026-03-28T16:55:05.931Z</time></trkpt><trkpt lat="45.9943607" lon="12.7344746"><ele>41.0</ele><time>2026-03-28T16:55:09.931Z</time></trkpt><trkpt lat="45.9944198" lon="12.7345107"><ele>41.0</ele><time>2026-03-28T16:55:19.931Z</time></trkpt><trkpt lat="45.9944234" lon="12.7346024"><ele>40.99999999999999</ele><time>2026-03-28T16:55:23.93Z</time></trkpt><trkpt lat="45.9943617" lon="12.7345454"><ele>41.0</ele><time>2026-03-28T16:55:28.93Z</time></trkpt><trkpt lat="45.9944168" lon="12.734501"><ele>40.99999999999999</ele><time>2026-03-28T16:55:41.931Z</time></trkpt><trkpt lat="45.994416" lon="12.7345985"><ele>41.0</ele><time>2026-03-28T16:55:45.93Z</time></trkpt><trkpt lat="45.9943635" lon="12.7345298"><ele>41.0</ele><time>2026-03-28T16:55:50.931Z</time></trkpt><trkpt lat="45.9944307" lon="12.7345346"><ele>41.0</ele><time>2026-03-28T16:56:04.93Z</time></trkpt><trkpt lat="45.9943822" lon="12.7346099"><ele>41.0</ele><time>2026-03-28T16:56:09.93Z</time></trkpt><trkpt lat="45.9943588" lon="12.7344979"><ele>40.99999999999999</ele><time>2026-03-28T16:56:14.93Z</time></trkpt><trkpt lat="45.9944332" lon="12.7345263"><ele>41.0</ele><time>2026-03-28T16:56:27.93Z</time></trkpt><trkpt lat="45.9943748" lon="12.7345633"><ele>40.99999999999999</ele><time>2026-03-28T16:56:35.931Z</time></trkpt><trkpt lat="45.9943459" lon="12.7344737"><ele>41.0</ele><time>2026-03-28T16:56:40.93Z</time></trkpt><trkpt lat="45.9944225" lon="12.7345155"><ele>41.0</ele><time>2026-03-28T16:56:58.931Z</time></trkpt><trkpt lat="45.9944131" lon="12.7346133"><ele>41.0</ele><time>2026-03-28T16:57:02.93Z</time></trkpt><trkpt lat="45.9943728" lon="12.7345395"><ele>41.0</ele><time>2026-03-28T16:57:06.93Z</time></trkpt><trkpt lat="45.9944326" lon="12.7344979"><ele>40.99999999999999</ele><time>2026-03-28T16:57:21.93Z</time></trkpt><trkpt lat="45.9944203" lon="12.7345974"><ele>41.0</ele><time>2026-03-28T16:57:26.93Z</time></trkpt><trkpt lat="45.9943702" lon="12.7345395"><ele>40.99999999999999</ele><time>2026-03-28T16:57:30.931Z</time></trkpt><trkpt lat="45.9943241" lon="12.7344685"><ele>41.0</ele><time>2026-03-28T16:57:55.93Z</time></trkpt><trkpt lat="45.994391" lon="12.7344955"><ele>41.0</ele><time>2026-03-28T16:58:03.93Z</time></trkpt><trkpt lat="45.9944391" lon="12.7345722"><ele>41.0</ele><time>2026-03-28T16:58:07.93Z</time></trkpt><trkpt lat="45.9943714" lon="12.7345577"><ele>41.0</ele><time>2026-03-28T16:58:12.93Z</time></trkpt><trkpt lat="45.9943319" lon="12.73446"><ele>40.99999999999999</ele><time>2026-03-28T16:58:16.93Z</time></trkpt><trkpt lat="45.9944085" lon="12.7344895"><ele>41.0</ele><time>2026-03-28T16:58:26.93Z</time></trkpt><trkpt lat="45.994432" lon="12.7345836"><ele>40.99999999999999</ele><time>2026-03-28T16:58:31.931Z</time></trkpt><trkpt lat="45.9943665" lon="12.7345339"><ele>41.0</ele><time>2026-03-28T16:58:36.93Z</time></trkpt><trkpt lat="45.9943541" lon="12.7344379"><ele>41.0</ele><time>2026-03-28T16:58:40.93Z</time></trkpt><trkpt lat="45.9943721" lon="12.7345331"><ele>41.0</ele><time>2026-03-28T16:58:45.93Z</time></trkpt><trkpt lat="45.9944343" lon="12.7345722"><ele>41.0</ele><time>2026-03-28T16:58:49.93Z</time></trkpt><trkpt lat="45.9943878" lon="12.7345071"><ele>40.99999999999999</ele><time>2026-03-28T16:58:55.931Z</time></trkpt><trkpt lat="45.9943251" lon="12.7345162"><ele>41.0</ele><time>2026-03-28T16:58:58.93Z</time></trkpt><trkpt lat="45.9943871" lon="12.7345421"><ele>41.0</ele><time>2026-03-28T16:59:05.93Z</time></trkpt><trkpt lat="45.9943246" lon="12.7344872"><ele>41.0</ele><time>2026-03-28T16:59:18.93Z</time></trkpt><trkpt lat="45.9943874" lon="12.7345614"><ele>41.0</ele><time>2026-03-28T16:59:25.93Z</time></trkpt><trkpt lat="45.9943223" lon="12.7344938"><ele>41.0</ele><time>2026-03-28T16:59:37.93Z</time></trkpt><trkpt lat="45.9943874" lon="12.7345549"><ele>41.0</ele><time>2026-03-28T16:59:44.931Z</time></trkpt><trkpt lat="45.9943206" lon="12.7344958"><ele>41.0</ele><time>2026-03-28T16:59:57.93Z</time></trkpt><trkpt lat="45.9943811" lon="12.7345603"><ele>40.99999999999999</ele><time>2026-03-28T17:00:03.931Z</time></trkpt><trkpt lat="45.994446" lon="12.7345425"><ele>41.0</ele><time>2026-03-28T17:00:09.931Z</time></trkpt><trkpt lat="45.9943639" lon="12.7345332"><ele>41.0</ele><time>2026-03-28T17:00:14.931Z</time></trkpt><trkpt lat="45.9943197" lon="12.7344685"><ele>41.0</ele><time>2026-03-28T17:00:18.93Z</time></trkpt><trkpt lat="45.9943774" lon="12.7345338"><ele>41.0</ele><time>2026-03-28T17:00:22.931Z</time></trkpt><trkpt lat="45.9944347" lon="12.7345717"><ele>40.99999999999999</ele><time>2026-03-28T17:00:26.931Z</time></trkpt><trkpt lat="45.9943838" lon="12.7345053"><ele>41.0</ele><time>2026-03-28T17:00:32.93Z</time></trkpt><trkpt lat="45.9943329" lon="12.7344518"><ele>40.99999999999999</ele><time>2026-03-28T17:00:36.931Z</time></trkpt><trkpt lat="45.9943819" lon="12.734533"><ele>41.0</ele><time>2026-03-28T17:00:41.93Z</time></trkpt><trkpt lat="45.9944436" lon="12.7345675"><ele>41.0</ele><time>2026-03-28T17:00:45.93Z</time></trkpt><trkpt lat="45.9943925" lon="12.7345087"><ele>41.0</ele><time>2026-03-28T17:00:49.93Z</time></trkpt><trkpt lat="45.9943217" lon="12.7345409"><ele>41.0</ele><time>2026-03-28T17:00:52.93Z</time></trkpt><trkpt lat="45.9943641" lon="12.7344527"><ele>40.99999999999999</ele><time>2026-03-28T17:00:56.93Z</time></trkpt><trkpt lat="45.9944291" lon="12.7344507"><ele>41.0</ele><time>2026-03-28T17:00:58.93Z</time></trkpt><trkpt lat="45.9944963" lon="12.734367"><ele>41.33333333333333</ele><time>2026-03-28T17:01:00.93Z</time></trkpt><trkpt lat="45.9945458" lon="12.7342353"><ele>41.666666666666664</ele><time>2026-03-28T17:01:02.93Z</time></trkpt><trkpt lat="45.9945839" lon="12.7341275"><ele>42.0</ele><time>2026-03-28T17:01:03.931Z</time></trkpt><trkpt lat="45.9946182" lon="12.7340272"><ele>42.333333333333336</ele><time>2026-03-28T17:01:04.93Z</time></trkpt><trkpt lat="45.9946587" lon="12.7339095"><ele>42.66666666666667</ele><time>2026-03-28T17:01:05.931Z</time></trkpt><trkpt lat="45.9946954" lon="12.7337932"><ele>43.0</ele><time>2026-03-28T17:01:06.93Z</time></trkpt><trkpt lat="45.9947215" lon="12.7336794"><ele>43.2</ele><time>2026-03-28T17:01:07.93Z</time></trkpt><trkpt lat="45.9947496" lon="12.7335396"><ele>43.4</ele><time>2026-03-28T17:01:08.93Z</time></trkpt><trkpt lat="45.9947705" lon="12.7333903"><ele>43.6</ele><time>2026-03-28T17:01:09.931Z</time></trkpt><trkpt lat="45.9947843" lon="12.733246"><ele>43.800000000000004</ele><time>2026-03-28T17:01:10.931Z</time></trkpt><trkpt lat="45.9947917" lon="12.733081"><ele>44.0</ele><time>2026-03-28T17:01:11.931Z</time></trkpt><trkpt lat="45.9947986" lon="12.7329239"><ele>44.0</ele><time>2026-03-28T17:01:12.93Z</time></trkpt><trkpt lat="45.9948024" lon="12.7327564"><ele>44.0</ele><time>2026-03-28T17:01:13.93Z</time></trkpt><trkpt lat="45.9948031" lon="12.7326003"><ele>44.0</ele><time>2026-03-28T17:01:14.931Z</time></trkpt><trkpt lat="45.9948062" lon="12.7324288"><ele>44.0</ele><time>2026-03-28T17:01:15.931Z</time></trkpt><trkpt lat="45.9948134" lon="12.7322557"><ele>44.0</ele><time>2026-03-28T17:01:16.93Z</time></trkpt><trkpt lat="45.9948137" lon="12.732076"><ele>44.0</ele><time>2026-03-28T17:01:17.93Z</time></trkpt><trkpt lat="45.9948124" lon="12.7318946"><ele>44.0</ele><time>2026-03-28T17:01:18.93Z</time></trkpt><trkpt lat="45.9948081" lon="12.7317175"><ele>44.0</ele><time>2026-03-28T17:01:19.931Z</time></trkpt><trkpt lat="45.994804" lon="12.7315408"><ele>44.25</ele><time>2026-03-28T17:01:20.931Z</time></trkpt><trkpt lat="45.9947872" lon="12.7313644"><ele>44.5</ele><time>2026-03-28T17:01:21.93Z</time></trkpt><trkpt lat="45.9947668" lon="12.7311872"><ele>44.75</ele><time>2026-03-28T17:01:22.931Z</time></trkpt><trkpt lat="45.9947442" lon="12.7310108"><ele>45.0</ele><time>2026-03-28T17:01:23.93Z</time></trkpt><trkpt lat="45.9947129" lon="12.7308323"><ele>45.0</ele><time>2026-03-28T17:01:24.931Z</time></trkpt><trkpt lat="45.9946823" lon="12.7306554"><ele>45.0</ele><time>2026-03-28T17:01:25.93Z</time></trkpt><trkpt lat="45.9946454" lon="12.7304688"><ele>45.0</ele><time>2026-03-28T17:01:26.931Z</time></trkpt><trkpt lat="45.9946051" lon="12.7302828"><ele>45.0</ele><time>2026-03-28T17:01:27.93Z</time></trkpt><trkpt lat="45.9945637" lon="12.730079"><ele>45.0</ele><time>2026-03-28T17:01:28.93Z</time></trkpt><trkpt lat="45.994529" lon="12.7298694"><ele>45.0</ele><time>2026-03-28T17:01:29.931Z</time></trkpt><trkpt lat="45.9944958" lon="12.7296579"><ele>45.0</ele><time>2026-03-28T17:01:30.931Z</time></trkpt><trkpt lat="45.9944629" lon="12.7294488"><ele>45.0</ele><time>2026-03-28T17:01:31.93Z</time></trkpt><trkpt lat="45.9944269" lon="12.7292484"><ele>44.75</ele><time>2026-03-28T17:01:32.93Z</time></trkpt><trkpt lat="45.994385" lon="12.7290573"><ele>44.5</ele><time>2026-03-28T17:01:33.93Z</time></trkpt><trkpt lat="45.9943452" lon="12.7288752"><ele>44.25</ele><time>2026-03-28T17:01:34.93Z</time></trkpt><trkpt lat="45.99431" lon="12.7286774"><ele>44.0</ele><time>2026-03-28T17:01:35.93Z</time></trkpt><trkpt lat="45.9942801" lon="12.7284907"><ele>43.75</ele><time>2026-03-28T17:01:36.93Z</time></trkpt><trkpt lat="45.994259" lon="12.7283115"><ele>43.5</ele><time>2026-03-28T17:01:37.931Z</time></trkpt><trkpt lat="45.9942612" lon="12.7281409"><ele>43.25</ele><time>2026-03-28T17:01:38.931Z</time></trkpt><trkpt lat="45.9942751" lon="12.7279568"><ele>43.0</ele><time>2026-03-28T17:01:39.931Z</time></trkpt><trkpt lat="45.9943084" lon="12.7277705"><ele>42.75</ele><time>2026-03-28T17:01:40.93Z</time></trkpt><trkpt lat="45.9943442" lon="12.7275836"><ele>42.5</ele><time>2026-03-28T17:01:41.931Z</time></trkpt><trkpt lat="45.9943855" lon="12.7273986"><ele>42.25</ele><time>2026-03-28T17:01:42.931Z</time></trkpt><trkpt lat="45.9944345" lon="12.7272253"><ele>42.0</ele><time>2026-03-28T17:01:43.931Z</time></trkpt><trkpt lat="45.9944827" lon="12.7270558"><ele>42.0</ele><time>2026-03-28T17:01:44.931Z</time></trkpt><trkpt lat="45.9945042" lon="12.7268943"><ele>42.0</ele><time>2026-03-28T17:01:45.931Z</time></trkpt><trkpt lat="45.9945121" lon="12.7267423"><ele>42.0</ele><time>2026-03-28T17:01:46.93Z</time></trkpt><trkpt lat="45.9945076" lon="12.7265828"><ele>42.0</ele><time>2026-03-28T17:01:47.931Z</time></trkpt><trkpt lat="45.9945008" lon="12.7264111"><ele>42.5</ele><time>2026-03-28T17:01:48.931Z</time></trkpt><trkpt lat="45.9944741" lon="12.7262356"><ele>43.0</ele><time>2026-03-28T17:01:49.93Z</time></trkpt><trkpt lat="45.9944422" lon="12.7260424"><ele>43.5</ele><time>2026-03-28T17:01:50.93Z</time></trkpt><trkpt lat="45.9944145" lon="12.7258412"><ele>44.0</ele><time>2026-03-28T17:01:51.931Z</time></trkpt><trkpt lat="45.9943899" lon="12.7256303"><ele>44.25</ele><time>2026-03-28T17:01:52.93Z</time></trkpt><trkpt lat="45.9943606" lon="12.7254397"><ele>44.5</ele><time>2026-03-28T17:01:53.93Z</time></trkpt><trkpt lat="45.9943281" lon="12.7252561"><ele>44.75</ele><time>2026-03-28T17:01:54.93Z</time></trkpt><trkpt lat="45.9943095" lon="12.7251004"><ele>45.0</ele><time>2026-03-28T17:01:55.93Z</time></trkpt><trkpt lat="45.9942917" lon="12.7249523"><ele>44.333333333333336</ele><time>2026-03-28T17:01:56.931Z</time></trkpt><trkpt lat="45.9942758" lon="12.7248163"><ele>43.666666666666664</ele><time>2026-03-28T17:01:57.93Z</time></trkpt><trkpt lat="45.9942619" lon="12.7247027"><ele>43.0</ele><time>2026-03-28T17:01:58.931Z</time></trkpt><trkpt lat="45.9942536" lon="12.7246027"><ele>42.33333333333333</ele><time>2026-03-28T17:01:59.93Z</time></trkpt><trkpt lat="45.9942508" lon="12.7245032"><ele>41.666666666666664</ele><time>2026-03-28T17:02:01.93Z</time></trkpt><trkpt lat="45.9942453" lon="12.7244122"><ele>41.0</ele><time>2026-03-28T17:02:24.93Z</time></trkpt><trkpt lat="45.9942074" lon="12.7242299"><ele>41.0</ele><time>2026-03-28T17:02:31.931Z</time></trkpt><trkpt lat="45.9941803" lon="12.7241343"><ele>41.0</ele><time>2026-03-28T17:02:32.93Z</time></trkpt><trkpt lat="45.9941526" lon="12.7240298"><ele>41.0</ele><time>2026-03-28T17:02:33.931Z</time></trkpt><trkpt lat="45.9941187" lon="12.7239211"><ele>41.0</ele><time>2026-03-28T17:02:34.931Z</time></trkpt><trkpt lat="45.9940924" lon="12.7237802"><ele>41.0</ele><time>2026-03-28T17:02:35.931Z</time></trkpt><trkpt lat="45.9940566" lon="12.7236395"><ele>41.0</ele><time>2026-03-28T17:02:36.93Z</time></trkpt><trkpt lat="45.9940243" lon="12.7234934"><ele>41.5</ele><time>2026-03-28T17:02:37.931Z</time></trkpt><trkpt lat="45.993989" lon="12.7233301"><ele>42.0</ele><time>2026-03-28T17:02:38.931Z</time></trkpt><trkpt lat="45.993955" lon="12.7231642"><ele>42.5</ele><time>2026-03-28T17:02:39.931Z</time></trkpt><trkpt lat="45.9939227" lon="12.7229845"><ele>43.0</ele><time>2026-03-28T17:02:40.93Z</time></trkpt><trkpt lat="45.9938858" lon="12.7227943"><ele>43.25</ele><time>2026-03-28T17:02:41.93Z</time></trkpt><trkpt lat="45.9938505" lon="12.7226034"><ele>43.5</ele><time>2026-03-28T17:02:42.931Z</time></trkpt><trkpt lat="45.9938075" lon="12.7224066"><ele>43.75</ele><time>2026-03-28T17:02:43.931Z</time></trkpt><trkpt lat="45.9937651" lon="12.7222094"><ele>44.0</ele><time>2026-03-28T17:02:44.93Z</time></trkpt><trkpt lat="45.9937072" lon="12.721998"><ele>44.666666666666664</ele><time>2026-03-28T17:02:45.93Z</time></trkpt><trkpt lat="45.9936429" lon="12.7217843"><ele>45.333333333333336</ele><time>2026-03-28T17:02:46.931Z</time></trkpt><trkpt lat="45.993585" lon="12.7215894"><ele>46.0</ele><time>2026-03-28T17:02:47.931Z</time></trkpt><trkpt lat="45.9935306" lon="12.721396"><ele>46.0</ele><time>2026-03-28T17:02:48.93Z</time></trkpt><trkpt lat="45.9934784" lon="12.7212145"><ele>46.0</ele><time>2026-03-28T17:02:49.93Z</time></trkpt><trkpt lat="45.9934281" lon="12.7210311"><ele>46.0</ele><time>2026-03-28T17:02:50.93Z</time></trkpt><trkpt lat="45.9933756" lon="12.7208452"><ele>46.0</ele><time>2026-03-28T17:02:51.931Z</time></trkpt><trkpt lat="45.9933245" lon="12.720659"><ele>45.5</ele><time>2026-03-28T17:02:52.931Z</time></trkpt><trkpt lat="45.9932692" lon="12.7204723"><ele>45.0</ele><time>2026-03-28T17:02:53.931Z</time></trkpt><trkpt lat="45.9932199" lon="12.7202807"><ele>44.5</ele><time>2026-03-28T17:02:54.931Z</time></trkpt><trkpt lat="45.9931647" lon="12.7200891"><ele>44.0</ele><time>2026-03-28T17:02:55.93Z</time></trkpt><trkpt lat="45.9931119" lon="12.7198927"><ele>44.0</ele><time>2026-03-28T17:02:56.93Z</time></trkpt><trkpt lat="45.9930547" lon="12.7197032"><ele>44.0</ele><time>2026-03-28T17:02:57.931Z</time></trkpt><trkpt lat="45.9929922" lon="12.7195106"><ele>44.0</ele><time>2026-03-28T17:02:58.931Z</time></trkpt><trkpt lat="45.9929402" lon="12.7193131"><ele>44.0</ele><time>2026-03-28T17:02:59.93Z</time></trkpt><trkpt lat="45.9928837" lon="12.7191173"><ele>44.25</ele><time>2026-03-28T17:03:00.93Z</time></trkpt><trkpt lat="45.9928256" lon="12.7189151"><ele>44.5</ele><time>2026-03-28T17:03:01.931Z</time></trkpt><trkpt lat="45.9927766" lon="12.7187064"><ele>44.75</ele><time>2026-03-28T17:03:02.931Z</time></trkpt><trkpt lat="45.9927219" lon="12.7185157"><ele>45.0</ele><time>2026-03-28T17:03:03.931Z</time></trkpt><trkpt lat="45.9926734" lon="12.7183184"><ele>45.0</ele><time>2026-03-28T17:03:04.931Z</time></trkpt><trkpt lat="45.9926258" lon="12.7181295"><ele>45.0</ele><time>2026-03-28T17:03:05.931Z</time></trkpt><trkpt lat="45.9925807" lon="12.7179597"><ele>45.0</ele><time>2026-03-28T17:03:06.93Z</time></trkpt><trkpt lat="45.9925322" lon="12.7177934"><ele>45.0</ele><time>2026-03-28T17:03:07.93Z</time></trkpt><trkpt lat="45.9924856" lon="12.7176308"><ele>44.6</ele><time>2026-03-28T17:03:08.93Z</time></trkpt><trkpt lat="45.9924454" lon="12.7174769"><ele>44.2</ele><time>2026-03-28T17:03:09.93Z</time></trkpt><trkpt lat="45.9924043" lon="12.7173385"><ele>43.8</ele><time>2026-03-28T17:03:10.931Z</time></trkpt><trkpt lat="45.9923596" lon="12.7171922"><ele>43.4</ele><time>2026-03-28T17:03:11.93Z</time></trkpt><trkpt lat="45.9923228" lon="12.7170515"><ele>43.0</ele><time>2026-03-28T17:03:12.93Z</time></trkpt><trkpt lat="45.992281" lon="12.716909"><ele>43.16666666666667</ele><time>2026-03-28T17:03:13.93Z</time></trkpt><trkpt lat="45.9922492" lon="12.7167813"><ele>43.333333333333336</ele><time>2026-03-28T17:03:14.93Z</time></trkpt><trkpt lat="45.9922155" lon="12.7166613"><ele>43.5</ele><time>2026-03-28T17:03:15.931Z</time></trkpt><trkpt lat="45.9921711" lon="12.7165502"><ele>43.666666666666664</ele><time>2026-03-28T17:03:16.931Z</time></trkpt><trkpt lat="45.9921481" lon="12.7164516"><ele>43.83333333333333</ele><time>2026-03-28T17:03:17.93Z</time></trkpt><trkpt lat="45.9921455" lon="12.7163578"><ele>44.0</ele><time>2026-03-28T17:03:18.93Z</time></trkpt><trkpt lat="45.9921607" lon="12.7162685"><ele>44.0</ele><time>2026-03-28T17:03:19.931Z</time></trkpt><trkpt lat="45.9922035" lon="12.7161971"><ele>44.0</ele><time>2026-03-28T17:03:20.931Z</time></trkpt><trkpt lat="45.9922919" lon="12.7161437"><ele>44.0</ele><time>2026-03-28T17:03:21.931Z</time></trkpt><trkpt lat="45.992389" lon="12.7160855"><ele>44.0</ele><time>2026-03-28T17:03:22.931Z</time></trkpt><trkpt lat="45.9925047" lon="12.7160196"><ele>44.0</ele><time>2026-03-28T17:03:23.93Z</time></trkpt><trkpt lat="45.9926182" lon="12.7159638"><ele>44.25</ele><time>2026-03-28T17:03:24.93Z</time></trkpt><trkpt lat="45.9927499" lon="12.7159037"><ele>44.5</ele><time>2026-03-28T17:03:25.931Z</time></trkpt><trkpt lat="45.9928729" lon="12.715835"><ele>44.75</ele><time>2026-03-28T17:03:26.93Z</time></trkpt><trkpt lat="45.9929922" lon="12.7157708"><ele>45.0</ele><time>2026-03-28T17:03:27.93Z</time></trkpt><trkpt lat="45.9931242" lon="12.7157089"><ele>45.0</ele><time>2026-03-28T17:03:28.931Z</time></trkpt><trkpt lat="45.9932546" lon="12.7156365"><ele>45.0</ele><time>2026-03-28T17:03:29.931Z</time></trkpt><trkpt lat="45.9933915" lon="12.7155609"><ele>45.0</ele><time>2026-03-28T17:03:30.931Z</time></trkpt><trkpt lat="45.9935302" lon="12.7154823"><ele>45.0</ele><time>2026-03-28T17:03:31.93Z</time></trkpt><trkpt lat="45.9936689" lon="12.7154027"><ele>45.0</ele><time>2026-03-28T17:03:32.931Z</time></trkpt><trkpt lat="45.993801" lon="12.7153066"><ele>45.0</ele><time>2026-03-28T17:03:33.93Z</time></trkpt><trkpt lat="45.993937" lon="12.7152049"><ele>45.0</ele><time>2026-03-28T17:03:34.93Z</time></trkpt><trkpt lat="45.9940726" lon="12.7151084"><ele>46.33333333333333</ele><time>2026-03-28T17:03:35.93Z</time></trkpt><trkpt lat="45.9942075" lon="12.7150134"><ele>47.666666666666664</ele><time>2026-03-28T17:03:36.931Z</time></trkpt><trkpt lat="45.9943541" lon="12.7149187"><ele>49.0</ele><time>2026-03-28T17:03:37.93Z</time></trkpt><trkpt lat="45.9944845" lon="12.7148142"><ele>49.0</ele><time>2026-03-28T17:03:38.931Z</time></trkpt><trkpt lat="45.9946172" lon="12.714709"><ele>49.0</ele><time>2026-03-28T17:03:39.931Z</time></trkpt><trkpt lat="45.9947532" lon="12.7146063"><ele>49.0</ele><time>2026-03-28T17:03:40.93Z</time></trkpt><trkpt lat="45.9948861" lon="12.7145022"><ele>49.33333333333333</ele><time>2026-03-28T17:03:41.931Z</time></trkpt><trkpt lat="45.9950195" lon="12.7143985"><ele>49.66666666666667</ele><time>2026-03-28T17:03:42.93Z</time></trkpt><trkpt lat="45.9951582" lon="12.7142869"><ele>50.0</ele><time>2026-03-28T17:03:43.93Z</time></trkpt><trkpt lat="45.9952907" lon="12.7141794"><ele>50.0</ele><time>2026-03-28T17:03:44.93Z</time></trkpt><trkpt lat="45.9954187" lon="12.7140702"><ele>50.0</ele><time>2026-03-28T17:03:45.929Z</time></trkpt><trkpt lat="45.9955534" lon="12.7139676"><ele>50.0</ele><time>2026-03-28T17:03:46.93Z</time></trkpt><trkpt lat="45.9956825" lon="12.713866"><ele>50.0</ele><time>2026-03-28T17:03:47.929Z</time></trkpt><trkpt lat="45.9958186" lon="12.7137674"><ele>50.0</ele><time>2026-03-28T17:03:48.93Z</time></trkpt><trkpt lat="45.9959427" lon="12.7136683"><ele>50.0</ele><time>2026-03-28T17:03:49.931Z</time></trkpt><trkpt lat="45.996061" lon="12.7135756"><ele>50.0</ele><time>2026-03-28T17:03:50.931Z</time></trkpt><trkpt lat="45.9961707" lon="12.7134822"><ele>50.0</ele><time>2026-03-28T17:03:51.93Z</time></trkpt><trkpt lat="45.9962749" lon="12.7134005"><ele>50.0</ele><time>2026-03-28T17:03:52.931Z</time></trkpt><trkpt lat="45.9963766" lon="12.7133273"><ele>50.0</ele><time>2026-03-28T17:03:53.93Z</time></trkpt><trkpt lat="45.9964712" lon="12.7132584"><ele>50.0</ele><time>2026-03-28T17:03:54.931Z</time></trkpt><trkpt lat="45.9965603" lon="12.713185"><ele>50.0</ele><time>2026-03-28T17:03:55.93Z</time></trkpt><trkpt lat="45.9966427" lon="12.7131262"><ele>50.0</ele><time>2026-03-28T17:03:56.93Z</time></trkpt><trkpt lat="45.9967175" lon="12.7130721"><ele>50.00000000000001</ele><time>2026-03-28T17:03:57.931Z</time></trkpt><trkpt lat="45.996773" lon="12.7130275"><ele>50.0</ele><time>2026-03-28T17:03:58.931Z</time></trkpt><trkpt lat="45.9968306" lon="12.7129741"><ele>50.0</ele><time>2026-03-28T17:04:01.93Z</time></trkpt><trkpt lat="45.9968573" lon="12.7128635"><ele>50.0</ele><time>2026-03-28T17:04:09.93Z</time></trkpt><trkpt lat="45.9967767" lon="12.7127587"><ele>50.00000000000001</ele><time>2026-03-28T17:04:11.93Z</time></trkpt><trkpt lat="45.9967227" lon="12.7127109"><ele>50.0</ele><time>2026-03-28T17:04:12.93Z</time></trkpt><trkpt lat="45.9966659" lon="12.7126535"><ele>50.333333333333336</ele><time>2026-03-28T17:04:13.93Z</time></trkpt><trkpt lat="45.9965985" lon="12.7125937"><ele>50.66666666666667</ele><time>2026-03-28T17:04:14.93Z</time></trkpt><trkpt lat="45.9965419" lon="12.7125426"><ele>51.0</ele><time>2026-03-28T17:04:15.931Z</time></trkpt><trkpt lat="45.9964675" lon="12.7124829"><ele>51.33333333333333</ele><time>2026-03-28T17:04:16.93Z</time></trkpt><trkpt lat="45.9963758" lon="12.7124022"><ele>51.666666666666664</ele><time>2026-03-28T17:04:17.93Z</time></trkpt><trkpt lat="45.9962906" lon="12.7123328"><ele>52.0</ele><time>2026-03-28T17:04:18.93Z</time></trkpt><trkpt lat="45.9961959" lon="12.7122475"><ele>52.0</ele><time>2026-03-28T17:04:19.931Z</time></trkpt><trkpt lat="45.9961038" lon="12.7121583"><ele>52.0</ele><time>2026-03-28T17:04:20.93Z</time></trkpt><trkpt lat="45.9960009" lon="12.7120657"><ele>52.0</ele><time>2026-03-28T17:04:21.931Z</time></trkpt><trkpt lat="45.995899" lon="12.7119682"><ele>52.0</ele><time>2026-03-28T17:04:22.93Z</time></trkpt><trkpt lat="45.9957971" lon="12.7118711"><ele>51.5</ele><time>2026-03-28T17:04:23.931Z</time></trkpt><trkpt lat="45.9957" lon="12.7117712"><ele>51.0</ele><time>2026-03-28T17:04:24.93Z</time></trkpt><trkpt lat="45.995597" lon="12.7116689"><ele>50.5</ele><time>2026-03-28T17:04:25.931Z</time></trkpt><trkpt lat="45.9954976" lon="12.7115658"><ele>50.0</ele><time>2026-03-28T17:04:26.93Z</time></trkpt><trkpt lat="45.9953962" lon="12.7114583"><ele>50.0</ele><time>2026-03-28T17:04:27.93Z</time></trkpt><trkpt lat="45.9953127" lon="12.7113729"><ele>50.0</ele><time>2026-03-28T17:04:28.93Z</time></trkpt><trkpt lat="45.9952351" lon="12.7112709"><ele>50.0</ele><time>2026-03-28T17:04:29.931Z</time></trkpt><trkpt lat="45.9951635" lon="12.7111738"><ele>50.0</ele><time>2026-03-28T17:04:30.93Z</time></trkpt><trkpt lat="45.9950939" lon="12.7110811"><ele>50.0</ele><time>2026-03-28T17:04:31.93Z</time></trkpt><trkpt lat="45.9950414" lon="12.7110009"><ele>49.8</ele><time>2026-03-28T17:04:32.93Z</time></trkpt><trkpt lat="45.9950121" lon="12.7109077"><ele>49.6</ele><time>2026-03-28T17:04:33.931Z</time></trkpt><trkpt lat="45.9949934" lon="12.7107883"><ele>49.400000000000006</ele><time>2026-03-28T17:04:34.931Z</time></trkpt><trkpt lat="45.9949676" lon="12.7106548"><ele>49.2</ele><time>2026-03-28T17:04:35.929Z</time></trkpt><trkpt lat="45.9949274" lon="12.7105047"><ele>49.0</ele><time>2026-03-28T17:04:36.93Z</time></trkpt><trkpt lat="45.9948906" lon="12.7103632"><ele>48.6</ele><time>2026-03-28T17:04:37.93Z</time></trkpt><trkpt lat="45.9948538" lon="12.7102306"><ele>48.2</ele><time>2026-03-28T17:04:38.931Z</time></trkpt><trkpt lat="45.9948285" lon="12.7101001"><ele>47.800000000000004</ele><time>2026-03-28T17:04:39.93Z</time></trkpt><trkpt lat="45.9947981" lon="12.7099665"><ele>47.400000000000006</ele><time>2026-03-28T17:04:40.93Z</time></trkpt><trkpt lat="45.9947656" lon="12.7098156"><ele>47.0</ele><time>2026-03-28T17:04:41.931Z</time></trkpt><trkpt lat="45.9947268" lon="12.7096604"><ele>47.0</ele><time>2026-03-28T17:04:42.93Z</time></trkpt><trkpt lat="45.9946889" lon="12.7095123"><ele>47.0</ele><time>2026-03-28T17:04:43.93Z</time></trkpt><trkpt lat="45.9946482" lon="12.7093839"><ele>47.0</ele><time>2026-03-28T17:04:44.931Z</time></trkpt><trkpt lat="45.9946173" lon="12.7092544"><ele>47.0</ele><time>2026-03-28T17:04:45.931Z</time></trkpt><trkpt lat="45.9945891" lon="12.7091309"><ele>47.0</ele><time>2026-03-28T17:04:46.93Z</time></trkpt><trkpt lat="45.9945641" lon="12.7090208"><ele>47.2</ele><time>2026-03-28T17:04:47.93Z</time></trkpt><trkpt lat="45.9945428" lon="12.7089208"><ele>47.400000000000006</ele><time>2026-03-28T17:04:48.93Z</time></trkpt><trkpt lat="45.9945175" lon="12.7087563"><ele>47.599999999999994</ele><time>2026-03-28T17:04:50.93Z</time></trkpt><trkpt lat="45.9945294" lon="12.7086087"><ele>47.8</ele><time>2026-03-28T17:04:52.93Z</time></trkpt><trkpt lat="45.9945164" lon="12.7084423"><ele>48.0</ele><time>2026-03-28T17:04:54.93Z</time></trkpt><trkpt lat="45.9944476" lon="12.7082858"><ele>48.0</ele><time>2026-03-28T17:04:56.931Z</time></trkpt><trkpt lat="45.9944145" lon="12.7081959"><ele>48.0</ele><time>2026-03-28T17:04:57.931Z</time></trkpt><trkpt lat="45.9943761" lon="12.7080912"><ele>48.0</ele><time>2026-03-28T17:04:58.93Z</time></trkpt><trkpt lat="45.9943358" lon="12.7079808"><ele>48.0</ele><time>2026-03-28T17:04:59.931Z</time></trkpt><trkpt lat="45.9943178" lon="12.7078492"><ele>48.0</ele><time>2026-03-28T17:05:00.93Z</time></trkpt><trkpt lat="45.9942863" lon="12.7077123"><ele>48.0</ele><time>2026-03-28T17:05:01.93Z</time></trkpt><trkpt lat="45.9942457" lon="12.7075797"><ele>48.0</ele><time>2026-03-28T17:05:02.93Z</time></trkpt><trkpt lat="45.9942081" lon="12.7074417"><ele>48.0</ele><time>2026-03-28T17:05:03.93Z</time></trkpt><trkpt lat="45.9941646" lon="12.7072965"><ele>48.0</ele><time>2026-03-28T17:05:04.931Z</time></trkpt><trkpt lat="45.9941295" lon="12.7071563"><ele>48.0</ele><time>2026-03-28T17:05:05.93Z</time></trkpt><trkpt lat="45.9940876" lon="12.7070032"><ele>48.0</ele><time>2026-03-28T17:05:06.93Z</time></trkpt><trkpt lat="45.9940422" lon="12.706849"><ele>47.599999999999994</ele><time>2026-03-28T17:05:07.931Z</time></trkpt><trkpt lat="45.9939949" lon="12.7067014"><ele>47.199999999999996</ele><time>2026-03-28T17:05:08.93Z</time></trkpt><trkpt lat="45.993948" lon="12.7065643"><ele>46.8</ele><time>2026-03-28T17:05:09.93Z</time></trkpt><trkpt lat="45.9938991" lon="12.7064149"><ele>46.4</ele><time>2026-03-28T17:05:10.93Z</time></trkpt><trkpt lat="45.9938551" lon="12.7062716"><ele>46.0</ele><time>2026-03-28T17:05:11.93Z</time></trkpt><trkpt lat="45.9938071" lon="12.7061215"><ele>46.199999999999996</ele><time>2026-03-28T17:05:12.93Z</time></trkpt><trkpt lat="45.9937544" lon="12.7059862"><ele>46.4</ele><time>2026-03-28T17:05:13.931Z</time></trkpt><trkpt lat="45.9936908" lon="12.7058606"><ele>46.6</ele><time>2026-03-28T17:05:14.93Z</time></trkpt><trkpt lat="45.9936123" lon="12.7057556"><ele>46.8</ele><time>2026-03-28T17:05:15.93Z</time></trkpt><trkpt lat="45.993525" lon="12.7056602"><ele>47.0</ele><time>2026-03-28T17:05:16.931Z</time></trkpt><trkpt lat="45.9934481" lon="12.7055738"><ele>47.0</ele><time>2026-03-28T17:05:17.93Z</time></trkpt><trkpt lat="45.9933746" lon="12.7054944"><ele>47.0</ele><time>2026-03-28T17:05:18.931Z</time></trkpt><trkpt lat="45.9932946" lon="12.7053958"><ele>47.0</ele><time>2026-03-28T17:05:19.93Z</time></trkpt><trkpt lat="45.9932069" lon="12.7052953"><ele>47.0</ele><time>2026-03-28T17:05:20.93Z</time></trkpt><trkpt lat="45.9931112" lon="12.7051911"><ele>47.0</ele><time>2026-03-28T17:05:21.93Z</time></trkpt><trkpt lat="45.9930158" lon="12.7050929"><ele>46.75</ele><time>2026-03-28T17:05:22.93Z</time></trkpt><trkpt lat="45.9929178" lon="12.7049899"><ele>46.5</ele><time>2026-03-28T17:05:23.93Z</time></trkpt><trkpt lat="45.9928177" lon="12.7048862"><ele>46.25</ele><time>2026-03-28T17:05:24.931Z</time></trkpt><trkpt lat="45.9927153" lon="12.7047845"><ele>46.0</ele><time>2026-03-28T17:05:25.93Z</time></trkpt><trkpt lat="45.9926193" lon="12.7046835"><ele>46.0</ele><time>2026-03-28T17:05:26.931Z</time></trkpt><trkpt lat="45.9925297" lon="12.7045882"><ele>46.0</ele><time>2026-03-28T17:05:27.93Z</time></trkpt><trkpt lat="45.9924408" lon="12.7044855"><ele>46.0</ele><time>2026-03-28T17:05:28.93Z</time></trkpt><trkpt lat="45.9923489" lon="12.7043778"><ele>46.0</ele><time>2026-03-28T17:05:29.93Z</time></trkpt><trkpt lat="45.9922626" lon="12.7042568"><ele>45.75</ele><time>2026-03-28T17:05:30.93Z</time></trkpt><trkpt lat="45.9921862" lon="12.7041363"><ele>45.5</ele><time>2026-03-28T17:05:31.931Z</time></trkpt><trkpt lat="45.9921032" lon="12.7040108"><ele>45.25</ele><time>2026-03-28T17:05:32.93Z</time></trkpt><trkpt lat="45.9920285" lon="12.7038839"><ele>45.0</ele><time>2026-03-28T17:05:33.93Z</time></trkpt><trkpt lat="45.99195" lon="12.7037579"><ele>45.0</ele><time>2026-03-28T17:05:34.931Z</time></trkpt><trkpt lat="45.9918788" lon="12.7036255"><ele>45.0</ele><time>2026-03-28T17:05:35.931Z</time></trkpt><trkpt lat="45.9918129" lon="12.7034974"><ele>45.0</ele><time>2026-03-28T17:05:36.93Z</time></trkpt><trkpt lat="45.991749" lon="12.7033616"><ele>45.0</ele><time>2026-03-28T17:05:37.93Z</time></trkpt><trkpt lat="45.9916854" lon="12.703223"><ele>45.25</ele><time>2026-03-28T17:05:38.93Z</time></trkpt><trkpt lat="45.9916301" lon="12.7030752"><ele>45.5</ele><time>2026-03-28T17:05:39.929Z</time></trkpt><trkpt lat="45.9915723" lon="12.7029228"><ele>45.75</ele><time>2026-03-28T17:05:40.93Z</time></trkpt><trkpt lat="45.9915123" lon="12.7027776"><ele>46.0</ele><time>2026-03-28T17:05:41.93Z</time></trkpt><trkpt lat="45.9914624" lon="12.7026373"><ele>46.0</ele><time>2026-03-28T17:05:42.93Z</time></trkpt><trkpt lat="45.9914059" lon="12.7025001"><ele>46.0</ele><time>2026-03-28T17:05:43.93Z</time></trkpt><trkpt lat="45.99135" lon="12.702364"><ele>46.0</ele><time>2026-03-28T17:05:44.93Z</time></trkpt><trkpt lat="45.9912965" lon="12.7022307"><ele>46.0</ele><time>2026-03-28T17:05:45.93Z</time></trkpt><trkpt lat="45.9912437" lon="12.7021078"><ele>46.0</ele><time>2026-03-28T17:05:46.93Z</time></trkpt><trkpt lat="45.9911979" lon="12.7019928"><ele>46.0</ele><time>2026-03-28T17:05:47.931Z</time></trkpt><trkpt lat="45.9911499" lon="12.7018814"><ele>46.0</ele><time>2026-03-28T17:05:48.931Z</time></trkpt><trkpt lat="45.9911051" lon="12.7017642"><ele>46.0</ele><time>2026-03-28T17:05:49.93Z</time></trkpt><trkpt lat="45.9910633" lon="12.701661"><ele>46.0</ele><time>2026-03-28T17:05:50.93Z</time></trkpt><trkpt lat="45.9910306" lon="12.7015687"><ele>46.0</ele><time>2026-03-28T17:05:51.931Z</time></trkpt><trkpt lat="45.9909889" lon="12.7014763"><ele>46.0</ele><time>2026-03-28T17:05:52.931Z</time></trkpt><trkpt lat="45.9909474" lon="12.7013861"><ele>46.0</ele><time>2026-03-28T17:05:53.931Z</time></trkpt><trkpt lat="45.9909043" lon="12.7012804"><ele>46.0</ele><time>2026-03-28T17:05:54.93Z</time></trkpt><trkpt lat="45.9908548" lon="12.7011559"><ele>46.0</ele><time>2026-03-28T17:05:55.93Z</time></trkpt><trkpt lat="45.990804" lon="12.701024"><ele>46.0</ele><time>2026-03-28T17:05:56.931Z</time></trkpt><trkpt lat="45.9907633" lon="12.7008675"><ele>46.0</ele><time>2026-03-28T17:05:57.93Z</time></trkpt><trkpt lat="45.9907394" lon="12.7006998"><ele>46.0</ele><time>2026-03-28T17:05:58.93Z</time></trkpt><trkpt lat="45.9907212" lon="12.7005329"><ele>46.0</ele><time>2026-03-28T17:05:59.93Z</time></trkpt><trkpt lat="45.9906997" lon="12.7003681"><ele>46.0</ele><time>2026-03-28T17:06:00.931Z</time></trkpt><trkpt lat="45.9906818" lon="12.7001875"><ele>46.0</ele><time>2026-03-28T17:06:01.93Z</time></trkpt><trkpt lat="45.9906613" lon="12.7000053"><ele>46.0</ele><time>2026-03-28T17:06:02.931Z</time></trkpt><trkpt lat="45.9906415" lon="12.6998165"><ele>46.0</ele><time>2026-03-28T17:06:03.931Z</time></trkpt><trkpt lat="45.9906124" lon="12.6996349"><ele>46.0</ele><time>2026-03-28T17:06:04.929Z</time></trkpt><trkpt lat="45.9905728" lon="12.6994622"><ele>46.0</ele><time>2026-03-28T17:06:05.931Z</time></trkpt><trkpt lat="45.9905188" lon="12.6992851"><ele>46.25</ele><time>2026-03-28T17:06:06.931Z</time></trkpt><trkpt lat="45.9904588" lon="12.6991111"><ele>46.5</ele><time>2026-03-28T17:06:07.93Z</time></trkpt><trkpt lat="45.9903957" lon="12.6989373"><ele>46.75</ele><time>2026-03-28T17:06:08.93Z</time></trkpt><trkpt lat="45.9903394" lon="12.6987706"><ele>47.0</ele><time>2026-03-28T17:06:09.93Z</time></trkpt><trkpt lat="45.9902799" lon="12.6985986"><ele>46.75</ele><time>2026-03-28T17:06:10.93Z</time></trkpt><trkpt lat="45.9902297" lon="12.6984305"><ele>46.5</ele><time>2026-03-28T17:06:11.93Z</time></trkpt><trkpt lat="45.990177" lon="12.6982508"><ele>46.25</ele><time>2026-03-28T17:06:12.93Z</time></trkpt><trkpt lat="45.9901361" lon="12.6980814"><ele>46.0</ele><time>2026-03-28T17:06:13.93Z</time></trkpt><trkpt lat="45.9900965" lon="12.6979269"><ele>46.0</ele><time>2026-03-28T17:06:14.931Z</time></trkpt><trkpt lat="45.9900606" lon="12.6977677"><ele>46.0</ele><time>2026-03-28T17:06:15.929Z</time></trkpt><trkpt lat="45.9900249" lon="12.6976059"><ele>46.0</ele><time>2026-03-28T17:06:16.93Z</time></trkpt><trkpt lat="45.9899891" lon="12.6974446"><ele>46.0</ele><time>2026-03-28T17:06:17.931Z</time></trkpt><trkpt lat="45.989962" lon="12.6972778"><ele>46.0</ele><time>2026-03-28T17:06:18.931Z</time></trkpt><trkpt lat="45.9899479" lon="12.6971327"><ele>46.0</ele><time>2026-03-28T17:06:19.931Z</time></trkpt><trkpt lat="45.9899376" lon="12.6970092"><ele>46.0</ele><time>2026-03-28T17:06:20.931Z</time></trkpt><trkpt lat="45.9899253" lon="12.6968864"><ele>46.0</ele><time>2026-03-28T17:06:21.93Z</time></trkpt><trkpt lat="45.9899076" lon="12.6967592"><ele>46.0</ele><time>2026-03-28T17:06:22.931Z</time></trkpt><trkpt lat="45.9898931" lon="12.6966236"><ele>46.0</ele><time>2026-03-28T17:06:23.93Z</time></trkpt><trkpt lat="45.9898852" lon="12.6964986"><ele>46.0</ele><time>2026-03-28T17:06:24.93Z</time></trkpt><trkpt lat="45.9898714" lon="12.6963872"><ele>46.0</ele><time>2026-03-28T17:06:25.93Z</time></trkpt><trkpt lat="45.9898548" lon="12.6962861"><ele>46.0</ele><time>2026-03-28T17:06:26.93Z</time></trkpt><trkpt lat="45.9898376" lon="12.696154"><ele>46.0</ele><time>2026-03-28T17:06:28.931Z</time></trkpt><trkpt lat="45.9898109" lon="12.696042"><ele>46.0</ele><time>2026-03-28T17:06:41.93Z</time></trkpt><trkpt lat="45.9897983" lon="12.6959277"><ele>46.333333333333336</ele><time>2026-03-28T17:06:43.931Z</time></trkpt><trkpt lat="45.9897917" lon="12.6958335"><ele>46.66666666666667</ele><time>2026-03-28T17:06:44.931Z</time></trkpt><trkpt lat="45.9897793" lon="12.6957235"><ele>47.0</ele><time>2026-03-28T17:06:45.931Z</time></trkpt><trkpt lat="45.9897755" lon="12.6956233"><ele>47.333333333333336</ele><time>2026-03-28T17:06:46.93Z</time></trkpt><trkpt lat="45.98976" lon="12.6955021"><ele>47.666666666666664</ele><time>2026-03-28T17:06:47.93Z</time></trkpt><trkpt lat="45.9897436" lon="12.6953738"><ele>48.0</ele><time>2026-03-28T17:06:48.93Z</time></trkpt><trkpt lat="45.9897074" lon="12.695243"><ele>48.2</ele><time>2026-03-28T17:06:49.93Z</time></trkpt><trkpt lat="45.989657" lon="12.6951086"><ele>48.4</ele><time>2026-03-28T17:06:50.93Z</time></trkpt><trkpt lat="45.9896039" lon="12.6949623"><ele>48.6</ele><time>2026-03-28T17:06:51.931Z</time></trkpt><trkpt lat="45.9895538" lon="12.6948252"><ele>48.800000000000004</ele><time>2026-03-28T17:06:52.931Z</time></trkpt><trkpt lat="45.9895019" lon="12.6946814"><ele>49.0</ele><time>2026-03-28T17:06:53.93Z</time></trkpt><trkpt lat="45.9894499" lon="12.6945365"><ele>48.6</ele><time>2026-03-28T17:06:54.931Z</time></trkpt><trkpt lat="45.9893978" lon="12.6943894"><ele>48.2</ele><time>2026-03-28T17:06:55.93Z</time></trkpt><trkpt lat="45.9893408" lon="12.6942458"><ele>47.800000000000004</ele><time>2026-03-28T17:06:56.931Z</time></trkpt><trkpt lat="45.9892919" lon="12.6941223"><ele>47.400000000000006</ele><time>2026-03-28T17:06:57.93Z</time></trkpt><trkpt lat="45.9892406" lon="12.6939908"><ele>47.0</ele><time>2026-03-28T17:06:58.93Z</time></trkpt><trkpt lat="45.9891889" lon="12.6938539"><ele>47.0</ele><time>2026-03-28T17:06:59.93Z</time></trkpt><trkpt lat="45.9891368" lon="12.6937135"><ele>47.0</ele><time>2026-03-28T17:07:00.93Z</time></trkpt><trkpt lat="45.9890833" lon="12.6935703"><ele>47.0</ele><time>2026-03-28T17:07:01.93Z</time></trkpt><trkpt lat="45.9890265" lon="12.6934252"><ele>47.0</ele><time>2026-03-28T17:07:02.931Z</time></trkpt><trkpt lat="45.9889713" lon="12.6932753"><ele>47.0</ele><time>2026-03-28T17:07:03.93Z</time></trkpt><trkpt lat="45.9889197" lon="12.6931282"><ele>47.0</ele><time>2026-03-28T17:07:04.931Z</time></trkpt><trkpt lat="45.9888677" lon="12.6929916"><ele>47.0</ele><time>2026-03-28T17:07:05.93Z</time></trkpt><trkpt lat="45.9888189" lon="12.6928587"><ele>47.0</ele><time>2026-03-28T17:07:06.931Z</time></trkpt><trkpt lat="45.9887601" lon="12.6927316"><ele>47.0</ele><time>2026-03-28T17:07:07.93Z</time></trkpt><trkpt lat="45.9887105" lon="12.692593"><ele>47.0</ele><time>2026-03-28T17:07:08.93Z</time></trkpt><trkpt lat="45.9886548" lon="12.6924563"><ele>47.0</ele><time>2026-03-28T17:07:09.93Z</time></trkpt><trkpt lat="45.9886066" lon="12.6923278"><ele>47.0</ele><time>2026-03-28T17:07:10.93Z</time></trkpt><trkpt lat="45.9885563" lon="12.692196"><ele>47.0</ele><time>2026-03-28T17:07:11.93Z</time></trkpt><trkpt lat="45.9885034" lon="12.692072"><ele>47.0</ele><time>2026-03-28T17:07:12.93Z</time></trkpt><trkpt lat="45.988449" lon="12.6919547"><ele>47.2</ele><time>2026-03-28T17:07:13.93Z</time></trkpt><trkpt lat="45.9883983" lon="12.6918359"><ele>47.400000000000006</ele><time>2026-03-28T17:07:14.93Z</time></trkpt><trkpt lat="45.9883458" lon="12.6917097"><ele>47.599999999999994</ele><time>2026-03-28T17:07:15.93Z</time></trkpt><trkpt lat="45.9882954" lon="12.6915827"><ele>47.8</ele><time>2026-03-28T17:07:16.93Z</time></trkpt><trkpt lat="45.9882467" lon="12.6914513"><ele>48.0</ele><time>2026-03-28T17:07:17.931Z</time></trkpt><trkpt lat="45.9882012" lon="12.691323"><ele>48.0</ele><time>2026-03-28T17:07:18.93Z</time></trkpt><trkpt lat="45.988152" lon="12.691188"><ele>48.0</ele><time>2026-03-28T17:07:19.93Z</time></trkpt><trkpt lat="45.9880942" lon="12.6910528"><ele>48.0</ele><time>2026-03-28T17:07:20.931Z</time></trkpt><trkpt lat="45.9880411" lon="12.6909181"><ele>48.0</ele><time>2026-03-28T17:07:21.931Z</time></trkpt><trkpt lat="45.987989" lon="12.69078"><ele>48.0</ele><time>2026-03-28T17:07:22.931Z</time></trkpt><trkpt lat="45.987937" lon="12.6906457"><ele>47.8</ele><time>2026-03-28T17:07:23.931Z</time></trkpt><trkpt lat="45.9878828" lon="12.690512"><ele>47.599999999999994</ele><time>2026-03-28T17:07:24.931Z</time></trkpt><trkpt lat="45.9878286" lon="12.690376"><ele>47.400000000000006</ele><time>2026-03-28T17:07:25.931Z</time></trkpt><trkpt lat="45.987771" lon="12.6902355"><ele>47.2</ele><time>2026-03-28T17:07:26.931Z</time></trkpt><trkpt lat="45.987719" lon="12.6901144"><ele>47.0</ele><time>2026-03-28T17:07:27.93Z</time></trkpt><trkpt lat="45.9876653" lon="12.6899935"><ele>47.2</ele><time>2026-03-28T17:07:28.931Z</time></trkpt><trkpt lat="45.9876108" lon="12.6898711"><ele>47.400000000000006</ele><time>2026-03-28T17:07:29.93Z</time></trkpt><trkpt lat="45.9875559" lon="12.689747"><ele>47.599999999999994</ele><time>2026-03-28T17:07:30.93Z</time></trkpt><trkpt lat="45.9874924" lon="12.6896171"><ele>47.8</ele><time>2026-03-28T17:07:31.931Z</time></trkpt><trkpt lat="45.9874294" lon="12.6894845"><ele>48.0</ele><time>2026-03-28T17:07:32.93Z</time></trkpt><trkpt lat="45.9873728" lon="12.6893613"><ele>48.0</ele><time>2026-03-28T17:07:33.93Z</time></trkpt><trkpt lat="45.9873184" lon="12.689241"><ele>48.0</ele><time>2026-03-28T17:07:34.93Z</time></trkpt><trkpt lat="45.9872582" lon="12.6891184"><ele>48.0</ele><time>2026-03-28T17:07:35.93Z</time></trkpt><trkpt lat="45.9871993" lon="12.6889893"><ele>48.0</ele><time>2026-03-28T17:07:36.931Z</time></trkpt><trkpt lat="45.9871437" lon="12.6888732"><ele>48.0</ele><time>2026-03-28T17:07:37.931Z</time></trkpt><trkpt lat="45.9870886" lon="12.6887624"><ele>48.0</ele><time>2026-03-28T17:07:38.93Z</time></trkpt><trkpt lat="45.98704" lon="12.6886566"><ele>48.0</ele><time>2026-03-28T17:07:39.93Z</time></trkpt><trkpt lat="45.986989" lon="12.6885471"><ele>48.0</ele><time>2026-03-28T17:07:40.93Z</time></trkpt><trkpt lat="45.9869316" lon="12.6884282"><ele>48.0</ele><time>2026-03-28T17:07:41.93Z</time></trkpt><trkpt lat="45.9868775" lon="12.6883201"><ele>48.0</ele><time>2026-03-28T17:07:42.931Z</time></trkpt><trkpt lat="45.9868173" lon="12.6882084"><ele>47.833333333333336</ele><time>2026-03-28T17:07:43.93Z</time></trkpt><trkpt lat="45.9867601" lon="12.688104"><ele>47.666666666666664</ele><time>2026-03-28T17:07:44.931Z</time></trkpt><trkpt lat="45.9866972" lon="12.6880108"><ele>47.5</ele><time>2026-03-28T17:07:45.93Z</time></trkpt><trkpt lat="45.9866285" lon="12.6879188"><ele>47.33333333333333</ele><time>2026-03-28T17:07:46.93Z</time></trkpt><trkpt lat="45.9865723" lon="12.6878373"><ele>47.166666666666664</ele><time>2026-03-28T17:07:47.93Z</time></trkpt><trkpt lat="45.9865136" lon="12.6877486"><ele>47.0</ele><time>2026-03-28T17:07:48.93Z</time></trkpt><trkpt lat="45.9864566" lon="12.6876613"><ele>47.0</ele><time>2026-03-28T17:07:49.93Z</time></trkpt><trkpt lat="45.9864019" lon="12.6875716"><ele>47.0</ele><time>2026-03-28T17:07:50.931Z</time></trkpt><trkpt lat="45.9863563" lon="12.6874895"><ele>47.0</ele><time>2026-03-28T17:07:51.931Z</time></trkpt><trkpt lat="45.9863156" lon="12.6874113"><ele>47.0</ele><time>2026-03-28T17:07:52.931Z</time></trkpt><trkpt lat="45.986276" lon="12.6873276"><ele>47.0</ele><time>2026-03-28T17:07:53.93Z</time></trkpt><trkpt lat="45.9862342" lon="12.6872437"><ele>47.0</ele><time>2026-03-28T17:07:54.931Z</time></trkpt><trkpt lat="45.9861724" lon="12.6871162"><ele>47.0</ele><time>2026-03-28T17:07:56.93Z</time></trkpt><trkpt lat="45.9861327" lon="12.6870306"><ele>47.0</ele><time>2026-03-28T17:07:58.931Z</time></trkpt><trkpt lat="45.9860794" lon="12.6869434"><ele>47.0</ele><time>2026-03-28T17:08:06.93Z</time></trkpt><trkpt lat="45.9860201" lon="12.6868555"><ele>47.0</ele><time>2026-03-28T17:08:09.931Z</time></trkpt><trkpt lat="45.9859714" lon="12.6867707"><ele>47.0</ele><time>2026-03-28T17:08:11.929Z</time></trkpt><trkpt lat="45.9859146" lon="12.6866835"><ele>47.0</ele><time>2026-03-28T17:08:13.931Z</time></trkpt><trkpt lat="45.9858715" lon="12.6866026"><ele>47.25</ele><time>2026-03-28T17:08:15.931Z</time></trkpt><trkpt lat="45.9858334" lon="12.6864834"><ele>47.5</ele><time>2026-03-28T17:08:23.929Z</time></trkpt><trkpt lat="45.985767" lon="12.6862997"><ele>47.75</ele><time>2026-03-28T17:08:25.93Z</time></trkpt><trkpt lat="45.9856732" lon="12.6861761"><ele>48.0</ele><time>2026-03-28T17:08:26.929Z</time></trkpt><trkpt lat="45.9856113" lon="12.6860535"><ele>48.0</ele><time>2026-03-28T17:08:27.929Z</time></trkpt><trkpt lat="45.9855379" lon="12.6859277"><ele>48.0</ele><time>2026-03-28T17:08:28.929Z</time></trkpt><trkpt lat="45.9854353" lon="12.6857594"><ele>48.0</ele><time>2026-03-28T17:08:29.93Z</time></trkpt><trkpt lat="45.9853225" lon="12.6856036"><ele>48.0</ele><time>2026-03-28T17:08:30.929Z</time></trkpt><trkpt lat="45.9852219" lon="12.6854347"><ele>48.0</ele><time>2026-03-28T17:08:31.929Z</time></trkpt><trkpt lat="45.98513" lon="12.6852873"><ele>48.0</ele><time>2026-03-28T17:08:32.929Z</time></trkpt><trkpt lat="45.9850443" lon="12.685141"><ele>48.0</ele><time>2026-03-28T17:08:33.93Z</time></trkpt><trkpt lat="45.9849577" lon="12.684985"><ele>48.0</ele><time>2026-03-28T17:08:34.929Z</time></trkpt><trkpt lat="45.9848701" lon="12.684832"><ele>47.5</ele><time>2026-03-28T17:08:35.929Z</time></trkpt><trkpt lat="45.9847858" lon="12.6846753"><ele>47.0</ele><time>2026-03-28T17:08:36.929Z</time></trkpt><trkpt lat="45.9847005" lon="12.684529"><ele>46.5</ele><time>2026-03-28T17:08:37.929Z</time></trkpt><trkpt lat="45.984614" lon="12.6843928"><ele>46.0</ele><time>2026-03-28T17:08:38.93Z</time></trkpt><trkpt lat="45.9845336" lon="12.6842484"><ele>44.75</ele><time>2026-03-28T17:08:39.929Z</time></trkpt><trkpt lat="45.9844556" lon="12.6840968"><ele>43.5</ele><time>2026-03-28T17:08:40.929Z</time></trkpt><trkpt lat="45.9843742" lon="12.6839449"><ele>42.25</ele><time>2026-03-28T17:08:41.929Z</time></trkpt><trkpt lat="45.9842906" lon="12.6837902"><ele>41.0</ele><time>2026-03-28T17:08:42.929Z</time></trkpt><trkpt lat="45.9842071" lon="12.6836338"><ele>41.25</ele><time>2026-03-28T17:08:43.929Z</time></trkpt><trkpt lat="45.9841198" lon="12.683474"><ele>41.5</ele><time>2026-03-28T17:08:44.93Z</time></trkpt><trkpt lat="45.9840347" lon="12.6833185"><ele>41.75</ele><time>2026-03-28T17:08:45.93Z</time></trkpt><trkpt lat="45.9839514" lon="12.6831673"><ele>42.0</ele><time>2026-03-28T17:08:46.929Z</time></trkpt><trkpt lat="45.9838724" lon="12.6830185"><ele>42.0</ele><time>2026-03-28T17:08:47.929Z</time></trkpt><trkpt lat="45.983783" lon="12.6828737"><ele>42.0</ele><time>2026-03-28T17:08:48.93Z</time></trkpt><trkpt lat="45.983696" lon="12.682721"><ele>42.0</ele><time>2026-03-28T17:08:49.93Z</time></trkpt><trkpt lat="45.9836119" lon="12.6825674"><ele>42.0</ele><time>2026-03-28T17:08:50.93Z</time></trkpt><trkpt lat="45.9835216" lon="12.6824024"><ele>42.333333333333336</ele><time>2026-03-28T17:08:51.93Z</time></trkpt><trkpt lat="45.9834249" lon="12.6822364"><ele>42.66666666666667</ele><time>2026-03-28T17:08:52.929Z</time></trkpt><trkpt lat="45.983316" lon="12.6820638"><ele>43.0</ele><time>2026-03-28T17:08:53.929Z</time></trkpt><trkpt lat="45.9832021" lon="12.6818824"><ele>44.0</ele><time>2026-03-28T17:08:54.929Z</time></trkpt><trkpt lat="45.9830787" lon="12.6816944"><ele>45.0</ele><time>2026-03-28T17:08:55.929Z</time></trkpt><trkpt lat="45.9829508" lon="12.6815018"><ele>46.0</ele><time>2026-03-28T17:08:56.93Z</time></trkpt><trkpt lat="45.9828241" lon="12.6813083"><ele>46.0</ele><time>2026-03-28T17:08:57.929Z</time></trkpt><trkpt lat="45.9827013" lon="12.6811189"><ele>46.0</ele><time>2026-03-28T17:08:58.93Z</time></trkpt><trkpt lat="45.982579" lon="12.6809364"><ele>46.0</ele><time>2026-03-28T17:08:59.93Z</time></trkpt><trkpt lat="45.9824602" lon="12.6807584"><ele>45.66666666666667</ele><time>2026-03-28T17:09:00.93Z</time></trkpt><trkpt lat="45.9823373" lon="12.6805783"><ele>45.333333333333336</ele><time>2026-03-28T17:09:01.93Z</time></trkpt><trkpt lat="45.9822192" lon="12.680398"><ele>45.0</ele><time>2026-03-28T17:09:02.929Z</time></trkpt><trkpt lat="45.9820973" lon="12.6802125"><ele>45.0</ele><time>2026-03-28T17:09:03.929Z</time></trkpt><trkpt lat="45.9819831" lon="12.6800353"><ele>45.0</ele><time>2026-03-28T17:09:04.93Z</time></trkpt><trkpt lat="45.981879" lon="12.6798644"><ele>45.0</ele><time>2026-03-28T17:09:05.929Z</time></trkpt><trkpt lat="45.9817774" lon="12.6797178"><ele>45.0</ele><time>2026-03-28T17:09:06.929Z</time></trkpt><trkpt lat="45.981683" lon="12.6795756"><ele>45.0</ele><time>2026-03-28T17:09:07.93Z</time></trkpt><trkpt lat="45.9815948" lon="12.6794466"><ele>45.0</ele><time>2026-03-28T17:09:08.929Z</time></trkpt><trkpt lat="45.9815068" lon="12.6793155"><ele>45.0</ele><time>2026-03-28T17:09:09.929Z</time></trkpt><trkpt lat="45.9814245" lon="12.6791868"><ele>44.75</ele><time>2026-03-28T17:09:10.93Z</time></trkpt><trkpt lat="45.9813497" lon="12.6790634"><ele>44.5</ele><time>2026-03-28T17:09:11.93Z</time></trkpt><trkpt lat="45.9812771" lon="12.6789447"><ele>44.25</ele><time>2026-03-28T17:09:12.93Z</time></trkpt><trkpt lat="45.9812106" lon="12.6788085"><ele>44.0</ele><time>2026-03-28T17:09:13.93Z</time></trkpt><trkpt lat="45.9811428" lon="12.6786577"><ele>43.5</ele><time>2026-03-28T17:09:14.929Z</time></trkpt><trkpt lat="45.9810816" lon="12.6785064"><ele>43.0</ele><time>2026-03-28T17:09:15.929Z</time></trkpt><trkpt lat="45.9810219" lon="12.6783774"><ele>42.5</ele><time>2026-03-28T17:09:16.929Z</time></trkpt><trkpt lat="45.9809718" lon="12.6782399"><ele>42.0</ele><time>2026-03-28T17:09:17.929Z</time></trkpt><trkpt lat="45.9809172" lon="12.678097"><ele>42.0</ele><time>2026-03-28T17:09:18.929Z</time></trkpt><trkpt lat="45.980868" lon="12.677951"><ele>42.0</ele><time>2026-03-28T17:09:19.93Z</time></trkpt><trkpt lat="45.9808194" lon="12.6778071"><ele>42.0</ele><time>2026-03-28T17:09:20.929Z</time></trkpt><trkpt lat="45.9807698" lon="12.6776573"><ele>42.0</ele><time>2026-03-28T17:09:21.929Z</time></trkpt><trkpt lat="45.9807227" lon="12.6775052"><ele>42.5</ele><time>2026-03-28T17:09:22.929Z</time></trkpt><trkpt lat="45.9806801" lon="12.6773511"><ele>43.0</ele><time>2026-03-28T17:09:23.93Z</time></trkpt><trkpt lat="45.9806385" lon="12.6771942"><ele>43.5</ele><time>2026-03-28T17:09:24.93Z</time></trkpt><trkpt lat="45.980597" lon="12.6770369"><ele>44.0</ele><time>2026-03-28T17:09:25.93Z</time></trkpt><trkpt lat="45.9805549" lon="12.6768725"><ele>44.25</ele><time>2026-03-28T17:09:26.93Z</time></trkpt><trkpt lat="45.9805083" lon="12.6767059"><ele>44.5</ele><time>2026-03-28T17:09:27.929Z</time></trkpt><trkpt lat="45.9804651" lon="12.6765397"><ele>44.75</ele><time>2026-03-28T17:09:28.93Z</time></trkpt><trkpt lat="45.9804233" lon="12.6763759"><ele>45.0</ele><time>2026-03-28T17:09:29.929Z</time></trkpt><trkpt lat="45.9803792" lon="12.6762168"><ele>45.75</ele><time>2026-03-28T17:09:30.929Z</time></trkpt><trkpt lat="45.9803354" lon="12.6760494"><ele>46.5</ele><time>2026-03-28T17:09:31.93Z</time></trkpt><trkpt lat="45.9802941" lon="12.675893"><ele>47.25</ele><time>2026-03-28T17:09:32.929Z</time></trkpt><trkpt lat="45.9802553" lon="12.6757294"><ele>48.0</ele><time>2026-03-28T17:09:33.93Z</time></trkpt><trkpt lat="45.9802133" lon="12.6755663"><ele>48.0</ele><time>2026-03-28T17:09:34.93Z</time></trkpt><trkpt lat="45.9801682" lon="12.6754012"><ele>48.0</ele><time>2026-03-28T17:09:35.93Z</time></trkpt><trkpt lat="45.9801311" lon="12.6752466"><ele>48.0</ele><time>2026-03-28T17:09:36.929Z</time></trkpt><trkpt lat="45.980101" lon="12.6751023"><ele>48.0</ele><time>2026-03-28T17:09:37.93Z</time></trkpt><trkpt lat="45.9800671" lon="12.6749679"><ele>48.0</ele><time>2026-03-28T17:09:38.929Z</time></trkpt><trkpt lat="45.9800348" lon="12.6748491"><ele>46.599999999999994</ele><time>2026-03-28T17:09:39.93Z</time></trkpt><trkpt lat="45.9800052" lon="12.674756"><ele>45.199999999999996</ele><time>2026-03-28T17:09:40.929Z</time></trkpt><trkpt lat="45.9799173" lon="12.6746683"><ele>43.8</ele><time>2026-03-28T17:09:42.93Z</time></trkpt><trkpt lat="45.9797751" lon="12.6747308"><ele>42.4</ele><time>2026-03-28T17:09:44.929Z</time></trkpt><trkpt lat="45.9796852" lon="12.6748001"><ele>41.0</ele><time>2026-03-28T17:09:45.93Z</time></trkpt><trkpt lat="45.9795718" lon="12.6748974"><ele>41.0</ele><time>2026-03-28T17:09:46.929Z</time></trkpt><trkpt lat="45.9794718" lon="12.6749928"><ele>41.0</ele><time>2026-03-28T17:09:47.929Z</time></trkpt><trkpt lat="45.9793829" lon="12.67509"><ele>41.0</ele><time>2026-03-28T17:09:48.929Z</time></trkpt><trkpt lat="45.9792879" lon="12.6751967"><ele>41.0</ele><time>2026-03-28T17:09:49.93Z</time></trkpt><trkpt lat="45.9791865" lon="12.67531"><ele>40.75</ele><time>2026-03-28T17:09:50.929Z</time></trkpt><trkpt lat="45.9790979" lon="12.6754304"><ele>40.5</ele><time>2026-03-28T17:09:51.93Z</time></trkpt><trkpt lat="45.979013" lon="12.6755363"><ele>40.25</ele><time>2026-03-28T17:09:52.929Z</time></trkpt><trkpt lat="45.9789164" lon="12.6756456"><ele>40.0</ele><time>2026-03-28T17:09:53.93Z</time></trkpt><trkpt lat="45.9788165" lon="12.675756"><ele>40.0</ele><time>2026-03-28T17:09:54.929Z</time></trkpt><trkpt lat="45.9787136" lon="12.675869"><ele>40.0</ele><time>2026-03-28T17:09:55.93Z</time></trkpt><trkpt lat="45.9786086" lon="12.6759849"><ele>40.0</ele><time>2026-03-28T17:09:56.929Z</time></trkpt><trkpt lat="45.9785043" lon="12.6760931"><ele>40.0</ele><time>2026-03-28T17:09:57.929Z</time></trkpt><trkpt lat="45.9784089" lon="12.6762006"><ele>39.75</ele><time>2026-03-28T17:09:58.93Z</time></trkpt><trkpt lat="45.9783233" lon="12.6763036"><ele>39.5</ele><time>2026-03-28T17:09:59.93Z</time></trkpt><trkpt lat="45.9782416" lon="12.6764049"><ele>39.25</ele><time>2026-03-28T17:10:00.931Z</time></trkpt><trkpt lat="45.9781504" lon="12.6765117"><ele>39.0</ele><time>2026-03-28T17:10:01.929Z</time></trkpt><trkpt lat="45.9780505" lon="12.6766193"><ele>39.0</ele><time>2026-03-28T17:10:02.93Z</time></trkpt><trkpt lat="45.9779511" lon="12.676735"><ele>39.0</ele><time>2026-03-28T17:10:03.929Z</time></trkpt><trkpt lat="45.9778522" lon="12.6768481"><ele>39.0</ele><time>2026-03-28T17:10:04.93Z</time></trkpt><trkpt lat="45.9777602" lon="12.6769598"><ele>39.0</ele><time>2026-03-28T17:10:05.929Z</time></trkpt><trkpt lat="45.9776665" lon="12.677081"><ele>38.75</ele><time>2026-03-28T17:10:06.929Z</time></trkpt><trkpt lat="45.9775687" lon="12.6772054"><ele>38.5</ele><time>2026-03-28T17:10:07.929Z</time></trkpt><trkpt lat="45.977466" lon="12.677329"><ele>38.25</ele><time>2026-03-28T17:10:08.929Z</time></trkpt><trkpt lat="45.9773623" lon="12.6774544"><ele>38.0</ele><time>2026-03-28T17:10:09.93Z</time></trkpt><trkpt lat="45.9772551" lon="12.6775744"><ele>38.0</ele><time>2026-03-28T17:10:10.929Z</time></trkpt><trkpt lat="45.9771474" lon="12.6776938"><ele>38.0</ele><time>2026-03-28T17:10:11.93Z</time></trkpt><trkpt lat="45.9770516" lon="12.6778037"><ele>38.0</ele><time>2026-03-28T17:10:12.929Z</time></trkpt><trkpt lat="45.9769616" lon="12.6779111"><ele>38.0</ele><time>2026-03-28T17:10:13.929Z</time></trkpt><trkpt lat="45.9768675" lon="12.6780087"><ele>38.0</ele><time>2026-03-28T17:10:14.93Z</time></trkpt><trkpt lat="45.976781" lon="12.6780956"><ele>38.0</ele><time>2026-03-28T17:10:15.929Z</time></trkpt><trkpt lat="45.9767" lon="12.6781743"><ele>38.0</ele><time>2026-03-28T17:10:16.929Z</time></trkpt><trkpt lat="45.9766335" lon="12.6782565"><ele>38.0</ele><time>2026-03-28T17:10:17.929Z</time></trkpt><trkpt lat="45.9765719" lon="12.6783389"><ele>38.0</ele><time>2026-03-28T17:10:18.93Z</time></trkpt><trkpt lat="45.9765185" lon="12.6784183"><ele>37.666666666666664</ele><time>2026-03-28T17:10:19.93Z</time></trkpt><trkpt lat="45.9764679" lon="12.6784839"><ele>37.33333333333333</ele><time>2026-03-28T17:10:20.93Z</time></trkpt><trkpt lat="45.9764096" lon="12.6785294"><ele>37.0</ele><time>2026-03-28T17:10:21.929Z</time></trkpt><trkpt lat="45.9763554" lon="12.678594"><ele>36.666666666666664</ele><time>2026-03-28T17:10:22.929Z</time></trkpt><trkpt lat="45.9762825" lon="12.6786853"><ele>36.333333333333336</ele><time>2026-03-28T17:10:24.929Z</time></trkpt><trkpt lat="45.9762029" lon="12.6785783"><ele>36.0</ele><time>2026-03-28T17:10:27.929Z</time></trkpt><trkpt lat="45.976169" lon="12.678482"><ele>36.0</ele><time>2026-03-28T17:10:28.93Z</time></trkpt><trkpt lat="45.9761226" lon="12.6783767"><ele>36.0</ele><time>2026-03-28T17:10:29.93Z</time></trkpt><trkpt lat="45.976074" lon="12.6782613"><ele>36.0</ele><time>2026-03-28T17:10:30.93Z</time></trkpt><trkpt lat="45.9760283" lon="12.6781396"><ele>36.0</ele><time>2026-03-28T17:10:31.93Z</time></trkpt><trkpt lat="45.9759799" lon="12.6780096"><ele>36.0</ele><time>2026-03-28T17:10:32.929Z</time></trkpt><trkpt lat="45.975925" lon="12.6778698"><ele>36.0</ele><time>2026-03-28T17:10:33.93Z</time></trkpt><trkpt lat="45.9758698" lon="12.6777242"><ele>36.0</ele><time>2026-03-28T17:10:34.929Z</time></trkpt><trkpt lat="45.975808" lon="12.6775947"><ele>36.0</ele><time>2026-03-28T17:10:35.928Z</time></trkpt><trkpt lat="45.9757466" lon="12.6774583"><ele>36.0</ele><time>2026-03-28T17:10:36.93Z</time></trkpt><trkpt lat="45.9756958" lon="12.6773193"><ele>36.0</ele><time>2026-03-28T17:10:37.93Z</time></trkpt><trkpt lat="45.9756372" lon="12.6771798"><ele>36.0</ele><time>2026-03-28T17:10:38.93Z</time></trkpt><trkpt lat="45.9755769" lon="12.6770341"><ele>36.0</ele><time>2026-03-28T17:10:39.93Z</time></trkpt><trkpt lat="45.9755122" lon="12.6768824"><ele>36.0</ele><time>2026-03-28T17:10:40.93Z</time></trkpt><trkpt lat="45.9754516" lon="12.6767367"><ele>36.0</ele><time>2026-03-28T17:10:41.929Z</time></trkpt><trkpt lat="45.9753954" lon="12.6766044"><ele>35.8</ele><time>2026-03-28T17:10:42.929Z</time></trkpt><trkpt lat="45.9753439" lon="12.6764814"><ele>35.6</ele><time>2026-03-28T17:10:43.929Z</time></trkpt><trkpt lat="45.9752902" lon="12.6763728"><ele>35.4</ele><time>2026-03-28T17:10:44.929Z</time></trkpt><trkpt lat="45.9752464" lon="12.6762769"><ele>35.2</ele><time>2026-03-28T17:10:45.929Z</time></trkpt><trkpt lat="45.9751506" lon="12.6761803"><ele>35.0</ele><time>2026-03-28T17:10:47.929Z</time></trkpt><trkpt lat="45.9750498" lon="12.6762351"><ele>35.0</ele><time>2026-03-28T17:10:49.93Z</time></trkpt><trkpt lat="45.974986" lon="12.6763103"><ele>35.0</ele><time>2026-03-28T17:10:50.93Z</time></trkpt><trkpt lat="45.97491" lon="12.6763993"><ele>35.0</ele><time>2026-03-28T17:10:51.93Z</time></trkpt><trkpt lat="45.9748331" lon="12.6764817"><ele>35.0</ele><time>2026-03-28T17:10:52.93Z</time></trkpt><trkpt lat="45.9747463" lon="12.6765717"><ele>35.0</ele><time>2026-03-28T17:10:53.93Z</time></trkpt><trkpt lat="45.9746591" lon="12.6766702"><ele>35.0</ele><time>2026-03-28T17:10:54.929Z</time></trkpt><trkpt lat="45.974567" lon="12.6767703"><ele>35.0</ele><time>2026-03-28T17:10:55.929Z</time></trkpt><trkpt lat="45.9744824" lon="12.676862"><ele>35.0</ele><time>2026-03-28T17:10:56.93Z</time></trkpt><trkpt lat="45.9744061" lon="12.6769486"><ele>35.0</ele><time>2026-03-28T17:10:57.929Z</time></trkpt><trkpt lat="45.974332" lon="12.6770228"><ele>35.0</ele><time>2026-03-28T17:10:58.93Z</time></trkpt><trkpt lat="45.9742662" lon="12.6770916"><ele>35.0</ele><time>2026-03-28T17:10:59.93Z</time></trkpt><trkpt lat="45.9742014" lon="12.677154"><ele>35.0</ele><time>2026-03-28T17:11:00.93Z</time></trkpt><trkpt lat="45.974144" lon="12.6772185"><ele>35.0</ele><time>2026-03-28T17:11:01.929Z</time></trkpt><trkpt lat="45.9740851" lon="12.6772614"><ele>35.0</ele><time>2026-03-28T17:11:02.93Z</time></trkpt><trkpt lat="45.9739682" lon="12.6772735"><ele>35.0</ele><time>2026-03-28T17:11:04.929Z</time></trkpt><trkpt lat="45.9739113" lon="12.6773238"><ele>35.0</ele><time>2026-03-28T17:11:05.93Z</time></trkpt><trkpt lat="45.9738494" lon="12.6774009"><ele>34.83333333333333</ele><time>2026-03-28T17:11:06.929Z</time></trkpt><trkpt lat="45.973783" lon="12.6774756"><ele>34.666666666666664</ele><time>2026-03-28T17:11:07.929Z</time></trkpt><trkpt lat="45.9737191" lon="12.6775483"><ele>34.5</ele><time>2026-03-28T17:11:08.929Z</time></trkpt><trkpt lat="45.9736573" lon="12.6776182"><ele>34.333333333333336</ele><time>2026-03-28T17:11:09.93Z</time></trkpt><trkpt lat="45.9735978" lon="12.6776849"><ele>34.16666666666667</ele><time>2026-03-28T17:11:10.929Z</time></trkpt><trkpt lat="45.9735394" lon="12.6777484"><ele>34.0</ele><time>2026-03-28T17:11:11.929Z</time></trkpt><trkpt lat="45.9734452" lon="12.6778484"><ele>33.5</ele><time>2026-03-28T17:11:13.929Z</time></trkpt><trkpt lat="45.9733523" lon="12.6779595"><ele>33.0</ele><time>2026-03-28T17:11:15.929Z</time></trkpt><trkpt lat="45.9732689" lon="12.6780191"><ele>32.5</ele><time>2026-03-28T17:11:17.929Z</time></trkpt><trkpt lat="45.9732243" lon="12.6780894"><ele>32.0</ele><time>2026-03-28T17:11:19.93Z</time></trkpt><trkpt lat="45.9731697" lon="12.6781481"><ele>31.500000000000004</ele><time>2026-03-28T17:11:22.929Z</time></trkpt><trkpt lat="45.973113" lon="12.6782173"><ele>31.0</ele><time>2026-03-28T17:11:26.93Z</time></trkpt><trkpt lat="45.9730581" lon="12.6782816"><ele>31.0</ele><time>2026-03-28T17:11:30.929Z</time></trkpt><trkpt lat="45.973" lon="12.6783438"><ele>31.0</ele><time>2026-03-28T17:11:33.929Z</time></trkpt><trkpt lat="45.9729378" lon="12.6784032"><ele>31.0</ele><time>2026-03-28T17:11:37.929Z</time></trkpt><trkpt lat="45.9728927" lon="12.6784756"><ele>31.0</ele><time>2026-03-28T17:11:42.929Z</time></trkpt><trkpt lat="45.9727732" lon="12.6780701"><ele>31.0</ele><time>2026-03-28T17:12:16.113Z</time></trkpt><trkpt lat="45.9728626" lon="12.6783978"><ele>31.0</ele><time>2026-03-28T17:12:57.929Z</time></trkpt><trkpt lat="45.9728739" lon="12.6785178"><ele>31.0</ele><time>2026-03-28T17:13:01.929Z</time></trkpt><trkpt lat="45.9728129" lon="12.67857"><ele>31.0</ele><time>2026-03-28T17:15:55.929Z</time></trkpt><trkpt lat="45.9728412" lon="12.6784668"><ele>31.0</ele><time>2026-03-28T17:16:32.93Z</time></trkpt><trkpt lat="45.97286" lon="12.678556"><ele>31.0</ele><time>2026-03-28T17:17:37.93Z</time></trkpt><trkpt lat="45.9728144" lon="12.6783763"><ele>31.0</ele><time>2026-03-28T17:18:48.347Z</time></trkpt><trkpt lat="45.9727533" lon="12.6783497"><ele>31.0</ele><time>2026-03-28T17:19:01.929Z</time></trkpt><trkpt lat="45.9727751" lon="12.6780604"><ele>31.0</ele><time>2026-03-28T17:22:06.446Z</time></trkpt></trkseg></trk></gpx>